Wetterdaten: Freitag, 09.06.2023
Datum Zeit Temp. I. Temp. A. Feuchte I. Feuchte A. Luftdruck Regen Wind Richtung Richtung Sonnenschein Solar Taupunkt Windchill Windböen
09.06.2023 00:00 22,2 °C 15,2 °C 59 % 91 % 1015,5 hPa 0,0 l/m² 2,0 km/h (1 Bft) N-NW 330 ° 0 min 0 W/m² 13,7 °C 15,2 °C 4,8 km/h (1 Bft)
09.06.2023 00:02 22,2 °C 15,3 °C 59 % 91 % 1015,5 hPa 0,0 l/m² 4,2 km/h (1 Bft) N-NW 334 ° 0 min 0 W/m² 13,8 °C 15,3 °C 8,0 km/h (2 Bft)
09.06.2023 00:04 22,2 °C 15,6 °C 59 % 90 % 1015,4 hPa 0,0 l/m² 5,4 km/h (2 Bft) N-NW 336 ° 0 min 0 W/m² 14,0 °C 15,6 °C 8,0 km/h (2 Bft)
09.06.2023 00:06 22,2 °C 15,8 °C 59 % 89 % 1015,5 hPa 0,0 l/m² 5,2 km/h (1 Bft) NW 309 ° 0 min 0 W/m² 14,0 °C 15,8 °C 14,5 km/h (3 Bft)
09.06.2023 00:08 22,2 °C 16,0 °C 59 % 88 % 1015,4 hPa 0,0 l/m² 5,2 km/h (1 Bft) N-NW 336 ° 0 min 0 W/m² 14,0 °C 16,0 °C 8,0 km/h (2 Bft)
09.06.2023 00:10 22,2 °C 16,1 °C 59 % 87 % 1015,4 hPa 0,0 l/m² 4,1 km/h (1 Bft) NW 306 ° 0 min 0 W/m² 13,9 °C 16,1 °C 6,4 km/h (2 Bft)
09.06.2023 00:11 22,1 °C 16,1 °C 59 % 87 % 1015,4 hPa 0,0 l/m² 4,1 km/h (1 Bft) NW 313 ° 0 min 0 W/m² 13,9 °C 16,1 °C 6,4 km/h (2 Bft)
09.06.2023 00:13 22,2 °C 16,1 °C 59 % 87 % 1015,4 hPa 0,0 l/m² 4,0 km/h (1 Bft) NW 320 ° 0 min 0 W/m² 13,9 °C 16,1 °C 11,3 km/h (2 Bft)
09.06.2023 00:14 22,2 °C 16,1 °C 59 % 86 % 1015,5 hPa 0,0 l/m² 4,8 km/h (1 Bft) NW 311 ° 0 min 0 W/m² 13,8 °C 16,1 °C 6,4 km/h (2 Bft)
09.06.2023 00:16 22,1 °C 16,1 °C 59 % 86 % 1015,4 hPa 0,0 l/m² 4,8 km/h (1 Bft) W-NW 298 ° 0 min 0 W/m² 13,8 °C 16,1 °C 9,7 km/h (2 Bft)
09.06.2023 00:18 22,1 °C 16,0 °C 59 % 86 % 1015,4 hPa 0,0 l/m² 4,0 km/h (1 Bft) NW 310 ° 0 min 0 W/m² 13,7 °C 16,0 °C 8,0 km/h (2 Bft)
09.06.2023 00:20 22,1 °C 16,0 °C 59 % 86 % 1015,4 hPa 0,0 l/m² 4,7 km/h (1 Bft) N-NW 330 ° 0 min 0 W/m² 13,7 °C 16,0 °C 8,0 km/h (2 Bft)
09.06.2023 00:21 22,2 °C 15,9 °C 59 % 86 % 1015,4 hPa 0,0 l/m² 5,7 km/h (2 Bft) NW 306 ° 0 min 0 W/m² 13,6 °C 15,9 °C 11,3 km/h (2 Bft)
09.06.2023 00:23 22,2 °C 15,9 °C 59 % 86 % 1015,4 hPa 0,0 l/m² 4,2 km/h (1 Bft) W-NW 297 ° 0 min 0 W/m² 13,6 °C 15,9 °C 6,4 km/h (2 Bft)
09.06.2023 00:24 22,1 °C 16,0 °C 59 % 85 % 1015,5 hPa 0,0 l/m² 5,8 km/h (2 Bft) W-NW 290 ° 0 min 0 W/m² 13,5 °C 16,0 °C 8,0 km/h (2 Bft)
09.06.2023 00:26 22,1 °C 16,0 °C 59 % 85 % 1015,4 hPa 0,0 l/m² 2,7 km/h (1 Bft) W-NW 294 ° 0 min 0 W/m² 13,5 °C 16,0 °C 6,4 km/h (2 Bft)
09.06.2023 00:28 22,1 °C 15,9 °C 59 % 85 % 1015,4 hPa 0,0 l/m² 2,7 km/h (1 Bft) S-SW 212 ° 0 min 0 W/m² 13,4 °C 15,9 °C 4,8 km/h (1 Bft)
09.06.2023 00:30 22,1 °C 15,8 °C 59 % 85 % 1015,4 hPa 0,0 l/m² 1,6 km/h (1 Bft) S 187 ° 0 min 0 W/m² 13,3 °C 15,8 °C 4,8 km/h (1 Bft)
09.06.2023 00:31 22,1 °C 15,8 °C 59 % 86 % 1015,4 hPa 0,0 l/m² 0,1 km/h (0 Bft) S 187 ° 0 min 0 W/m² 13,5 °C 15,8 °C 1,6 km/h (1 Bft)
09.06.2023 00:33 22,1 °C 15,7 °C 59 % 86 % 1015,5 hPa 0,0 l/m² 0,0 km/h (0 Bft) S 187 ° 0 min 0 W/m² 13,4 °C 15,7 °C 0,0 km/h (0 Bft)
09.06.2023 00:34 22,1 °C 15,7 °C 59 % 86 % 1015,5 hPa 0,0 l/m² 0,1 km/h (0 Bft) S 188 ° 0 min 0 W/m² 13,4 °C 15,7 °C 1,6 km/h (1 Bft)
09.06.2023 00:36 22,1 °C 15,5 °C 59 % 86 % 1015,4 hPa 0,0 l/m² 1,0 km/h (0 Bft) S 188 ° 0 min 0 W/m² 13,2 °C 15,5 °C 3,2 km/h (1 Bft)
09.06.2023 00:38 22,1 °C 15,4 °C 59 % 87 % 1015,4 hPa 0,0 l/m² 3,5 km/h (1 Bft) W-SW 238 ° 0 min 0 W/m² 13,2 °C 15,4 °C 6,4 km/h (2 Bft)
09.06.2023 00:40 22,1 °C 15,4 °C 59 % 87 % 1015,4 hPa 0,0 l/m² 3,3 km/h (1 Bft) W 274 ° 0 min 0 W/m² 13,2 °C 15,4 °C 6,4 km/h (2 Bft)
09.06.2023 00:41 22,1 °C 15,4 °C 59 % 87 % 1015,5 hPa 0,0 l/m² 2,1 km/h (1 Bft) W 276 ° 0 min 0 W/m² 13,2 °C 15,4 °C 4,8 km/h (1 Bft)
09.06.2023 00:43 22,1 °C 15,3 °C 59 % 87 % 1015,4 hPa 0,0 l/m² 2,5 km/h (1 Bft) W 274 ° 0 min 0 W/m² 13,1 °C 15,3 °C 4,8 km/h (1 Bft)
09.06.2023 00:45 22,1 °C 15,2 °C 59 % 87 % 1015,3 hPa 0,0 l/m² 0,3 km/h (0 Bft) W 274 ° 0 min 0 W/m² 13,0 °C 15,2 °C 3,2 km/h (1 Bft)
09.06.2023 00:46 22,1 °C 15,2 °C 59 % 87 % 1015,3 hPa 0,0 l/m² 2,4 km/h (1 Bft) W 274 ° 0 min 0 W/m² 13,0 °C 15,2 °C 3,2 km/h (1 Bft)
09.06.2023 00:48 22,1 °C 15,2 °C 59 % 88 % 1015,3 hPa 0,0 l/m² 2,4 km/h (1 Bft) W 274 ° 0 min 0 W/m² 13,2 °C 15,2 °C 3,2 km/h (1 Bft)
09.06.2023 00:50 22,1 °C 15,1 °C 59 % 88 % 1015,3 hPa 0,0 l/m² 2,9 km/h (1 Bft) W 274 ° 0 min 0 W/m² 13,1 °C 15,1 °C 4,8 km/h (1 Bft)
09.06.2023 00:51 22,1 °C 15,1 °C 59 % 88 % 1015,3 hPa 0,0 l/m² 3,9 km/h (1 Bft) S-SW 207 ° 0 min 0 W/m² 13,1 °C 15,1 °C 4,8 km/h (1 Bft)
09.06.2023 00:53 22,1 °C 14,9 °C 59 % 88 % 1015,4 hPa 0,0 l/m² 3,4 km/h (1 Bft) S-SW 207 ° 0 min 0 W/m² 12,9 °C 14,9 °C 4,8 km/h (1 Bft)
09.06.2023 00:54 22,1 °C 14,9 °C 59 % 88 % 1015,3 hPa 0,0 l/m² 3,8 km/h (1 Bft) S-SW 207 ° 0 min 0 W/m² 12,9 °C 14,9 °C 4,8 km/h (1 Bft)
09.06.2023 00:56 22,1 °C 14,8 °C 59 % 88 % 1015,3 hPa 0,0 l/m² 2,1 km/h (1 Bft) S-SW 207 ° 0 min 0 W/m² 12,8 °C 14,8 °C 3,2 km/h (1 Bft)
09.06.2023 00:58 22,1 °C 14,8 °C 59 % 89 % 1015,4 hPa 0,0 l/m² 1,5 km/h (1 Bft) S-SW 207 ° 0 min 0 W/m² 13,0 °C 14,8 °C 4,8 km/h (1 Bft)
09.06.2023 01:00 22,1 °C 14,9 °C 59 % 89 % 1015,4 hPa 0,0 l/m² 3,2 km/h (1 Bft) S-SW 211 ° 0 min 0 W/m² 13,1 °C 14,9 °C 4,8 km/h (1 Bft)
09.06.2023 01:01 22,1 °C 14,9 °C 59 % 89 % 1015,4 hPa 0,0 l/m² 2,6 km/h (1 Bft) SW 223 ° 0 min 0 W/m² 13,1 °C 14,9 °C 4,8 km/h (1 Bft)
09.06.2023 01:03 22,1 °C 15,1 °C 59 % 89 % 1015,4 hPa 0,0 l/m² 3,0 km/h (1 Bft) SW 224 ° 0 min 0 W/m² 13,3 °C 15,1 °C 4,8 km/h (1 Bft)
09.06.2023 01:04 22,1 °C 15,1 °C 59 % 89 % 1015,5 hPa 0,0 l/m² 1,9 km/h (1 Bft) SW 220 ° 0 min 0 W/m² 13,3 °C 15,1 °C 4,8 km/h (1 Bft)
09.06.2023 01:06 22,1 °C 15,1 °C 59 % 88 % 1015,5 hPa 0,0 l/m² 4,1 km/h (1 Bft) SW 219 ° 0 min 0 W/m² 13,1 °C 15,1 °C 6,4 km/h (2 Bft)
09.06.2023 01:08 22,1 °C 15,1 °C 59 % 88 % 1015,4 hPa 0,0 l/m² 2,8 km/h (1 Bft) SW 219 ° 0 min 0 W/m² 13,1 °C 15,1 °C 4,8 km/h (1 Bft)
09.06.2023 01:10 22,1 °C 15,1 °C 59 % 88 % 1015,4 hPa 0,0 l/m² 2,4 km/h (1 Bft) SW 219 ° 0 min 0 W/m² 13,1 °C 15,1 °C 4,8 km/h (1 Bft)
09.06.2023 01:11 22,1 °C 15,0 °C 59 % 88 % 1015,4 hPa 0,0 l/m² 1,4 km/h (1 Bft) W-SW 237 ° 0 min 0 W/m² 13,0 °C 15,0 °C 3,2 km/h (1 Bft)
09.06.2023 01:12 22,1 °C 15,0 °C 59 % 88 % 1015,4 hPa 0,0 l/m² 0,1 km/h (0 Bft) W-SW 237 ° 0 min 0 W/m² 13,0 °C 15,0 °C 1,6 km/h (1 Bft)
09.06.2023 01:13 22,1 °C 15,1 °C 59 % 89 % 1015,3 hPa 0,0 l/m² 1,0 km/h (0 Bft) W-SW 237 ° 0 min 0 W/m² 13,3 °C 15,1 °C 3,2 km/h (1 Bft)
09.06.2023 01:14 22,1 °C 15,1 °C 59 % 89 % 1015,4 hPa 0,0 l/m² 1,5 km/h (1 Bft) W-SW 242 ° 0 min 0 W/m² 13,3 °C 15,1 °C 3,2 km/h (1 Bft)
09.06.2023 01:16 22,1 °C 15,2 °C 59 % 89 % 1015,4 hPa 0,0 l/m² 2,0 km/h (1 Bft) W 272 ° 0 min 0 W/m² 13,4 °C 15,2 °C 4,8 km/h (1 Bft)
09.06.2023 01:18 22,1 °C 15,2 °C 59 % 88 % 1015,3 hPa 0,0 l/m² 1,5 km/h (1 Bft) W 272 ° 0 min 0 W/m² 13,2 °C 15,2 °C 3,2 km/h (1 Bft)
09.06.2023 01:20 22,1 °C 15,1 °C 59 % 88 % 1015,2 hPa 0,0 l/m² 2,0 km/h (1 Bft) W 272 ° 0 min 0 W/m² 13,1 °C 15,1 °C 6,4 km/h (2 Bft)
09.06.2023 01:21 22,1 °C 15,1 °C 59 % 88 % 1015,3 hPa 0,0 l/m² 1,7 km/h (1 Bft) W 272 ° 0 min 0 W/m² 13,1 °C 15,1 °C 4,8 km/h (1 Bft)
09.06.2023 01:23 22,1 °C 15,1 °C 59 % 88 % 1015,3 hPa 0,0 l/m² 2,1 km/h (1 Bft) W 272 ° 0 min 0 W/m² 13,1 °C 15,1 °C 3,2 km/h (1 Bft)
09.06.2023 01:24 22,1 °C 15,1 °C 59 % 88 % 1015,3 hPa 0,0 l/m² 2,7 km/h (1 Bft) W 272 ° 0 min 0 W/m² 13,1 °C 15,1 °C 4,8 km/h (1 Bft)
09.06.2023 01:26 22,1 °C 14,9 °C 59 % 88 % 1015,3 hPa 0,0 l/m² 3,8 km/h (1 Bft) W 272 ° 0 min 0 W/m² 12,9 °C 14,9 °C 4,8 km/h (1 Bft)
09.06.2023 01:28 22,1 °C 14,9 °C 59 % 89 % 1015,2 hPa 0,0 l/m² 2,4 km/h (1 Bft) W 272 ° 0 min 0 W/m² 13,1 °C 14,9 °C 4,8 km/h (1 Bft)
09.06.2023 01:30 22,1 °C 14,8 °C 59 % 89 % 1015,2 hPa 0,0 l/m² 2,9 km/h (1 Bft) W 272 ° 0 min 0 W/m² 13,0 °C 14,8 °C 4,8 km/h (1 Bft)
09.06.2023 01:31 22,1 °C 14,8 °C 59 % 89 % 1015,2 hPa 0,0 l/m² 1,7 km/h (1 Bft) W 272 ° 0 min 0 W/m² 13,0 °C 14,8 °C 3,2 km/h (1 Bft)
09.06.2023 01:32 22,1 °C 14,8 °C 59 % 89 % 1015,3 hPa 0,0 l/m² 1,8 km/h (1 Bft) W 272 ° 0 min 0 W/m² 13,0 °C 14,8 °C 3,2 km/h (1 Bft)
09.06.2023 01:34 22,1 °C 14,8 °C 59 % 89 % 1015,3 hPa 0,0 l/m² 2,1 km/h (1 Bft) W 272 ° 0 min 0 W/m² 13,0 °C 14,8 °C 4,8 km/h (1 Bft)
09.06.2023 01:36 22,1 °C 14,8 °C 59 % 89 % 1015,2 hPa 0,0 l/m² 3,0 km/h (1 Bft) W 272 ° 0 min 0 W/m² 13,0 °C 14,8 °C 4,8 km/h (1 Bft)
09.06.2023 01:38 22,1 °C 14,7 °C 59 % 89 % 1015,2 hPa 0,0 l/m² 2,6 km/h (1 Bft) W 272 ° 0 min 0 W/m² 12,9 °C 14,7 °C 4,8 km/h (1 Bft)
09.06.2023 01:40 22,1 °C 14,8 °C 59 % 90 % 1015,2 hPa 0,0 l/m² 1,8 km/h (1 Bft) W 272 ° 0 min 0 W/m² 13,2 °C 14,8 °C 4,8 km/h (1 Bft)
09.06.2023 01:41 22,1 °C 14,8 °C 59 % 89 % 1015,2 hPa 0,0 l/m² 2,8 km/h (1 Bft) W 272 ° 0 min 0 W/m² 13,0 °C 14,8 °C 4,8 km/h (1 Bft)
09.06.2023 01:42 22,1 °C 14,8 °C 59 % 89 % 1015,3 hPa 0,0 l/m² 3,2 km/h (1 Bft) W 272 ° 0 min 0 W/m² 13,0 °C 14,8 °C 4,8 km/h (1 Bft)
09.06.2023 01:44 22,1 °C 14,9 °C 59 % 90 % 1015,1 hPa 0,0 l/m² 1,3 km/h (1 Bft) W 272 ° 0 min 0 W/m² 13,3 °C 14,9 °C 3,2 km/h (1 Bft)
09.06.2023 01:46 22,1 °C 14,9 °C 59 % 90 % 1015,2 hPa 0,0 l/m² 0,4 km/h (0 Bft) W 272 ° 0 min 0 W/m² 13,3 °C 14,9 °C 3,2 km/h (1 Bft)
09.06.2023 01:48 22,1 °C 15,1 °C 59 % 89 % 1015,1 hPa 0,0 l/m² 1,0 km/h (0 Bft) W 272 ° 0 min 0 W/m² 13,3 °C 15,1 °C 3,2 km/h (1 Bft)
09.06.2023 01:50 22,0 °C 15,1 °C 59 % 89 % 1015,2 hPa 0,0 l/m² 1,2 km/h (1 Bft) W 272 ° 0 min 0 W/m² 13,3 °C 15,1 °C 3,2 km/h (1 Bft)
09.06.2023 01:51 22,1 °C 15,1 °C 59 % 89 % 1015,2 hPa 0,0 l/m² 0,1 km/h (0 Bft) W 272 ° 0 min 0 W/m² 13,3 °C 15,1 °C 1,6 km/h (1 Bft)
09.06.2023 01:53 22,1 °C 15,1 °C 59 % 89 % 1015,0 hPa 0,0 l/m² 2,0 km/h (1 Bft) W 272 ° 0 min 0 W/m² 13,3 °C 15,1 °C 4,8 km/h (1 Bft)
09.06.2023 01:55 22,1 °C 15,0 °C 59 % 89 % 1015,1 hPa 0,0 l/m² 0,7 km/h (0 Bft) W 272 ° 0 min 0 W/m² 13,2 °C 15,0 °C 3,2 km/h (1 Bft)
09.06.2023 01:57 22,1 °C 15,0 °C 59 % 89 % 1015,0 hPa 0,0 l/m² 0,8 km/h (0 Bft) W 272 ° 0 min 0 W/m² 13,2 °C 15,0 °C 3,2 km/h (1 Bft)
09.06.2023 01:59 22,1 °C 14,9 °C 59 % 89 % 1015,1 hPa 0,0 l/m² 1,2 km/h (1 Bft) W 272 ° 0 min 0 W/m² 13,1 °C 14,9 °C 3,2 km/h (1 Bft)
09.06.2023 02:01 22,1 °C 14,9 °C 59 % 89 % 1015,1 hPa 0,0 l/m² 1,8 km/h (1 Bft) W 272 ° 0 min 0 W/m² 13,1 °C 14,9 °C 4,8 km/h (1 Bft)
09.06.2023 02:02 22,1 °C 14,9 °C 59 % 89 % 1015,1 hPa 0,0 l/m² 0,0 km/h (0 Bft) W 272 ° 0 min 0 W/m² 13,1 °C 14,9 °C 0,0 km/h (0 Bft)
09.06.2023 02:03 22,1 °C 14,9 °C 59 % 89 % 1015,1 hPa 0,0 l/m² 1,5 km/h (1 Bft) W 272 ° 0 min 0 W/m² 13,1 °C 14,9 °C 3,2 km/h (1 Bft)
09.06.2023 02:05 22,1 °C 14,8 °C 59 % 89 % 1015,2 hPa 0,0 l/m² 2,2 km/h (1 Bft) W 272 ° 0 min 0 W/m² 13,0 °C 14,8 °C 3,2 km/h (1 Bft)
09.06.2023 02:07 22,1 °C 14,7 °C 59 % 89 % 1015,2 hPa 0,0 l/m² 0,2 km/h (0 Bft) W 272 ° 0 min 0 W/m² 12,9 °C 14,7 °C 1,6 km/h (1 Bft)
09.06.2023 02:09 22,1 °C 14,6 °C 59 % 89 % 1015,2 hPa 0,0 l/m² 0,2 km/h (0 Bft) W 272 ° 0 min 0 W/m² 12,8 °C 14,6 °C 1,6 km/h (1 Bft)
09.06.2023 02:11 22,1 °C 14,4 °C 59 % 89 % 1015,2 hPa 0,0 l/m² 0,7 km/h (0 Bft) W 272 ° 0 min 0 W/m² 12,6 °C 14,4 °C 3,2 km/h (1 Bft)
09.06.2023 02:12 22,1 °C 14,3 °C 59 % 89 % 1015,2 hPa 0,0 l/m² 0,1 km/h (0 Bft) W 272 ° 0 min 0 W/m² 12,5 °C 14,3 °C 1,6 km/h (1 Bft)
09.06.2023 02:13 22,0 °C 14,3 °C 59 % 89 % 1015,2 hPa 0,0 l/m² 0,0 km/h (0 Bft) W 272 ° 0 min 0 W/m² 12,5 °C 14,3 °C 0,0 km/h (0 Bft)
09.06.2023 02:15 22,1 °C 14,1 °C 59 % 89 % 1015,2 hPa 0,0 l/m² 0,2 km/h (0 Bft) W 272 ° 0 min 0 W/m² 12,3 °C 14,1 °C 1,6 km/h (1 Bft)
09.06.2023 02:17 22,0 °C 14,1 °C 59 % 90 % 1015,2 hPa 0,0 l/m² 0,0 km/h (0 Bft) W 272 ° 0 min 0 W/m² 12,5 °C 14,1 °C 0,0 km/h (0 Bft)
09.06.2023 02:19 22,0 °C 14,1 °C 59 % 90 % 1015,2 hPa 0,0 l/m² 0,0 km/h (0 Bft) W 272 ° 0 min 0 W/m² 12,5 °C 14,1 °C 0,0 km/h (0 Bft)
09.06.2023 02:21 22,0 °C 14,2 °C 59 % 91 % 1015,2 hPa 0,0 l/m² 0,0 km/h (0 Bft) W 272 ° 0 min 0 W/m² 12,8 °C 14,2 °C 0,0 km/h (0 Bft)
09.06.2023 02:22 22,0 °C 14,2 °C 59 % 91 % 1015,2 hPa 0,0 l/m² 0,0 km/h (0 Bft) W 272 ° 0 min 0 W/m² 12,8 °C 14,2 °C 0,0 km/h (0 Bft)
09.06.2023 02:23 22,0 °C 14,2 °C 59 % 91 % 1015,2 hPa 0,0 l/m² 0,0 km/h (0 Bft) W 272 ° 0 min 0 W/m² 12,8 °C 14,2 °C 0,0 km/h (0 Bft)
09.06.2023 02:25 22,0 °C 14,2 °C 59 % 91 % 1015,1 hPa 0,0 l/m² 0,5 km/h (0 Bft) W 272 ° 0 min 0 W/m² 12,8 °C 14,2 °C 3,2 km/h (1 Bft)
09.06.2023 02:27 22,0 °C 14,1 °C 59 % 91 % 1015,2 hPa 0,0 l/m² 1,6 km/h (1 Bft) W 272 ° 0 min 0 W/m² 12,7 °C 14,1 °C 4,8 km/h (1 Bft)
09.06.2023 02:29 22,0 °C 14,1 °C 59 % 91 % 1015,2 hPa 0,0 l/m² 4,1 km/h (1 Bft) W 272 ° 0 min 0 W/m² 12,7 °C 14,1 °C 4,8 km/h (1 Bft)
09.06.2023 02:31 22,0 °C 14,2 °C 59 % 91 % 1015,2 hPa 0,0 l/m² 4,1 km/h (1 Bft) W 272 ° 0 min 0 W/m² 12,8 °C 14,2 °C 6,4 km/h (2 Bft)
09.06.2023 02:32 22,0 °C 14,2 °C 59 % 91 % 1015,2 hPa 0,0 l/m² 3,0 km/h (1 Bft) W 272 ° 0 min 0 W/m² 12,8 °C 14,2 °C 4,8 km/h (1 Bft)
09.06.2023 02:33 22,0 °C 14,2 °C 59 % 91 % 1015,2 hPa 0,0 l/m² 3,5 km/h (1 Bft) W 272 ° 0 min 0 W/m² 12,8 °C 14,2 °C 4,8 km/h (1 Bft)
09.06.2023 02:35 21,9 °C 14,2 °C 59 % 91 % 1015,2 hPa 0,0 l/m² 2,3 km/h (1 Bft) W 272 ° 0 min 0 W/m² 12,8 °C 14,2 °C 4,8 km/h (1 Bft)
09.06.2023 02:37 22,0 °C 14,2 °C 59 % 91 % 1015,2 hPa 0,0 l/m² 0,1 km/h (0 Bft) W 272 ° 0 min 0 W/m² 12,8 °C 14,2 °C 1,6 km/h (1 Bft)
09.06.2023 02:39 22,0 °C 14,3 °C 59 % 91 % 1015,1 hPa 0,0 l/m² 0,2 km/h (0 Bft) W 272 ° 0 min 0 W/m² 12,8 °C 14,3 °C 1,6 km/h (1 Bft)
09.06.2023 02:41 22,0 °C 14,2 °C 59 % 90 % 1015,1 hPa 0,0 l/m² 1,2 km/h (1 Bft) W 272 ° 0 min 0 W/m² 12,6 °C 14,2 °C 3,2 km/h (1 Bft)
09.06.2023 02:42 22,0 °C 14,1 °C 58 % 91 % 1015,1 hPa 0,0 l/m² 1,3 km/h (1 Bft) W 272 ° 0 min 0 W/m² 12,7 °C 14,1 °C 3,2 km/h (1 Bft)
09.06.2023 02:43 22,0 °C 14,1 °C 59 % 91 % 1015,1 hPa 0,0 l/m² 3,0 km/h (1 Bft) W 272 ° 0 min 0 W/m² 12,7 °C 14,1 °C 3,2 km/h (1 Bft)
09.06.2023 02:45 22,0 °C 14,0 °C 58 % 91 % 1015,1 hPa 0,0 l/m² 2,2 km/h (1 Bft) W 272 ° 0 min 0 W/m² 12,6 °C 14,0 °C 3,2 km/h (1 Bft)
09.06.2023 02:47 22,0 °C 14,0 °C 58 % 91 % 1015,1 hPa 0,0 l/m² 0,9 km/h (0 Bft) W 272 ° 0 min 0 W/m² 12,6 °C 14,0 °C 3,2 km/h (1 Bft)
09.06.2023 02:49 22,0 °C 14,0 °C 58 % 91 % 1015,2 hPa 0,0 l/m² 1,5 km/h (1 Bft) W 272 ° 0 min 0 W/m² 12,6 °C 14,0 °C 3,2 km/h (1 Bft)
09.06.2023 02:51 22,0 °C 13,9 °C 58 % 91 % 1015,2 hPa 0,0 l/m² 0,6 km/h (0 Bft) W 272 ° 0 min 0 W/m² 12,5 °C 13,9 °C 3,2 km/h (1 Bft)
09.06.2023 02:52 22,0 °C 13,9 °C 58 % 91 % 1015,1 hPa 0,0 l/m² 1,9 km/h (1 Bft) W 272 ° 0 min 0 W/m² 12,5 °C 13,9 °C 3,2 km/h (1 Bft)
09.06.2023 02:53 22,0 °C 13,9 °C 58 % 91 % 1015,1 hPa 0,0 l/m² 0,9 km/h (0 Bft) W 272 ° 0 min 0 W/m² 12,5 °C 13,9 °C 1,6 km/h (1 Bft)
09.06.2023 02:55 22,0 °C 13,9 °C 58 % 91 % 1015,2 hPa 0,0 l/m² 0,9 km/h (0 Bft) W 272 ° 0 min 0 W/m² 12,5 °C 13,9 °C 3,2 km/h (1 Bft)
09.06.2023 02:57 22,0 °C 13,9 °C 58 % 91 % 1015,2 hPa 0,0 l/m² 0,1 km/h (0 Bft) W 272 ° 0 min 0 W/m² 12,5 °C 13,9 °C 1,6 km/h (1 Bft)
09.06.2023 02:59 22,0 °C 13,9 °C 58 % 91 % 1015,0 hPa 0,0 l/m² 0,0 km/h (0 Bft) W 272 ° 0 min 0 W/m² 12,5 °C 13,9 °C 1,6 km/h (1 Bft)
09.06.2023 03:00 22,0 °C 13,9 °C 58 % 91 % 1015,1 hPa 0,0 l/m² 0,0 km/h (0 Bft) W 270 ° 0 min 0 W/m² 12,5 °C 13,9 °C 1,6 km/h (1 Bft)
09.06.2023 03:06 22,0 °C 13,8 °C 58 % 91 % 1015,1 hPa 0,0 l/m² 0,0 km/h (0 Bft) W 272 ° 0 min 0 W/m² 12,4 °C 13,8 °C 0,0 km/h (0 Bft)
09.06.2023 03:08 22,0 °C 13,8 °C 58 % 91 % 1015,1 hPa 0,0 l/m² 0,0 km/h (0 Bft) W 272 ° 0 min 0 W/m² 12,4 °C 13,8 °C 0,0 km/h (0 Bft)
09.06.2023 03:09 22,0 °C 13,7 °C 58 % 91 % 1015,1 hPa 0,0 l/m² 0,0 km/h (0 Bft) W 272 ° 0 min 0 W/m² 12,3 °C 13,7 °C 0,0 km/h (0 Bft)
09.06.2023 03:11 22,0 °C 13,4 °C 58 % 90 % 1015,1 hPa 0,0 l/m² 0,0 km/h (0 Bft) W 272 ° 0 min 0 W/m² 11,8 °C 13,4 °C 0,0 km/h (0 Bft)
09.06.2023 03:12 22,0 °C 13,3 °C 58 % 91 % 1015,0 hPa 0,0 l/m² 0,0 km/h (0 Bft) W 272 ° 0 min 0 W/m² 11,9 °C 13,3 °C 0,0 km/h (0 Bft)
09.06.2023 03:14 22,0 °C 13,2 °C 58 % 91 % 1015,1 hPa 0,0 l/m² 0,0 km/h (0 Bft) W 272 ° 0 min 0 W/m² 11,8 °C 13,2 °C 0,0 km/h (0 Bft)
09.06.2023 03:16 22,0 °C 13,2 °C 58 % 91 % 1015,1 hPa 0,0 l/m² 0,0 km/h (0 Bft) W 272 ° 0 min 0 W/m² 11,8 °C 13,2 °C 1,6 km/h (1 Bft)
09.06.2023 03:18 22,0 °C 13,2 °C 58 % 92 % 1015,2 hPa 0,0 l/m² 0,9 km/h (0 Bft) W 272 ° 0 min 0 W/m² 11,9 °C 13,2 °C 3,2 km/h (1 Bft)
09.06.2023 03:20 21,9 °C 13,2 °C 58 % 92 % 1015,1 hPa 0,0 l/m² 0,2 km/h (0 Bft) W 272 ° 0 min 0 W/m² 11,9 °C 13,2 °C 1,6 km/h (1 Bft)
09.06.2023 03:21 21,9 °C 13,3 °C 58 % 92 % 1015,2 hPa 0,0 l/m² 0,0 km/h (0 Bft) W 272 ° 0 min 0 W/m² 12,0 °C 13,3 °C 0,0 km/h (0 Bft)
09.06.2023 03:22 21,9 °C 13,3 °C 58 % 92 % 1015,2 hPa 0,0 l/m² 0,4 km/h (0 Bft) W 272 ° 0 min 0 W/m² 12,0 °C 13,3 °C 3,2 km/h (1 Bft)
09.06.2023 03:24 21,9 °C 13,2 °C 58 % 91 % 1015,1 hPa 0,0 l/m² 0,2 km/h (0 Bft) W 272 ° 0 min 0 W/m² 11,8 °C 13,2 °C 3,2 km/h (1 Bft)
09.06.2023 03:26 21,9 °C 13,1 °C 58 % 92 % 1015,1 hPa 0,0 l/m² 0,0 km/h (0 Bft) W 272 ° 0 min 0 W/m² 11,8 °C 13,1 °C 0,0 km/h (0 Bft)
09.06.2023 03:28 21,9 °C 13,0 °C 58 % 92 % 1015,2 hPa 0,0 l/m² 0,1 km/h (0 Bft) W 272 ° 0 min 0 W/m² 11,7 °C 13,0 °C 1,6 km/h (1 Bft)
09.06.2023 03:30 21,9 °C 13,0 °C 58 % 92 % 1015,2 hPa 0,0 l/m² 0,5 km/h (0 Bft) W 272 ° 0 min 0 W/m² 11,7 °C 13,0 °C 1,6 km/h (1 Bft)
09.06.2023 03:31 21,9 °C 13,0 °C 58 % 92 % 1015,2 hPa 0,0 l/m² 0,1 km/h (0 Bft) W 272 ° 0 min 0 W/m² 11,7 °C 13,0 °C 1,6 km/h (1 Bft)
09.06.2023 03:32 21,9 °C 13,0 °C 58 % 92 % 1015,2 hPa 0,0 l/m² 0,0 km/h (0 Bft) W 272 ° 0 min 0 W/m² 11,7 °C 13,0 °C 0,0 km/h (0 Bft)
09.06.2023 03:34 21,9 °C 12,9 °C 58 % 92 % 1015,2 hPa 0,0 l/m² 0,0 km/h (0 Bft) W 272 ° 0 min 0 W/m² 11,6 °C 12,9 °C 0,0 km/h (0 Bft)
09.06.2023 03:36 21,9 °C 12,9 °C 58 % 92 % 1015,1 hPa 0,0 l/m² 0,0 km/h (0 Bft) W 272 ° 0 min 0 W/m² 11,6 °C 12,9 °C 0,0 km/h (0 Bft)
09.06.2023 03:38 21,9 °C 12,9 °C 58 % 92 % 1015,2 hPa 0,0 l/m² 0,0 km/h (0 Bft) W 272 ° 0 min 0 W/m² 11,6 °C 12,9 °C 0,0 km/h (0 Bft)
09.06.2023 03:40 21,9 °C 12,9 °C 58 % 92 % 1015,1 hPa 0,0 l/m² 0,0 km/h (0 Bft) W 272 ° 0 min 0 W/m² 11,6 °C 12,9 °C 0,0 km/h (0 Bft)
09.06.2023 03:41 21,9 °C 12,9 °C 58 % 92 % 1015,2 hPa 0,0 l/m² 0,3 km/h (0 Bft) W 272 ° 0 min 0 W/m² 11,6 °C 12,9 °C 1,6 km/h (1 Bft)
09.06.2023 03:42 21,9 °C 13,0 °C 58 % 92 % 1015,1 hPa 0,0 l/m² 0,9 km/h (0 Bft) W 272 ° 0 min 0 W/m² 11,7 °C 13,0 °C 3,2 km/h (1 Bft)
09.06.2023 03:44 21,9 °C 13,1 °C 58 % 93 % 1015,2 hPa 0,0 l/m² 1,4 km/h (1 Bft) W 272 ° 0 min 0 W/m² 12,0 °C 13,1 °C 4,8 km/h (1 Bft)
09.06.2023 03:45 21,9 °C 13,1 °C 58 % 93 % 1015,2 hPa 0,0 l/m² 1,6 km/h (1 Bft) W 272 ° 0 min 0 W/m² 12,0 °C 13,1 °C 4,8 km/h (1 Bft)
09.06.2023 03:46 22,0 °C 13,2 °C 58 % 93 % 1015,2 hPa 0,0 l/m² 1,5 km/h (1 Bft) W 272 ° 0 min 0 W/m² 12,1 °C 13,2 °C 4,8 km/h (1 Bft)
09.06.2023 03:47 21,9 °C 13,2 °C 58 % 93 % 1015,1 hPa 0,0 l/m² 1,0 km/h (0 Bft) W 272 ° 0 min 0 W/m² 12,1 °C 13,2 °C 1,6 km/h (1 Bft)
09.06.2023 03:49 21,9 °C 13,3 °C 58 % 93 % 1015,1 hPa 0,0 l/m² 1,3 km/h (1 Bft) W 272 ° 0 min 0 W/m² 12,2 °C 13,3 °C 4,8 km/h (1 Bft)
09.06.2023 03:50 21,9 °C 13,3 °C 58 % 93 % 1015,1 hPa 0,0 l/m² 1,5 km/h (1 Bft) W 272 ° 0 min 0 W/m² 12,2 °C 13,3 °C 4,8 km/h (1 Bft)
09.06.2023 03:52 21,9 °C 13,3 °C 58 % 93 % 1015,1 hPa 0,0 l/m² 1,0 km/h (0 Bft) W 272 ° 0 min 0 W/m² 12,2 °C 13,3 °C 3,2 km/h (1 Bft)
09.06.2023 03:53 21,9 °C 13,4 °C 58 % 93 % 1015,1 hPa 0,0 l/m² 0,3 km/h (0 Bft) W 272 ° 0 min 0 W/m² 12,3 °C 13,4 °C 1,6 km/h (1 Bft)
09.06.2023 03:55 21,9 °C 13,4 °C 58 % 93 % 1015,1 hPa 0,0 l/m² 0,6 km/h (0 Bft) W 272 ° 0 min 0 W/m² 12,3 °C 13,4 °C 3,2 km/h (1 Bft)
09.06.2023 03:57 21,9 °C 13,4 °C 58 % 92 % 1015,2 hPa 0,0 l/m² 0,0 km/h (0 Bft) W 272 ° 0 min 0 W/m² 12,1 °C 13,4 °C 0,0 km/h (0 Bft)
09.06.2023 03:59 21,9 °C 13,3 °C 58 % 92 % 1015,2 hPa 0,0 l/m² 0,0 km/h (0 Bft) W 272 ° 0 min 0 W/m² 12,0 °C 13,3 °C 0,0 km/h (0 Bft)
09.06.2023 04:01 21,9 °C 13,2 °C 58 % 92 % 1015,1 hPa 0,0 l/m² 0,7 km/h (0 Bft) W 272 ° 0 min 0 W/m² 11,9 °C 13,2 °C 3,2 km/h (1 Bft)
09.06.2023 04:02 21,9 °C 13,2 °C 58 % 93 % 1015,1 hPa 0,0 l/m² 1,3 km/h (1 Bft) W 272 ° 0 min 0 W/m² 12,1 °C 13,2 °C 3,2 km/h (1 Bft)
09.06.2023 04:03 21,9 °C 13,2 °C 58 % 92 % 1015,1 hPa 0,0 l/m² 0,2 km/h (0 Bft) W 272 ° 0 min 0 W/m² 11,9 °C 13,2 °C 1,6 km/h (1 Bft)
09.06.2023 04:05 21,9 °C 13,2 °C 58 % 93 % 1015,2 hPa 0,0 l/m² 0,1 km/h (0 Bft) W 272 ° 0 min 0 W/m² 12,1 °C 13,2 °C 1,6 km/h (1 Bft)
09.06.2023 04:07 21,9 °C 13,1 °C 58 % 92 % 1015,1 hPa 0,0 l/m² 0,0 km/h (0 Bft) W 272 ° 0 min 0 W/m² 11,8 °C 13,1 °C 0,0 km/h (0 Bft)
09.06.2023 04:09 21,9 °C 12,9 °C 58 % 92 % 1015,1 hPa 0,0 l/m² 0,0 km/h (0 Bft) W 272 ° 0 min 0 W/m² 11,6 °C 12,9 °C 0,0 km/h (0 Bft)
09.06.2023 04:10 21,9 °C 12,9 °C 58 % 92 % 1015,2 hPa 0,0 l/m² 0,0 km/h (0 Bft) W 272 ° 0 min 0 W/m² 11,6 °C 12,9 °C 0,0 km/h (0 Bft)
09.06.2023 04:12 21,9 °C 12,8 °C 58 % 92 % 1015,1 hPa 0,0 l/m² 0,0 km/h (0 Bft) W 272 ° 0 min 0 W/m² 11,5 °C 12,8 °C 0,0 km/h (0 Bft)
09.06.2023 04:13 21,9 °C 12,8 °C 58 % 92 % 1015,1 hPa 0,0 l/m² 0,3 km/h (0 Bft) W 272 ° 0 min 0 W/m² 11,5 °C 12,8 °C 1,6 km/h (1 Bft)
09.06.2023 04:15 21,9 °C 12,7 °C 58 % 92 % 1015,2 hPa 0,0 l/m² 0,0 km/h (0 Bft) W 272 ° 0 min 0 W/m² 11,4 °C 12,7 °C 0,0 km/h (0 Bft)
09.06.2023 04:17 21,9 °C 12,8 °C 58 % 93 % 1015,2 hPa 0,0 l/m² 1,9 km/h (1 Bft) W 272 ° 0 min 0 W/m² 11,7 °C 12,8 °C 6,4 km/h (2 Bft)
09.06.2023 04:19 21,9 °C 12,8 °C 58 % 93 % 1015,1 hPa 0,0 l/m² 0,6 km/h (0 Bft) W 272 ° 0 min 0 W/m² 11,7 °C 12,8 °C 3,2 km/h (1 Bft)
09.06.2023 04:20 21,9 °C 12,8 °C 58 % 93 % 1015,1 hPa 0,0 l/m² 0,5 km/h (0 Bft) W 272 ° 0 min 0 W/m² 11,7 °C 12,8 °C 1,6 km/h (1 Bft)
09.06.2023 04:22 21,9 °C 12,9 °C 58 % 93 % 1015,2 hPa 0,0 l/m² 1,5 km/h (1 Bft) W 272 ° 0 min 0 W/m² 11,8 °C 12,9 °C 4,8 km/h (1 Bft)
09.06.2023 04:23 21,9 °C 12,9 °C 58 % 93 % 1015,2 hPa 0,0 l/m² 0,0 km/h (0 Bft) W 272 ° 0 min 0 W/m² 11,8 °C 12,9 °C 0,0 km/h (0 Bft)
09.06.2023 04:25 21,9 °C 12,9 °C 58 % 93 % 1015,1 hPa 0,0 l/m² 0,0 km/h (0 Bft) W 272 ° 0 min 0 W/m² 11,8 °C 12,9 °C 0,0 km/h (0 Bft)
09.06.2023 04:27 21,9 °C 12,9 °C 58 % 93 % 1015,1 hPa 0,0 l/m² 1,0 km/h (0 Bft) W 272 ° 0 min 0 W/m² 11,8 °C 12,9 °C 3,2 km/h (1 Bft)
09.06.2023 04:29 21,9 °C 13,0 °C 58 % 93 % 1015,1 hPa 0,0 l/m² 0,1 km/h (0 Bft) W 272 ° 0 min 0 W/m² 11,9 °C 13,0 °C 1,6 km/h (1 Bft)
09.06.2023 04:30 21,9 °C 13,0 °C 58 % 93 % 1015,1 hPa 0,0 l/m² 0,0 km/h (0 Bft) W 272 ° 0 min 0 W/m² 11,9 °C 13,0 °C 0,0 km/h (0 Bft)
09.06.2023 04:32 21,9 °C 13,0 °C 58 % 93 % 1015,1 hPa 0,0 l/m² 1,1 km/h (1 Bft) W 272 ° 0 min 0 W/m² 11,9 °C 13,0 °C 3,2 km/h (1 Bft)
09.06.2023 04:33 21,9 °C 13,0 °C 58 % 93 % 1015,1 hPa 0,0 l/m² 2,0 km/h (1 Bft) W 272 ° 0 min 0 W/m² 11,9 °C 13,0 °C 4,8 km/h (1 Bft)
09.06.2023 04:35 21,9 °C 12,8 °C 58 % 92 % 1015,1 hPa 0,0 l/m² 0,8 km/h (0 Bft) W 272 ° 0 min 0 W/m² 11,5 °C 12,8 °C 3,2 km/h (1 Bft)
09.06.2023 04:37 21,9 °C 12,7 °C 58 % 93 % 1015,1 hPa 0,0 l/m² 0,0 km/h (0 Bft) W 272 ° 0 min 0 W/m² 11,6 °C 12,7 °C 0,0 km/h (0 Bft)
09.06.2023 04:39 21,9 °C 12,6 °C 58 % 93 % 1015,1 hPa 0,0 l/m² 1,3 km/h (1 Bft) W 272 ° 0 min 0 W/m² 11,5 °C 12,6 °C 3,2 km/h (1 Bft)
09.06.2023 04:41 21,9 °C 12,7 °C 58 % 93 % 1015,1 hPa 0,0 l/m² 1,2 km/h (1 Bft) W 272 ° 0 min 0 W/m² 11,6 °C 12,7 °C 4,8 km/h (1 Bft)
09.06.2023 04:42 21,9 °C 12,7 °C 58 % 93 % 1015,1 hPa 0,0 l/m² 0,0 km/h (0 Bft) W 272 ° 0 min 0 W/m² 11,6 °C 12,7 °C 0,0 km/h (0 Bft)
09.06.2023 04:43 21,9 °C 12,6 °C 58 % 93 % 1015,2 hPa 0,0 l/m² 0,2 km/h (0 Bft) W 272 ° 0 min 0 W/m² 11,5 °C 12,6 °C 1,6 km/h (1 Bft)
09.06.2023 04:45 21,9 °C 12,5 °C 58 % 93 % 1015,1 hPa 0,0 l/m² 0,1 km/h (0 Bft) W 272 ° 0 min 0 W/m² 11,4 °C 12,5 °C 1,6 km/h (1 Bft)
09.06.2023 04:47 21,9 °C 12,5 °C 58 % 93 % 1015,2 hPa 0,0 l/m² 0,0 km/h (0 Bft) W 272 ° 0 min 0 W/m² 11,4 °C 12,5 °C 0,0 km/h (0 Bft)
09.06.2023 04:49 21,9 °C 12,4 °C 58 % 93 % 1015,1 hPa 0,0 l/m² 0,3 km/h (0 Bft) W 272 ° 0 min 0 W/m² 11,3 °C 12,4 °C 1,6 km/h (1 Bft)
09.06.2023 04:51 21,9 °C 12,4 °C 58 % 93 % 1015,2 hPa 0,0 l/m² 1,4 km/h (1 Bft) W 272 ° 0 min 0 W/m² 11,3 °C 12,4 °C 3,2 km/h (1 Bft)
09.06.2023 04:52 21,9 °C 12,4 °C 58 % 93 % 1015,2 hPa 0,0 l/m² 0,3 km/h (0 Bft) W 272 ° 0 min 0 W/m² 11,3 °C 12,4 °C 1,6 km/h (1 Bft)
09.06.2023 04:54 21,9 °C 12,4 °C 58 % 93 % 1015,2 hPa 0,0 l/m² 0,4 km/h (0 Bft) W 272 ° 0 min 0 W/m² 11,3 °C 12,4 °C 1,6 km/h (1 Bft)
09.06.2023 04:56 21,9 °C 12,4 °C 58 % 93 % 1015,2 hPa 0,0 l/m² 0,1 km/h (0 Bft) W 272 ° 0 min 0 W/m² 11,3 °C 12,4 °C 1,6 km/h (1 Bft)
09.06.2023 04:58 21,9 °C 12,6 °C 58 % 93 % 1015,3 hPa 0,0 l/m² 0,0 km/h (0 Bft) W 272 ° 0 min 0 W/m² 11,5 °C 12,6 °C 0,0 km/h (0 Bft)
09.06.2023 05:00 21,9 °C 12,7 °C 58 % 94 % 1015,2 hPa 0,0 l/m² 0,1 km/h (0 Bft) W 272 ° 0 min 0 W/m² 11,8 °C 12,7 °C 1,6 km/h (1 Bft)
09.06.2023 05:01 21,9 °C 12,7 °C 58 % 94 % 1015,3 hPa 0,0 l/m² 0,0 km/h (0 Bft) W 272 ° 0 min 0 W/m² 11,8 °C 12,7 °C 0,0 km/h (0 Bft)
09.06.2023 05:02 21,9 °C 12,7 °C 58 % 94 % 1015,2 hPa 0,0 l/m² 0,0 km/h (0 Bft) W 272 ° 0 min 0 W/m² 11,8 °C 12,7 °C 0,0 km/h (0 Bft)
09.06.2023 05:05 21,9 °C 12,6 °C 58 % 93 % 1015,3 hPa 0,0 l/m² 0,0 km/h (0 Bft) W 272 ° 0 min 5 W/m² 11,5 °C 12,6 °C 0,0 km/h (0 Bft)
09.06.2023 05:06 21,9 °C 12,6 °C 58 % 93 % 1015,2 hPa 0,0 l/m² 0,0 km/h (0 Bft) W 272 ° 0 min 5 W/m² 11,5 °C 12,6 °C 0,0 km/h (0 Bft)
09.06.2023 05:08 21,9 °C 12,4 °C 58 % 93 % 1015,2 hPa 0,0 l/m² 0,0 km/h (0 Bft) W 272 ° 0 min 5 W/m² 11,3 °C 12,4 °C 0,0 km/h (0 Bft)
09.06.2023 05:10 21,9 °C 12,3 °C 58 % 93 % 1015,3 hPa 0,0 l/m² 0,0 km/h (0 Bft) W 272 ° 0 min 5 W/m² 11,2 °C 12,3 °C 0,0 km/h (0 Bft)
09.06.2023 05:11 21,9 °C 12,3 °C 58 % 93 % 1015,3 hPa 0,0 l/m² 0,0 km/h (0 Bft) W 272 ° 0 min 5 W/m² 11,2 °C 12,3 °C 0,0 km/h (0 Bft)
09.06.2023 05:12 21,9 °C 12,3 °C 58 % 93 % 1015,2 hPa 0,0 l/m² 0,0 km/h (0 Bft) W 272 ° 0 min 7 W/m² 11,2 °C 12,3 °C 0,0 km/h (0 Bft)
09.06.2023 05:13 21,9 °C 12,3 °C 58 % 94 % 1015,2 hPa 0,0 l/m² 0,0 km/h (0 Bft) W 272 ° 0 min 7 W/m² 11,4 °C 12,3 °C 0,0 km/h (0 Bft)
09.06.2023 05:14 21,9 °C 12,3 °C 58 % 94 % 1015,3 hPa 0,0 l/m² 0,0 km/h (0 Bft) W 272 ° 0 min 7 W/m² 11,4 °C 12,3 °C 0,0 km/h (0 Bft)
09.06.2023 05:16 21,9 °C 12,3 °C 58 % 93 % 1015,3 hPa 0,0 l/m² 0,0 km/h (0 Bft) W 272 ° 0 min 7 W/m² 11,2 °C 12,3 °C 0,0 km/h (0 Bft)
09.06.2023 05:18 21,9 °C 12,3 °C 58 % 93 % 1015,3 hPa 0,0 l/m² 0,0 km/h (0 Bft) W 272 ° 0 min 9 W/m² 11,2 °C 12,3 °C 0,0 km/h (0 Bft)
09.06.2023 05:20 21,9 °C 12,2 °C 58 % 93 % 1015,3 hPa 0,0 l/m² 0,0 km/h (0 Bft) W 272 ° 0 min 9 W/m² 11,1 °C 12,2 °C 0,0 km/h (0 Bft)
09.06.2023 05:21 21,9 °C 12,2 °C 58 % 93 % 1015,3 hPa 0,0 l/m² 0,0 km/h (0 Bft) W 272 ° 0 min 11 W/m² 11,1 °C 12,2 °C 0,0 km/h (0 Bft)
09.06.2023 05:22 21,9 °C 12,1 °C 58 % 93 % 1015,3 hPa 0,0 l/m² 0,0 km/h (0 Bft) W 272 ° 0 min 11 W/m² 11,0 °C 12,1 °C 0,0 km/h (0 Bft)
09.06.2023 05:23 21,9 °C 12,2 °C 58 % 93 % 1015,3 hPa 0,0 l/m² 0,0 km/h (0 Bft) W 272 ° 0 min 11 W/m² 11,1 °C 12,2 °C 0,0 km/h (0 Bft)
09.06.2023 05:24 22,0 °C 12,2 °C 58 % 93 % 1015,4 hPa 0,0 l/m² 0,0 km/h (0 Bft) W 272 ° 0 min 12 W/m² 11,1 °C 12,2 °C 0,0 km/h (0 Bft)
09.06.2023 05:26 21,9 °C 12,2 °C 58 % 94 % 1015,3 hPa 0,0 l/m² 0,0 km/h (0 Bft) W 272 ° 0 min 12 W/m² 11,3 °C 12,2 °C 1,6 km/h (1 Bft)
09.06.2023 05:28 21,9 °C 12,3 °C 58 % 94 % 1015,4 hPa 0,0 l/m² 0,0 km/h (0 Bft) W 272 ° 0 min 12 W/m² 11,4 °C 12,3 °C 0,0 km/h (0 Bft)
09.06.2023 05:30 21,9 °C 12,3 °C 58 % 94 % 1015,4 hPa 0,0 l/m² 0,0 km/h (0 Bft) W 272 ° 0 min 12 W/m² 11,4 °C 12,3 °C 0,0 km/h (0 Bft)
09.06.2023 05:31 21,9 °C 12,3 °C 58 % 94 % 1015,3 hPa 0,0 l/m² 0,0 km/h (0 Bft) W 272 ° 0 min 14 W/m² 11,4 °C 12,3 °C 0,0 km/h (0 Bft)
09.06.2023 05:32 22,0 °C 12,3 °C 59 % 94 % 1015,3 hPa 0,0 l/m² 0,0 km/h (0 Bft) W 272 ° 0 min 14 W/m² 11,4 °C 12,3 °C 0,0 km/h (0 Bft)
09.06.2023 05:35 21,9 °C 12,4 °C 59 % 94 % 1015,3 hPa 0,0 l/m² 0,0 km/h (0 Bft) W 272 ° 0 min 14 W/m² 11,5 °C 12,4 °C 1,6 km/h (1 Bft)
09.06.2023 05:37 22,0 °C 12,4 °C 59 % 94 % 1015,3 hPa 0,0 l/m² 0,0 km/h (0 Bft) W 272 ° 0 min 16 W/m² 11,5 °C 12,4 °C 0,0 km/h (0 Bft)
09.06.2023 05:39 22,0 °C 12,5 °C 58 % 94 % 1015,4 hPa 0,0 l/m² 0,0 km/h (0 Bft) W 272 ° 0 min 16 W/m² 11,6 °C 12,5 °C 1,6 km/h (1 Bft)
09.06.2023 05:41 22,0 °C 12,6 °C 58 % 94 % 1015,4 hPa 0,0 l/m² 2,2 km/h (1 Bft) W 272 ° 0 min 16 W/m² 11,7 °C 12,6 °C 3,2 km/h (1 Bft)
09.06.2023 05:42 21,9 °C 12,7 °C 58 % 94 % 1015,3 hPa 0,0 l/m² 1,2 km/h (1 Bft) W 272 ° 0 min 18 W/m² 11,8 °C 12,7 °C 3,2 km/h (1 Bft)
09.06.2023 05:43 21,9 °C 12,8 °C 58 % 94 % 1015,4 hPa 0,0 l/m² 1,1 km/h (1 Bft) W 272 ° 0 min 18 W/m² 11,9 °C 12,8 °C 1,6 km/h (1 Bft)
09.06.2023 05:45 21,9 °C 12,8 °C 58 % 94 % 1015,4 hPa 0,0 l/m² 2,0 km/h (1 Bft) W 272 ° 0 min 19 W/m² 11,9 °C 12,8 °C 3,2 km/h (1 Bft)
09.06.2023 05:47 21,9 °C 12,9 °C 58 % 94 % 1015,4 hPa 0,0 l/m² 0,0 km/h (0 Bft) W 272 ° 0 min 21 W/m² 12,0 °C 12,9 °C 1,6 km/h (1 Bft)
09.06.2023 05:49 21,9 °C 13,1 °C 58 % 94 % 1015,4 hPa 0,0 l/m² 0,1 km/h (0 Bft) W 272 ° 0 min 23 W/m² 12,2 °C 13,1 °C 1,6 km/h (1 Bft)
09.06.2023 05:51 21,9 °C 13,2 °C 58 % 94 % 1015,4 hPa 0,0 l/m² 0,0 km/h (0 Bft) W 272 ° 0 min 25 W/m² 12,3 °C 13,2 °C 0,0 km/h (0 Bft)
09.06.2023 05:52 21,9 °C 13,2 °C 58 % 94 % 1015,4 hPa 0,0 l/m² 0,0 km/h (0 Bft) W 272 ° 0 min 26 W/m² 12,3 °C 13,2 °C 0,0 km/h (0 Bft)
09.06.2023 05:53 21,9 °C 13,2 °C 58 % 94 % 1015,4 hPa 0,0 l/m² 0,1 km/h (0 Bft) W 272 ° 0 min 26 W/m² 12,3 °C 13,2 °C 1,6 km/h (1 Bft)
09.06.2023 05:55 21,9 °C 13,3 °C 58 % 94 % 1015,5 hPa 0,0 l/m² 0,0 km/h (0 Bft) W 272 ° 0 min 28 W/m² 12,4 °C 13,3 °C 1,6 km/h (1 Bft)
09.06.2023 05:57 21,9 °C 13,3 °C 58 % 94 % 1015,4 hPa 0,0 l/m² 0,0 km/h (0 Bft) W 272 ° 0 min 30 W/m² 12,4 °C 13,3 °C 1,6 km/h (1 Bft)
09.06.2023 05:59 21,9 °C 13,2 °C 58 % 94 % 1015,4 hPa 0,0 l/m² 0,0 km/h (0 Bft) W 272 ° 0 min 33 W/m² 12,3 °C 13,2 °C 0,0 km/h (0 Bft)
09.06.2023 06:01 21,9 °C 13,1 °C 58 % 93 % 1015,4 hPa 0,0 l/m² 0,0 km/h (0 Bft) W 272 ° 0 min 35 W/m² 12,0 °C 13,1 °C 0,0 km/h (0 Bft)
09.06.2023 06:02 21,9 °C 13,1 °C 58 % 94 % 1015,5 hPa 0,0 l/m² 2,7 km/h (1 Bft) W 272 ° 0 min 37 W/m² 12,2 °C 13,1 °C 3,2 km/h (1 Bft)
09.06.2023 06:03 21,9 °C 13,1 °C 58 % 94 % 1015,5 hPa 0,0 l/m² 2,8 km/h (1 Bft) W 272 ° 0 min 39 W/m² 12,2 °C 13,1 °C 3,2 km/h (1 Bft)
09.06.2023 06:05 21,9 °C 13,1 °C 58 % 94 % 1015,5 hPa 0,0 l/m² 2,2 km/h (1 Bft) W 272 ° 0 min 40 W/m² 12,2 °C 13,1 °C 3,2 km/h (1 Bft)
09.06.2023 06:07 21,9 °C 13,1 °C 58 % 94 % 1015,6 hPa 0,0 l/m² 2,0 km/h (1 Bft) W 272 ° 0 min 44 W/m² 12,2 °C 13,1 °C 3,2 km/h (1 Bft)
09.06.2023 06:09 21,9 °C 13,1 °C 58 % 94 % 1015,5 hPa 0,0 l/m² 2,3 km/h (1 Bft) W 272 ° 0 min 46 W/m² 12,2 °C 13,1 °C 3,2 km/h (1 Bft)
09.06.2023 06:11 21,9 °C 13,3 °C 58 % 94 % 1015,5 hPa 0,0 l/m² 1,0 km/h (0 Bft) W 272 ° 0 min 49 W/m² 12,4 °C 13,3 °C 3,2 km/h (1 Bft)
09.06.2023 06:12 21,9 °C 13,3 °C 58 % 94 % 1015,6 hPa 0,0 l/m² 1,0 km/h (0 Bft) W 272 ° 0 min 51 W/m² 12,4 °C 13,3 °C 3,2 km/h (1 Bft)
09.06.2023 06:13 21,9 °C 13,3 °C 58 % 94 % 1015,6 hPa 0,0 l/m² 0,0 km/h (0 Bft) W 272 ° 1 min 53 W/m² 12,4 °C 13,3 °C 0,0 km/h (0 Bft)
09.06.2023 06:15 21,9 °C 13,5 °C 58 % 94 % 1015,6 hPa 0,0 l/m² 0,0 km/h (0 Bft) W 272 ° 2 min 54 W/m² 12,6 °C 13,5 °C 0,0 km/h (0 Bft)
09.06.2023 06:17 21,9 °C 13,6 °C 58 % 94 % 1015,6 hPa 0,0 l/m² 0,2 km/h (0 Bft) W 272 ° 2 min 56 W/m² 12,7 °C 13,6 °C 1,6 km/h (1 Bft)
09.06.2023 06:18 21,9 °C 13,6 °C 59 % 94 % 1015,6 hPa 0,0 l/m² 0,2 km/h (0 Bft) W 272 ° 1 min 56 W/m² 12,7 °C 13,6 °C 1,6 km/h (1 Bft)
09.06.2023 06:19 21,9 °C 13,7 °C 59 % 94 % 1015,6 hPa 0,0 l/m² 0,7 km/h (0 Bft) W 272 ° 1 min 56 W/m² 12,8 °C 13,7 °C 3,2 km/h (1 Bft)
09.06.2023 06:20 21,9 °C 13,7 °C 58 % 94 % 1015,6 hPa 0,0 l/m² 0,3 km/h (0 Bft) W 272 ° 1 min 54 W/m² 12,8 °C 13,7 °C 1,6 km/h (1 Bft)
09.06.2023 06:21 21,9 °C 13,7 °C 59 % 94 % 1015,6 hPa 0,0 l/m² 0,2 km/h (0 Bft) W 272 ° 1 min 54 W/m² 12,8 °C 13,7 °C 1,6 km/h (1 Bft)
09.06.2023 06:23 21,9 °C 13,8 °C 59 % 94 % 1015,5 hPa 0,0 l/m² 0,5 km/h (0 Bft) W 272 ° 2 min 53 W/m² 12,9 °C 13,8 °C 3,2 km/h (1 Bft)
09.06.2023 06:24 21,9 °C 13,8 °C 59 % 94 % 1015,6 hPa 0,0 l/m² 0,0 km/h (0 Bft) W 272 ° 1 min 53 W/m² 12,9 °C 13,8 °C 0,0 km/h (0 Bft)
09.06.2023 06:25 21,9 °C 13,9 °C 59 % 94 % 1015,6 hPa 0,0 l/m² 0,8 km/h (0 Bft) W 272 ° 1 min 53 W/m² 12,9 °C 13,9 °C 1,6 km/h (1 Bft)
09.06.2023 06:26 21,9 °C 13,9 °C 59 % 94 % 1015,6 hPa 0,0 l/m² 0,1 km/h (0 Bft) W 272 ° 1 min 53 W/m² 12,9 °C 13,9 °C 1,6 km/h (1 Bft)
09.06.2023 06:27 21,9 °C 13,9 °C 59 % 94 % 1015,6 hPa 0,0 l/m² 0,1 km/h (0 Bft) W 272 ° 0 min 51 W/m² 12,9 °C 13,9 °C 1,6 km/h (1 Bft)
09.06.2023 06:28 21,9 °C 13,9 °C 59 % 94 % 1015,6 hPa 0,0 l/m² 0,0 km/h (0 Bft) W 272 ° 0 min 51 W/m² 12,9 °C 13,9 °C 0,0 km/h (0 Bft)
09.06.2023 06:29 21,9 °C 13,9 °C 59 % 94 % 1015,5 hPa 0,0 l/m² 0,0 km/h (0 Bft) W 272 ° 0 min 51 W/m² 12,9 °C 13,9 °C 0,0 km/h (0 Bft)
09.06.2023 06:30 21,9 °C 13,9 °C 59 % 94 % 1015,6 hPa 0,0 l/m² 0,1 km/h (0 Bft) W 272 ° 0 min 51 W/m² 12,9 °C 13,9 °C 1,6 km/h (1 Bft)
09.06.2023 06:31 21,9 °C 13,9 °C 59 % 94 % 1015,5 hPa 0,0 l/m² 0,3 km/h (0 Bft) W 272 ° 0 min 51 W/m² 12,9 °C 13,9 °C 1,6 km/h (1 Bft)
09.06.2023 06:33 21,9 °C 14,0 °C 59 % 94 % 1015,5 hPa 0,0 l/m² 0,0 km/h (0 Bft) W 272 ° 0 min 49 W/m² 13,0 °C 14,0 °C 0,0 km/h (0 Bft)
09.06.2023 06:34 21,9 °C 14,1 °C 59 % 94 % 1015,5 hPa 0,0 l/m² 0,1 km/h (0 Bft) W 272 ° 0 min 49 W/m² 13,1 °C 14,1 °C 1,6 km/h (1 Bft)
09.06.2023 06:35 21,9 °C 14,2 °C 59 % 94 % 1015,5 hPa 0,0 l/m² 0,0 km/h (0 Bft) W 272 ° 0 min 51 W/m² 13,2 °C 14,2 °C 0,0 km/h (0 Bft)
09.06.2023 06:36 21,9 °C 14,2 °C 59 % 94 % 1015,6 hPa 0,0 l/m² 0,0 km/h (0 Bft) W 272 ° 0 min 51 W/m² 13,2 °C 14,2 °C 0,0 km/h (0 Bft)
09.06.2023 06:37 21,9 °C 14,2 °C 59 % 94 % 1015,5 hPa 0,0 l/m² 0,7 km/h (0 Bft) W 272 ° 0 min 51 W/m² 13,2 °C 14,2 °C 1,6 km/h (1 Bft)
09.06.2023 06:38 21,9 °C 14,3 °C 59 % 94 % 1015,6 hPa 0,0 l/m² 0,0 km/h (0 Bft) W 272 ° 0 min 51 W/m² 13,3 °C 14,3 °C 0,0 km/h (0 Bft)
09.06.2023 06:39 21,9 °C 14,3 °C 59 % 94 % 1015,5 hPa 0,0 l/m² 0,0 km/h (0 Bft) W 272 ° 0 min 51 W/m² 13,3 °C 14,3 °C 0,0 km/h (0 Bft)
09.06.2023 06:40 21,9 °C 14,3 °C 59 % 94 % 1015,6 hPa 0,0 l/m² 0,0 km/h (0 Bft) W 272 ° 0 min 51 W/m² 13,3 °C 14,3 °C 0,0 km/h (0 Bft)
09.06.2023 06:41 21,9 °C 14,3 °C 59 % 94 % 1015,6 hPa 0,0 l/m² 0,0 km/h (0 Bft) W 272 ° 0 min 51 W/m² 13,3 °C 14,3 °C 0,0 km/h (0 Bft)
09.06.2023 06:43 21,9 °C 14,3 °C 59 % 93 % 1015,6 hPa 0,0 l/m² 0,0 km/h (0 Bft) W 272 ° 0 min 51 W/m² 13,2 °C 14,3 °C 0,0 km/h (0 Bft)
09.06.2023 06:44 21,9 °C 14,3 °C 59 % 93 % 1015,5 hPa 0,0 l/m² 0,0 km/h (0 Bft) W 272 ° 0 min 51 W/m² 13,2 °C 14,3 °C 0,0 km/h (0 Bft)
09.06.2023 06:46 21,9 °C 14,3 °C 59 % 93 % 1015,5 hPa 0,0 l/m² 0,0 km/h (0 Bft) W 272 ° 0 min 51 W/m² 13,2 °C 14,3 °C 0,0 km/h (0 Bft)
09.06.2023 06:47 21,9 °C 14,3 °C 59 % 93 % 1015,7 hPa 0,0 l/m² 0,0 km/h (0 Bft) W 272 ° 1 min 53 W/m² 13,2 °C 14,3 °C 0,0 km/h (0 Bft)
09.06.2023 06:48 21,9 °C 14,3 °C 59 % 93 % 1015,5 hPa 0,0 l/m² 0,0 km/h (0 Bft) W 272 ° 1 min 53 W/m² 13,2 °C 14,3 °C 0,0 km/h (0 Bft)
09.06.2023 06:49 21,9 °C 14,3 °C 59 % 93 % 1015,5 hPa 0,0 l/m² 0,0 km/h (0 Bft) W 272 ° 1 min 53 W/m² 13,2 °C 14,3 °C 0,0 km/h (0 Bft)
09.06.2023 06:50 21,9 °C 14,3 °C 59 % 93 % 1015,6 hPa 0,0 l/m² 0,0 km/h (0 Bft) W 272 ° 1 min 54 W/m² 13,2 °C 14,3 °C 0,0 km/h (0 Bft)
09.06.2023 06:51 21,9 °C 14,3 °C 59 % 94 % 1015,6 hPa 0,0 l/m² 0,0 km/h (0 Bft) W 272 ° 1 min 56 W/m² 13,3 °C 14,3 °C 0,0 km/h (0 Bft)
09.06.2023 06:52 21,9 °C 14,3 °C 59 % 93 % 1015,5 hPa 0,0 l/m² 0,1 km/h (0 Bft) W 272 ° 1 min 56 W/m² 13,2 °C 14,3 °C 1,6 km/h (1 Bft)
09.06.2023 06:53 21,9 °C 14,3 °C 59 % 93 % 1015,5 hPa 0,0 l/m² 0,1 km/h (0 Bft) W 272 ° 1 min 58 W/m² 13,2 °C 14,3 °C 1,6 km/h (1 Bft)
09.06.2023 06:54 21,9 °C 14,3 °C 59 % 93 % 1015,6 hPa 0,0 l/m² 2,0 km/h (1 Bft) W 272 ° 1 min 58 W/m² 13,2 °C 14,3 °C 3,2 km/h (1 Bft)
09.06.2023 06:55 21,9 °C 14,4 °C 59 % 94 % 1015,6 hPa 0,0 l/m² 0,9 km/h (0 Bft) W 272 ° 1 min 60 W/m² 13,4 °C 14,4 °C 3,2 km/h (1 Bft)
09.06.2023 06:56 21,9 °C 14,4 °C 59 % 94 % 1015,6 hPa 0,0 l/m² 0,7 km/h (0 Bft) W 272 ° 1 min 60 W/m² 13,4 °C 14,4 °C 3,2 km/h (1 Bft)
09.06.2023 06:57 21,9 °C 14,4 °C 59 % 94 % 1015,5 hPa 0,0 l/m² 1,0 km/h (0 Bft) W 272 ° 1 min 62 W/m² 13,4 °C 14,4 °C 3,2 km/h (1 Bft)
09.06.2023 06:58 21,9 °C 14,4 °C 59 % 94 % 1015,6 hPa 0,0 l/m² 1,1 km/h (1 Bft) W 272 ° 1 min 62 W/m² 13,4 °C 14,4 °C 3,2 km/h (1 Bft)
09.06.2023 06:59 21,9 °C 14,5 °C 59 % 94 % 1015,6 hPa 0,0 l/m² 0,3 km/h (0 Bft) W 272 ° 1 min 62 W/m² 13,5 °C 14,5 °C 1,6 km/h (1 Bft)
09.06.2023 07:00 21,9 °C 14,5 °C 59 % 94 % 1015,6 hPa 0,0 l/m² 0,1 km/h (0 Bft) W 272 ° 1 min 62 W/m² 13,5 °C 14,5 °C 1,6 km/h (1 Bft)
09.06.2023 07:01 21,9 °C 14,6 °C 59 % 94 % 1015,6 hPa 0,0 l/m² 0,6 km/h (0 Bft) W 272 ° 1 min 60 W/m² 13,6 °C 14,6 °C 3,2 km/h (1 Bft)
09.06.2023 07:02 21,9 °C 14,6 °C 59 % 93 % 1015,6 hPa 0,0 l/m² 0,1 km/h (0 Bft) W 272 ° 1 min 60 W/m² 13,5 °C 14,6 °C 1,6 km/h (1 Bft)
09.06.2023 07:03 21,9 °C 14,6 °C 58 % 93 % 1015,6 hPa 0,0 l/m² 0,8 km/h (0 Bft) W 272 ° 1 min 58 W/m² 13,5 °C 14,6 °C 3,2 km/h (1 Bft)
09.06.2023 07:04 21,9 °C 14,6 °C 58 % 93 % 1015,6 hPa 0,0 l/m² 0,0 km/h (0 Bft) W 273 ° 1 min 56 W/m² 13,5 °C 14,6 °C 0,0 km/h (0 Bft)
09.06.2023 07:05 21,9 °C 14,6 °C 58 % 93 % 1015,6 hPa 0,0 l/m² 0,5 km/h (0 Bft) W 273 ° 1 min 56 W/m² 13,5 °C 14,6 °C 1,6 km/h (1 Bft)
09.06.2023 07:06 21,9 °C 14,6 °C 58 % 93 % 1015,7 hPa 0,0 l/m² 1,9 km/h (1 Bft) W-NW 296 ° 1 min 56 W/m² 13,5 °C 14,6 °C 4,8 km/h (1 Bft)
09.06.2023 07:07 21,9 °C 14,7 °C 58 % 93 % 1015,6 hPa 0,0 l/m² 0,1 km/h (0 Bft) W-NW 296 ° 1 min 54 W/m² 13,6 °C 14,7 °C 1,6 km/h (1 Bft)
09.06.2023 07:08 21,9 °C 14,8 °C 58 % 93 % 1015,6 hPa 0,0 l/m² 0,3 km/h (0 Bft) W-NW 298 ° 1 min 54 W/m² 13,7 °C 14,8 °C 1,6 km/h (1 Bft)
09.06.2023 07:09 21,9 °C 14,8 °C 58 % 93 % 1015,6 hPa 0,0 l/m² 0,0 km/h (0 Bft) W-NW 298 ° 1 min 53 W/m² 13,7 °C 14,8 °C 0,0 km/h (0 Bft)
09.06.2023 07:10 22,0 °C 14,8 °C 58 % 93 % 1015,6 hPa 0,0 l/m² 0,0 km/h (0 Bft) W-NW 298 ° 1 min 53 W/m² 13,7 °C 14,8 °C 0,0 km/h (0 Bft)
09.06.2023 07:11 21,9 °C 14,8 °C 58 % 93 % 1015,7 hPa 0,0 l/m² 0,0 km/h (0 Bft) W-NW 298 ° 0 min 51 W/m² 13,7 °C 14,8 °C 0,0 km/h (0 Bft)
09.06.2023 07:12 21,9 °C 14,8 °C 58 % 93 % 1015,6 hPa 0,0 l/m² 0,0 km/h (0 Bft) W-NW 298 ° 0 min 49 W/m² 13,7 °C 14,8 °C 0,0 km/h (0 Bft)
09.06.2023 07:13 21,9 °C 14,8 °C 58 % 93 % 1015,6 hPa 0,0 l/m² 0,0 km/h (0 Bft) W-NW 298 ° 0 min 49 W/m² 13,7 °C 14,8 °C 0,0 km/h (0 Bft)
09.06.2023 07:14 21,9 °C 14,8 °C 58 % 93 % 1015,7 hPa 0,0 l/m² 0,0 km/h (0 Bft) W-NW 298 ° 0 min 49 W/m² 13,7 °C 14,8 °C 0,0 km/h (0 Bft)
09.06.2023 07:15 21,9 °C 14,8 °C 58 % 93 % 1015,6 hPa 0,0 l/m² 0,5 km/h (0 Bft) W-NW 298 ° 0 min 47 W/m² 13,7 °C 14,8 °C 1,6 km/h (1 Bft)
09.06.2023 07:16 21,9 °C 14,8 °C 58 % 93 % 1015,7 hPa 0,0 l/m² 0,0 km/h (0 Bft) W-NW 298 ° 0 min 46 W/m² 13,7 °C 14,8 °C 0,0 km/h (0 Bft)
09.06.2023 07:17 21,9 °C 14,8 °C 58 % 93 % 1015,7 hPa 0,0 l/m² 0,0 km/h (0 Bft) W-NW 298 ° 0 min 46 W/m² 13,7 °C 14,8 °C 0,0 km/h (0 Bft)
09.06.2023 07:18 21,9 °C 14,8 °C 58 % 93 % 1015,6 hPa 0,0 l/m² 0,5 km/h (0 Bft) W-NW 298 ° 0 min 46 W/m² 13,7 °C 14,8 °C 1,6 km/h (1 Bft)
09.06.2023 07:19 21,9 °C 14,8 °C 58 % 93 % 1015,6 hPa 0,0 l/m² 0,0 km/h (0 Bft) W-NW 298 ° 0 min 46 W/m² 13,7 °C 14,8 °C 0,0 km/h (0 Bft)
09.06.2023 07:20 21,9 °C 14,8 °C 58 % 93 % 1015,6 hPa 0,0 l/m² 0,0 km/h (0 Bft) W-NW 298 ° 0 min 46 W/m² 13,7 °C 14,8 °C 0,0 km/h (0 Bft)
09.06.2023 07:21 21,9 °C 14,9 °C 58 % 92 % 1015,6 hPa 0,0 l/m² 0,4 km/h (0 Bft) W-NW 298 ° 0 min 44 W/m² 13,6 °C 14,9 °C 1,6 km/h (1 Bft)
09.06.2023 07:22 21,9 °C 14,9 °C 58 % 92 % 1015,6 hPa 0,0 l/m² 0,1 km/h (0 Bft) W-NW 298 ° 0 min 46 W/m² 13,6 °C 14,9 °C 1,6 km/h (1 Bft)
09.06.2023 07:23 21,9 °C 14,9 °C 58 % 92 % 1015,6 hPa 0,0 l/m² 1,9 km/h (1 Bft) W-NW 298 ° 0 min 46 W/m² 13,6 °C 14,9 °C 4,8 km/h (1 Bft)
09.06.2023 07:24 21,9 °C 14,9 °C 58 % 92 % 1015,5 hPa 0,0 l/m² 0,1 km/h (0 Bft) W-NW 298 ° 0 min 46 W/m² 13,6 °C 14,9 °C 1,6 km/h (1 Bft)
09.06.2023 07:25 21,9 °C 14,9 °C 58 % 92 % 1015,6 hPa 0,0 l/m² 0,0 km/h (0 Bft) W-NW 288 ° 0 min 46 W/m² 13,6 °C 14,9 °C 0,0 km/h (0 Bft)
09.06.2023 07:26 21,9 °C 14,9 °C 58 % 92 % 1015,6 hPa 0,0 l/m² 0,0 km/h (0 Bft) W-NW 288 ° 0 min 46 W/m² 13,6 °C 14,9 °C 0,0 km/h (0 Bft)
09.06.2023 07:27 21,9 °C 14,9 °C 58 % 92 % 1015,6 hPa 0,0 l/m² 0,0 km/h (0 Bft) W-NW 288 ° 0 min 46 W/m² 13,6 °C 14,9 °C 0,0 km/h (0 Bft)
09.06.2023 07:28 21,9 °C 14,9 °C 58 % 92 % 1015,6 hPa 0,0 l/m² 0,0 km/h (0 Bft) W-NW 288 ° 0 min 47 W/m² 13,6 °C 14,9 °C 0,0 km/h (0 Bft)
09.06.2023 07:29 21,9 °C 14,9 °C 58 % 92 % 1015,6 hPa 0,0 l/m² 0,2 km/h (0 Bft) W 273 ° 0 min 47 W/m² 13,6 °C 14,9 °C 1,6 km/h (1 Bft)
09.06.2023 07:30 21,9 °C 14,9 °C 58 % 92 % 1015,6 hPa 0,0 l/m² 0,9 km/h (0 Bft) W 273 ° 0 min 47 W/m² 13,6 °C 14,9 °C 3,2 km/h (1 Bft)
09.06.2023 07:31 21,9 °C 14,9 °C 58 % 92 % 1015,6 hPa 0,0 l/m² 1,1 km/h (1 Bft) W 272 ° 0 min 47 W/m² 13,6 °C 14,9 °C 4,8 km/h (1 Bft)
09.06.2023 07:32 21,9 °C 14,9 °C 58 % 92 % 1015,6 hPa 0,0 l/m² 0,0 km/h (0 Bft) W 272 ° 0 min 47 W/m² 13,6 °C 14,9 °C 0,0 km/h (0 Bft)
09.06.2023 07:33 21,9 °C 14,9 °C 58 % 92 % 1015,6 hPa 0,0 l/m² 0,0 km/h (0 Bft) W 272 ° 0 min 49 W/m² 13,6 °C 14,9 °C 0,0 km/h (0 Bft)
09.06.2023 07:34 21,9 °C 14,9 °C 58 % 92 % 1015,5 hPa 0,0 l/m² 1,0 km/h (0 Bft) W 269 ° 0 min 49 W/m² 13,6 °C 14,9 °C 4,8 km/h (1 Bft)
09.06.2023 07:35 21,9 °C 15,0 °C 58 % 92 % 1015,6 hPa 0,0 l/m² 0,6 km/h (0 Bft) W 269 ° 0 min 49 W/m² 13,7 °C 15,0 °C 3,2 km/h (1 Bft)
09.06.2023 07:36 21,8 °C 15,0 °C 58 % 92 % 1015,6 hPa 0,0 l/m² 0,0 km/h (0 Bft) W 269 ° 0 min 51 W/m² 13,7 °C 15,0 °C 0,0 km/h (0 Bft)
09.06.2023 07:37 21,8 °C 15,0 °C 58 % 92 % 1015,6 hPa 0,0 l/m² 0,0 km/h (0 Bft) W 269 ° 0 min 51 W/m² 13,7 °C 15,0 °C 0,0 km/h (0 Bft)
09.06.2023 07:38 21,8 °C 15,1 °C 58 % 92 % 1015,6 hPa 0,0 l/m² 0,6 km/h (0 Bft) W 269 ° 1 min 53 W/m² 13,8 °C 15,1 °C 1,6 km/h (1 Bft)
09.06.2023 07:39 21,9 °C 15,1 °C 58 % 92 % 1015,6 hPa 0,0 l/m² 0,1 km/h (0 Bft) W 269 ° 1 min 54 W/m² 13,8 °C 15,1 °C 1,6 km/h (1 Bft)
09.06.2023 07:40 21,8 °C 15,1 °C 58 % 92 % 1015,6 hPa 0,0 l/m² 0,0 km/h (0 Bft) W 269 ° 1 min 54 W/m² 13,8 °C 15,1 °C 0,0 km/h (0 Bft)
09.06.2023 07:41 21,8 °C 15,1 °C 58 % 92 % 1015,7 hPa 0,0 l/m² 0,0 km/h (0 Bft) W 269 ° 1 min 56 W/m² 13,8 °C 15,1 °C 0,0 km/h (0 Bft)
09.06.2023 07:42 21,9 °C 15,1 °C 58 % 92 % 1015,7 hPa 0,0 l/m² 0,0 km/h (0 Bft) W 269 ° 1 min 58 W/m² 13,8 °C 15,1 °C 0,0 km/h (0 Bft)
09.06.2023 07:43 21,8 °C 15,1 °C 58 % 91 % 1015,7 hPa 0,0 l/m² 0,0 km/h (0 Bft) W 269 ° 1 min 60 W/m² 13,6 °C 15,1 °C 0,0 km/h (0 Bft)
09.06.2023 07:44 21,8 °C 15,1 °C 58 % 91 % 1015,6 hPa 0,0 l/m² 0,0 km/h (0 Bft) W 269 ° 1 min 62 W/m² 13,6 °C 15,1 °C 0,0 km/h (0 Bft)
09.06.2023 07:45 21,8 °C 15,1 °C 58 % 92 % 1015,7 hPa 0,0 l/m² 0,0 km/h (0 Bft) W 269 ° 1 min 63 W/m² 13,8 °C 15,1 °C 0,0 km/h (0 Bft)
09.06.2023 07:46 21,8 °C 15,1 °C 58 % 92 % 1015,7 hPa 0,0 l/m² 0,0 km/h (0 Bft) W 269 ° 1 min 65 W/m² 13,8 °C 15,1 °C 0,0 km/h (0 Bft)
09.06.2023 07:47 21,9 °C 15,1 °C 58 % 92 % 1015,7 hPa 0,0 l/m² 0,0 km/h (0 Bft) W 269 ° 1 min 65 W/m² 13,8 °C 15,1 °C 0,0 km/h (0 Bft)
09.06.2023 07:48 21,8 °C 15,1 °C 58 % 92 % 1015,7 hPa 0,0 l/m² 0,0 km/h (0 Bft) W 269 ° 1 min 67 W/m² 13,8 °C 15,1 °C 0,0 km/h (0 Bft)
09.06.2023 07:49 21,8 °C 15,1 °C 58 % 92 % 1015,7 hPa 0,0 l/m² 0,0 km/h (0 Bft) W 269 ° 1 min 69 W/m² 13,8 °C 15,1 °C 0,0 km/h (0 Bft)
09.06.2023 07:50 21,8 °C 15,1 °C 58 % 92 % 1015,7 hPa 0,0 l/m² 0,0 km/h (0 Bft) W 269 ° 1 min 72 W/m² 13,8 °C 15,1 °C 0,0 km/h (0 Bft)
09.06.2023 07:51 21,8 °C 15,1 °C 58 % 92 % 1015,7 hPa 0,0 l/m² 1,8 km/h (1 Bft) W 269 ° 1 min 74 W/m² 13,8 °C 15,1 °C 4,8 km/h (1 Bft)
09.06.2023 07:52 21,8 °C 15,1 °C 58 % 92 % 1015,6 hPa 0,0 l/m² 2,6 km/h (1 Bft) W 269 ° 1 min 76 W/m² 13,8 °C 15,1 °C 4,8 km/h (1 Bft)
09.06.2023 07:53 21,8 °C 15,1 °C 58 % 92 % 1015,7 hPa 0,0 l/m² 0,0 km/h (0 Bft) W 269 ° 1 min 77 W/m² 13,8 °C 15,1 °C 0,0 km/h (0 Bft)
09.06.2023 07:54 21,8 °C 15,1 °C 58 % 92 % 1015,7 hPa 0,0 l/m² 0,0 km/h (0 Bft) W 269 ° 1 min 79 W/m² 13,8 °C 15,1 °C 0,0 km/h (0 Bft)
09.06.2023 07:55 21,8 °C 15,2 °C 58 % 92 % 1015,7 hPa 0,0 l/m² 0,0 km/h (0 Bft) W 269 ° 1 min 81 W/m² 13,9 °C 15,2 °C 0,0 km/h (0 Bft)
09.06.2023 07:56 21,8 °C 15,2 °C 58 % 92 % 1015,6 hPa 0,0 l/m² 0,0 km/h (0 Bft) W 269 ° 1 min 84 W/m² 13,9 °C 15,2 °C 0,0 km/h (0 Bft)
09.06.2023 07:57 21,8 °C 15,2 °C 58 % 92 % 1015,6 hPa 0,0 l/m² 0,0 km/h (0 Bft) W 269 ° 1 min 86 W/m² 13,9 °C 15,2 °C 0,0 km/h (0 Bft)
09.06.2023 07:58 21,8 °C 15,2 °C 58 % 92 % 1015,7 hPa 0,0 l/m² 0,0 km/h (0 Bft) W 269 ° 1 min 90 W/m² 13,9 °C 15,2 °C 0,0 km/h (0 Bft)
09.06.2023 07:59 21,8 °C 15,2 °C 58 % 92 % 1015,6 hPa 0,0 l/m² 0,2 km/h (0 Bft) W 269 ° 1 min 90 W/m² 13,9 °C 15,2 °C 1,6 km/h (1 Bft)
09.06.2023 08:00 21,8 °C 15,2 °C 58 % 92 % 1015,7 hPa 0,0 l/m² 0,0 km/h (0 Bft) W 269 ° 1 min 93 W/m² 13,9 °C 15,2 °C 0,0 km/h (0 Bft)
09.06.2023 08:01 21,8 °C 15,2 °C 58 % 92 % 1015,7 hPa 0,0 l/m² 0,0 km/h (0 Bft) W 269 ° 1 min 97 W/m² 13,9 °C 15,2 °C 0,0 km/h (0 Bft)
09.06.2023 08:02 21,8 °C 15,2 °C 58 % 92 % 1015,7 hPa 0,0 l/m² 0,0 km/h (0 Bft) W 269 ° 1 min 102 W/m² 13,9 °C 15,2 °C 0,0 km/h (0 Bft)
09.06.2023 08:03 21,8 °C 15,2 °C 58 % 92 % 1015,7 hPa 0,0 l/m² 0,0 km/h (0 Bft) W 269 ° 1 min 105 W/m² 13,9 °C 15,2 °C 0,0 km/h (0 Bft)
09.06.2023 08:04 21,8 °C 15,3 °C 58 % 92 % 1015,7 hPa 0,0 l/m² 0,0 km/h (0 Bft) W 269 ° 1 min 107 W/m² 14,0 °C 15,3 °C 0,0 km/h (0 Bft)
09.06.2023 08:05 21,8 °C 15,3 °C 58 % 92 % 1015,8 hPa 0,0 l/m² 0,1 km/h (0 Bft) W 269 ° 1 min 111 W/m² 14,0 °C 15,3 °C 1,6 km/h (1 Bft)
09.06.2023 08:06 21,8 °C 15,3 °C 58 % 92 % 1015,7 hPa 0,0 l/m² 0,0 km/h (0 Bft) W 269 ° 1 min 114 W/m² 14,0 °C 15,3 °C 0,0 km/h (0 Bft)
09.06.2023 08:07 21,8 °C 15,3 °C 58 % 92 % 1015,7 hPa 0,0 l/m² 0,0 km/h (0 Bft) W 269 ° 1 min 118 W/m² 14,0 °C 15,3 °C 0,0 km/h (0 Bft)
09.06.2023 08:08 21,8 °C 15,4 °C 58 % 92 % 1015,6 hPa 0,0 l/m² 0,0 km/h (0 Bft) W 269 ° 1 min 125 W/m² 14,1 °C 15,4 °C 0,0 km/h (0 Bft)
09.06.2023 08:09 21,8 °C 15,4 °C 58 % 92 % 1015,7 hPa 0,0 l/m² 0,0 km/h (0 Bft) W 269 ° 1 min 128 W/m² 14,1 °C 15,4 °C 0,0 km/h (0 Bft)
09.06.2023 08:10 21,8 °C 15,5 °C 58 % 92 % 1015,7 hPa 0,0 l/m² 0,9 km/h (0 Bft) W 269 ° 1 min 134 W/m² 14,2 °C 15,5 °C 3,2 km/h (1 Bft)
09.06.2023 08:11 21,8 °C 15,6 °C 58 % 92 % 1015,8 hPa 0,0 l/m² 0,0 km/h (0 Bft) W 269 ° 1 min 137 W/m² 14,3 °C 15,6 °C 0,0 km/h (0 Bft)
09.06.2023 08:12 21,8 °C 15,6 °C 58 % 92 % 1015,7 hPa 0,0 l/m² 0,1 km/h (0 Bft) W 269 ° 1 min 142 W/m² 14,3 °C 15,6 °C 1,6 km/h (1 Bft)
09.06.2023 08:13 21,8 °C 15,6 °C 58 % 92 % 1015,8 hPa 0,0 l/m² 0,7 km/h (0 Bft) W 269 ° 1 min 153 W/m² 14,3 °C 15,6 °C 3,2 km/h (1 Bft)
09.06.2023 08:14 21,8 °C 15,7 °C 58 % 92 % 1015,6 hPa 0,0 l/m² 0,3 km/h (0 Bft) W 269 ° 1 min 158 W/m² 14,4 °C 15,7 °C 1,6 km/h (1 Bft)
09.06.2023 08:15 21,8 °C 15,7 °C 58 % 92 % 1015,6 hPa 0,0 l/m² 0,8 km/h (0 Bft) W 269 ° 1 min 163 W/m² 14,4 °C 15,7 °C 3,2 km/h (1 Bft)
09.06.2023 08:16 21,8 °C 15,8 °C 58 % 92 % 1015,6 hPa 0,0 l/m² 0,1 km/h (0 Bft) W 269 ° 1 min 169 W/m² 14,5 °C 15,8 °C 1,6 km/h (1 Bft)
09.06.2023 08:17 21,8 °C 15,8 °C 58 % 91 % 1015,7 hPa 0,0 l/m² 0,1 km/h (0 Bft) W 269 ° 1 min 174 W/m² 14,3 °C 15,8 °C 1,6 km/h (1 Bft)
09.06.2023 08:18 21,8 °C 15,9 °C 58 % 91 % 1015,7 hPa 0,0 l/m² 0,9 km/h (0 Bft) W 269 ° 1 min 181 W/m² 14,4 °C 15,9 °C 1,6 km/h (1 Bft)
09.06.2023 08:19 21,8 °C 15,9 °C 58 % 91 % 1015,7 hPa 0,0 l/m² 1,1 km/h (1 Bft) W 269 ° 1 min 195 W/m² 14,4 °C 15,9 °C 3,2 km/h (1 Bft)
09.06.2023 08:20 21,8 °C 16,0 °C 58 % 91 % 1015,7 hPa 0,0 l/m² 0,2 km/h (0 Bft) W 269 ° 1 min 202 W/m² 14,5 °C 16,0 °C 1,6 km/h (1 Bft)
09.06.2023 08:21 21,8 °C 16,1 °C 58 % 91 % 1015,7 hPa 0,0 l/m² 1,4 km/h (1 Bft) W 269 ° 1 min 209 W/m² 14,6 °C 16,1 °C 4,8 km/h (1 Bft)
09.06.2023 08:22 21,8 °C 16,1 °C 58 % 91 % 1015,7 hPa 0,0 l/m² 0,7 km/h (0 Bft) W 269 ° 1 min 216 W/m² 14,6 °C 16,1 °C 3,2 km/h (1 Bft)
09.06.2023 08:23 21,8 °C 16,2 °C 58 % 91 % 1015,7 hPa 0,0 l/m² 3,4 km/h (1 Bft) W-SW 257 ° 1 min 225 W/m² 14,7 °C 16,2 °C 4,8 km/h (1 Bft)
09.06.2023 08:24 21,8 °C 16,3 °C 58 % 92 % 1015,7 hPa 0,0 l/m² 1,8 km/h (1 Bft) W-SW 257 ° 1 min 234 W/m² 15,0 °C 16,3 °C 3,2 km/h (1 Bft)
09.06.2023 08:25 21,8 °C 16,3 °C 58 % 92 % 1015,7 hPa 0,0 l/m² 2,1 km/h (1 Bft) W-SW 257 ° 1 min 255 W/m² 15,0 °C 16,3 °C 3,2 km/h (1 Bft)
09.06.2023 08:26 21,8 °C 16,4 °C 58 % 91 % 1015,8 hPa 0,0 l/m² 0,7 km/h (0 Bft) W-SW 257 ° 1 min 269 W/m² 14,9 °C 16,4 °C 3,2 km/h (1 Bft)
09.06.2023 08:27 21,8 °C 16,6 °C 58 % 92 % 1015,7 hPa 0,0 l/m² 0,0 km/h (0 Bft) W-SW 257 ° 1 min 292 W/m² 15,3 °C 16,6 °C 0,0 km/h (0 Bft)
09.06.2023 08:28 21,8 °C 16,6 °C 58 % 91 % 1015,7 hPa 0,0 l/m² 1,3 km/h (1 Bft) W-SW 257 ° 1 min 292 W/m² 15,1 °C 16,6 °C 3,2 km/h (1 Bft)
09.06.2023 08:29 21,8 °C 16,8 °C 58 % 91 % 1015,8 hPa 0,0 l/m² 0,4 km/h (0 Bft) W-SW 257 ° 1 min 457 W/m² 15,3 °C 16,8 °C 1,6 km/h (1 Bft)
09.06.2023 08:30 21,8 °C 16,9 °C 58 % 91 % 1015,8 hPa 0,0 l/m² 1,5 km/h (1 Bft) W-SW 257 ° 1 min 424 W/m² 15,4 °C 16,9 °C 3,2 km/h (1 Bft)
09.06.2023 08:31 21,8 °C 17,1 °C 58 % 90 % 1015,7 hPa 0,0 l/m² 0,1 km/h (0 Bft) W-SW 257 ° 1 min 359 W/m² 15,4 °C 17,1 °C 1,6 km/h (1 Bft)
09.06.2023 08:32 21,8 °C 17,1 °C 58 % 90 % 1015,8 hPa 0,0 l/m² 1,5 km/h (1 Bft) W-SW 257 ° 1 min 348 W/m² 15,4 °C 17,1 °C 4,8 km/h (1 Bft)
09.06.2023 08:33 21,8 °C 17,2 °C 58 % 90 % 1015,8 hPa 0,0 l/m² 1,1 km/h (1 Bft) W-SW 257 ° 1 min 345 W/m² 15,5 °C 17,2 °C 3,2 km/h (1 Bft)
09.06.2023 08:34 21,8 °C 17,3 °C 58 % 90 % 1015,8 hPa 0,0 l/m² 3,2 km/h (1 Bft) W-SW 257 ° 1 min 352 W/m² 15,6 °C 17,3 °C 4,8 km/h (1 Bft)
09.06.2023 08:35 21,8 °C 17,4 °C 58 % 89 % 1015,7 hPa 0,0 l/m² 2,0 km/h (1 Bft) W-SW 258 ° 1 min 452 W/m² 15,6 °C 17,4 °C 4,8 km/h (1 Bft)
09.06.2023 08:36 21,8 °C 17,5 °C 58 % 90 % 1015,8 hPa 0,0 l/m² 0,0 km/h (0 Bft) W-SW 258 ° 1 min 403 W/m² 15,8 °C 17,5 °C 0,0 km/h (0 Bft)
09.06.2023 08:37 21,8 °C 17,6 °C 58 % 89 % 1015,8 hPa 0,0 l/m² 0,0 km/h (0 Bft) W-SW 258 ° 1 min 318 W/m² 15,8 °C 17,6 °C 0,0 km/h (0 Bft)
09.06.2023 08:38 21,8 °C 17,7 °C 58 % 89 % 1015,8 hPa 0,0 l/m² 1,1 km/h (1 Bft) W-SW 258 ° 1 min 343 W/m² 15,9 °C 17,7 °C 3,2 km/h (1 Bft)
09.06.2023 08:39 21,8 °C 17,8 °C 58 % 88 % 1015,7 hPa 0,0 l/m² 0,7 km/h (0 Bft) W-SW 258 ° 1 min 360 W/m² 15,8 °C 17,8 °C 3,2 km/h (1 Bft)
09.06.2023 08:40 21,8 °C 17,8 °C 58 % 87 % 1015,7 hPa 0,0 l/m² 1,9 km/h (1 Bft) W-SW 258 ° 1 min 316 W/m² 15,6 °C 17,8 °C 4,8 km/h (1 Bft)
09.06.2023 08:41 21,8 °C 17,9 °C 58 % 87 % 1015,7 hPa 0,0 l/m² 1,3 km/h (1 Bft) W-SW 258 ° 1 min 338 W/m² 15,7 °C 17,9 °C 4,8 km/h (1 Bft)
09.06.2023 08:42 21,8 °C 17,9 °C 58 % 87 % 1015,7 hPa 0,0 l/m² 1,2 km/h (1 Bft) W-SW 258 ° 1 min 413 W/m² 15,7 °C 17,9 °C 4,8 km/h (1 Bft)
09.06.2023 08:43 21,8 °C 18,0 °C 58 % 87 % 1015,7 hPa 0,0 l/m² 1,4 km/h (1 Bft) W-SW 258 ° 1 min 357 W/m² 15,8 °C 18,0 °C 4,8 km/h (1 Bft)
09.06.2023 08:44 21,8 °C 18,1 °C 58 % 86 % 1015,8 hPa 0,0 l/m² 2,4 km/h (1 Bft) W-SW 258 ° 1 min 427 W/m² 15,7 °C 18,1 °C 4,8 km/h (1 Bft)
09.06.2023 08:45 21,8 °C 18,1 °C 58 % 86 % 1015,7 hPa 0,0 l/m² 1,1 km/h (1 Bft) W-SW 258 ° 1 min 406 W/m² 15,7 °C 18,1 °C 4,8 km/h (1 Bft)
09.06.2023 08:47 21,8 °C 18,6 °C 58 % 87 % 1015,7 hPa 0,0 l/m² 1,6 km/h (1 Bft) W-SW 258 ° 2 min 431 W/m² 16,4 °C 18,6 °C 4,8 km/h (1 Bft)
09.06.2023 08:48 21,8 °C 18,7 °C 58 % 86 % 1015,7 hPa 0,0 l/m² 1,0 km/h (0 Bft) W 259 ° 1 min 432 W/m² 16,3 °C 18,7 °C 4,8 km/h (1 Bft)
09.06.2023 08:49 21,8 °C 18,7 °C 58 % 85 % 1015,7 hPa 0,0 l/m² 2,1 km/h (1 Bft) N 5 ° 1 min 438 W/m² 16,1 °C 18,7 °C 6,4 km/h (2 Bft)
09.06.2023 08:50 21,8 °C 18,8 °C 58 % 83 % 1015,7 hPa 0,0 l/m² 3,6 km/h (1 Bft) N-NW 336 ° 1 min 441 W/m² 15,8 °C 18,8 °C 8,0 km/h (2 Bft)
09.06.2023 08:51 21,8 °C 18,9 °C 58 % 82 % 1015,8 hPa 0,0 l/m² 5,6 km/h (2 Bft) W-NW 300 ° 1 min 443 W/m² 15,8 °C 18,9 °C 8,0 km/h (2 Bft)
09.06.2023 08:52 21,9 °C 19,1 °C 58 % 82 % 1015,7 hPa 0,0 l/m² 2,8 km/h (1 Bft) W-NW 290 ° 1 min 445 W/m² 16,0 °C 19,1 °C 4,8 km/h (1 Bft)
09.06.2023 08:53 21,8 °C 19,3 °C 58 % 81 % 1015,7 hPa 0,0 l/m² 3,4 km/h (1 Bft) NW 310 ° 1 min 446 W/m² 16,0 °C 19,3 °C 6,4 km/h (2 Bft)
09.06.2023 08:54 21,8 °C 19,5 °C 58 % 80 % 1015,7 hPa 0,0 l/m² 1,4 km/h (1 Bft) N-NW 329 ° 1 min 452 W/m² 16,0 °C 19,5 °C 3,2 km/h (1 Bft)
09.06.2023 08:55 21,8 °C 19,7 °C 58 % 80 % 1015,7 hPa 0,0 l/m² 2,8 km/h (1 Bft) W-NW 294 ° 1 min 461 W/m² 16,1 °C 19,7 °C 4,8 km/h (1 Bft)
09.06.2023 08:56 21,9 °C 19,8 °C 58 % 80 % 1015,7 hPa 0,0 l/m² 6,2 km/h (2 Bft) N-NW 336 ° 1 min 466 W/m² 16,2 °C 19,8 °C 11,3 km/h (2 Bft)
09.06.2023 08:57 21,8 °C 19,9 °C 58 % 78 % 1015,8 hPa 0,0 l/m² 6,1 km/h (2 Bft) N-NW 344 ° 1 min 469 W/m² 15,9 °C 19,9 °C 9,7 km/h (2 Bft)
09.06.2023 08:58 21,9 °C 19,9 °C 58 % 76 % 1015,8 hPa 0,0 l/m² 4,4 km/h (1 Bft) W-NW 299 ° 1 min 475 W/m² 15,5 °C 19,9 °C 8,0 km/h (2 Bft)
09.06.2023 08:59 21,9 °C 20,1 °C 58 % 77 % 1015,8 hPa 0,0 l/m² 4,1 km/h (1 Bft) W-NW 302 ° 1 min 480 W/m² 15,9 °C 20,1 °C 8,0 km/h (2 Bft)
09.06.2023 09:00 21,9 °C 20,2 °C 58 % 76 % 1015,8 hPa 0,0 l/m² 6,4 km/h (2 Bft) W-NW 295 ° 1 min 485 W/m² 15,8 °C 20,2 °C 11,3 km/h (2 Bft)
09.06.2023 09:01 21,9 °C 20,3 °C 58 % 77 % 1015,8 hPa 0,0 l/m² 4,4 km/h (1 Bft) NW 309 ° 1 min 496 W/m² 16,1 °C 20,3 °C 8,0 km/h (2 Bft)
09.06.2023 09:02 21,8 °C 20,3 °C 58 % 75 % 1015,7 hPa 0,0 l/m² 5,3 km/h (1 Bft) W 280 ° 1 min 501 W/m² 15,7 °C 20,3 °C 8,0 km/h (2 Bft)
09.06.2023 09:03 21,9 °C 20,4 °C 58 % 75 % 1015,7 hPa 0,0 l/m² 7,5 km/h (2 Bft) NW 311 ° 1 min 504 W/m² 15,8 °C 20,0 °C 12,9 km/h (3 Bft)
09.06.2023 09:04 21,9 °C 20,5 °C 58 % 75 % 1015,8 hPa 0,0 l/m² 5,3 km/h (1 Bft) W 280 ° 1 min 508 W/m² 15,9 °C 20,5 °C 9,7 km/h (2 Bft)
09.06.2023 09:05 21,9 °C 20,6 °C 58 % 75 % 1015,7 hPa 0,0 l/m² 4,1 km/h (1 Bft) NW 313 ° 1 min 512 W/m² 16,0 °C 20,6 °C 8,0 km/h (2 Bft)
09.06.2023 09:06 21,9 °C 20,7 °C 58 % 75 % 1015,8 hPa 0,0 l/m² 3,2 km/h (1 Bft) N-NW 338 ° 1 min 524 W/m² 16,1 °C 20,7 °C 6,4 km/h (2 Bft)
09.06.2023 09:07 21,9 °C 20,8 °C 58 % 73 % 1015,8 hPa 0,0 l/m² 5,3 km/h (1 Bft) N-NW 340 ° 1 min 529 W/m² 15,8 °C 20,8 °C 9,7 km/h (2 Bft)
09.06.2023 09:08 21,9 °C 20,8 °C 58 % 72 % 1015,8 hPa 0,0 l/m² 7,2 km/h (2 Bft) N-NW 335 ° 1 min 533 W/m² 15,6 °C 20,5 °C 9,7 km/h (2 Bft)
09.06.2023 09:09 21,9 °C 20,8 °C 58 % 68 % 1015,8 hPa 0,0 l/m² 7,2 km/h (2 Bft) N-NW 341 ° 1 min 538 W/m² 14,7 °C 20,5 °C 14,5 km/h (3 Bft)
09.06.2023 09:10 21,9 °C 20,8 °C 58 % 67 % 1015,8 hPa 0,0 l/m² 4,4 km/h (1 Bft) N-NO 32 ° 1 min 541 W/m² 14,4 °C 20,8 °C 6,4 km/h (2 Bft)
09.06.2023 09:11 21,9 °C 20,9 °C 58 % 69 % 1015,8 hPa 0,0 l/m² 3,0 km/h (1 Bft) NW 313 ° 1 min 545 W/m² 15,0 °C 20,9 °C 6,4 km/h (2 Bft)
09.06.2023 09:12 21,9 °C 21,1 °C 58 % 69 % 1015,8 hPa 0,0 l/m² 5,1 km/h (1 Bft) N 355 ° 1 min 552 W/m² 15,2 °C 21,1 °C 8,0 km/h (2 Bft)
09.06.2023 09:13 21,9 °C 21,1 °C 58 % 68 % 1015,7 hPa 0,0 l/m² 4,8 km/h (1 Bft) N-NW 331 ° 1 min 554 W/m² 15,0 °C 21,1 °C 8,0 km/h (2 Bft)
09.06.2023 09:14 21,9 °C 21,0 °C 58 % 67 % 1015,7 hPa 0,0 l/m² 3,5 km/h (1 Bft) NW 326 ° 1 min 554 W/m² 14,6 °C 21,0 °C 6,4 km/h (2 Bft)
09.06.2023 09:15 21,9 °C 21,1 °C 58 % 68 % 1015,8 hPa 0,0 l/m² 3,8 km/h (1 Bft) N-NW 348 ° 1 min 557 W/m² 15,0 °C 21,1 °C 6,4 km/h (2 Bft)
09.06.2023 09:16 21,9 °C 21,2 °C 58 % 67 % 1015,8 hPa 0,0 l/m² 7,4 km/h (2 Bft) N 5 ° 1 min 559 W/m² 14,8 °C 20,8 °C 9,7 km/h (2 Bft)
09.06.2023 09:17 21,9 °C 21,2 °C 58 % 66 % 1015,8 hPa 0,0 l/m² 8,0 km/h (2 Bft) N 10 ° 1 min 561 W/m² 14,6 °C 20,6 °C 9,7 km/h (2 Bft)
09.06.2023 09:18 21,9 °C 21,2 °C 58 % 65 % 1015,8 hPa 0,0 l/m² 4,9 km/h (1 Bft) W-NW 303 ° 1 min 570 W/m² 14,4 °C 21,2 °C 9,7 km/h (2 Bft)
09.06.2023 09:19 21,9 °C 21,2 °C 58 % 65 % 1015,8 hPa 0,0 l/m² 3,6 km/h (1 Bft) N 355 ° 1 min 571 W/m² 14,4 °C 21,2 °C 6,4 km/h (2 Bft)
09.06.2023 09:20 21,9 °C 21,3 °C 58 % 66 % 1015,7 hPa 0,0 l/m² 9,9 km/h (2 Bft) N 355 ° 1 min 566 W/m² 14,7 °C 20,1 °C 16,1 km/h (3 Bft)
09.06.2023 09:21 21,9 °C 21,3 °C 58 % 63 % 1015,8 hPa 0,0 l/m² 8,8 km/h (2 Bft) N-NW 342 ° 1 min 566 W/m² 14,0 °C 20,4 °C 16,1 km/h (3 Bft)
09.06.2023 09:22 21,9 °C 21,3 °C 58 % 64 % 1015,9 hPa 0,0 l/m² 4,8 km/h (1 Bft) N-NW 346 ° 1 min 571 W/m² 14,2 °C 21,3 °C 8,0 km/h (2 Bft)
09.06.2023 09:23 21,9 °C 21,4 °C 58 % 63 % 1015,8 hPa 0,0 l/m² 4,4 km/h (1 Bft) N-NO 23 ° 1 min 573 W/m² 14,1 °C 21,4 °C 8,0 km/h (2 Bft)
09.06.2023 09:24 21,9 °C 21,4 °C 58 % 67 % 1015,8 hPa 0,0 l/m² 4,7 km/h (1 Bft) O-NO 63 ° 1 min 578 W/m² 15,0 °C 21,4 °C 8,0 km/h (2 Bft)
09.06.2023 09:25 21,9 °C 21,5 °C 58 % 66 % 1015,8 hPa 0,0 l/m² 6,9 km/h (2 Bft) NO 51 ° 1 min 587 W/m² 14,9 °C 21,3 °C 12,9 km/h (3 Bft)
09.06.2023 09:26 21,9 °C 21,6 °C 58 % 65 % 1015,9 hPa 0,0 l/m² 5,0 km/h (1 Bft) N-NW 333 ° 1 min 589 W/m² 14,7 °C 21,6 °C 9,7 km/h (2 Bft)
09.06.2023 09:27 21,9 °C 21,6 °C 58 % 64 % 1015,8 hPa 0,0 l/m² 6,8 km/h (2 Bft) NW 316 ° 1 min 589 W/m² 14,5 °C 21,5 °C 11,3 km/h (2 Bft)
09.06.2023 09:28 21,9 °C 21,7 °C 57 % 63 % 1015,8 hPa 0,0 l/m² 7,6 km/h (2 Bft) NW 314 ° 1 min 587 W/m² 14,3 °C 21,3 °C 12,9 km/h (3 Bft)
09.06.2023 09:29 21,9 °C 21,7 °C 58 % 62 % 1015,9 hPa 0,0 l/m² 10,4 km/h (2 Bft) N 5 ° 1 min 592 W/m² 14,1 °C 20,4 °C 14,5 km/h (3 Bft)
09.06.2023 09:30 21,9 °C 21,7 °C 58 % 61 % 1015,9 hPa 0,0 l/m² 13,5 km/h (3 Bft) N 351 ° 1 min 598 W/m² 13,8 °C 19,6 °C 16,1 km/h (3 Bft)
09.06.2023 09:31 21,9 °C 21,6 °C 58 % 61 % 1015,9 hPa 0,0 l/m² 11,8 km/h (2 Bft) N 5 ° 1 min 598 W/m² 13,7 °C 19,9 °C 16,1 km/h (3 Bft)
09.06.2023 09:32 21,9 °C 21,6 °C 58 % 60 % 1015,9 hPa 0,0 l/m² 6,4 km/h (2 Bft) N 5 ° 1 min 603 W/m² 13,5 °C 21,6 °C 9,7 km/h (2 Bft)
09.06.2023 09:33 21,9 °C 21,7 °C 58 % 61 % 1015,9 hPa 0,0 l/m² 8,9 km/h (2 Bft) N-NW 347 ° 1 min 605 W/m² 13,8 °C 20,8 °C 12,9 km/h (3 Bft)
09.06.2023 09:34 22,0 °C 21,7 °C 58 % 61 % 1015,9 hPa 0,0 l/m² 8,4 km/h (2 Bft) N 355 ° 1 min 605 W/m² 13,8 °C 21,0 °C 11,3 km/h (2 Bft)
09.06.2023 09:35 21,9 °C 21,6 °C 58 % 62 % 1015,9 hPa 0,0 l/m² 7,8 km/h (2 Bft) N-NW 338 ° 1 min 619 W/m² 14,0 °C 21,1 °C 14,5 km/h (3 Bft)
09.06.2023 09:36 22,0 °C 21,7 °C 57 % 63 % 1015,9 hPa 0,0 l/m² 11,9 km/h (2 Bft) N 350 ° 1 min 624 W/m² 14,3 °C 20,0 °C 14,5 km/h (3 Bft)
09.06.2023 09:37 21,9 °C 21,7 °C 57 % 62 % 1015,9 hPa 0,0 l/m² 10,8 km/h (2 Bft) NW 325 ° 1 min 628 W/m² 14,1 °C 20,3 °C 14,5 km/h (3 Bft)
09.06.2023 09:38 21,9 °C 21,7 °C 58 % 63 % 1015,9 hPa 0,0 l/m² 9,1 km/h (2 Bft) N 355 ° 1 min 626 W/m² 14,3 °C 20,8 °C 12,9 km/h (3 Bft)
09.06.2023 09:39 21,9 °C 21,8 °C 57 % 63 % 1015,9 hPa 0,0 l/m² 8,4 km/h (2 Bft) N-NW 346 ° 1 min 622 W/m² 14,4 °C 21,1 °C 12,9 km/h (3 Bft)
09.06.2023 09:40 21,9 °C 21,8 °C 58 % 63 % 1015,9 hPa 0,0 l/m² 9,6 km/h (2 Bft) N 5 ° 1 min 622 W/m² 14,4 °C 20,7 °C 16,1 km/h (3 Bft)
09.06.2023 09:41 21,9 °C 21,8 °C 57 % 63 % 1015,9 hPa 0,0 l/m² 10,3 km/h (2 Bft) N 10 ° 1 min 629 W/m² 14,4 °C 20,5 °C 17,7 km/h (3 Bft)
09.06.2023 09:42 21,9 °C 21,8 °C 57 % 61 % 1015,8 hPa 0,0 l/m² 11,1 km/h (2 Bft) N 355 ° 1 min 633 W/m² 13,9 °C 20,3 °C 14,5 km/h (3 Bft)
09.06.2023 09:43 22,0 °C 21,8 °C 58 % 61 % 1015,8 hPa 0,0 l/m² 10,3 km/h (2 Bft) N 355 ° 1 min 629 W/m² 13,9 °C 20,5 °C 14,5 km/h (3 Bft)
09.06.2023 09:45 22,0 °C 21,7 °C 58 % 62 % 1015,8 hPa 0,0 l/m² 7,0 km/h (2 Bft) NW 315 ° 2 min 631 W/m² 14,1 °C 21,5 °C 12,9 km/h (3 Bft)
09.06.2023 09:46 22,0 °C 21,8 °C 58 % 65 % 1015,8 hPa 0,0 l/m² 14,1 km/h (3 Bft) N-NW 341 ° 1 min 640 W/m² 14,9 °C 19,6 °C 19,3 km/h (3 Bft)
09.06.2023 09:47 22,0 °C 21,9 °C 58 % 63 % 1015,9 hPa 0,0 l/m² 12,2 km/h (2 Bft) N-NW 339 ° 1 min 650 W/m² 14,5 °C 20,2 °C 17,7 km/h (3 Bft)
09.06.2023 09:48 22,0 °C 21,8 °C 57 % 63 % 1015,9 hPa 0,0 l/m² 11,3 km/h (2 Bft) N-NW 337 ° 1 min 652 W/m² 14,4 °C 20,3 °C 14,5 km/h (3 Bft)
09.06.2023 09:49 22,0 °C 21,9 °C 57 % 64 % 1015,9 hPa 0,0 l/m² 10,4 km/h (2 Bft) N 349 ° 1 min 650 W/m² 14,8 °C 20,6 °C 14,5 km/h (3 Bft)
09.06.2023 09:50 21,9 °C 21,9 °C 57 % 63 % 1015,9 hPa 0,0 l/m² 6,9 km/h (2 Bft) N 351 ° 1 min 650 W/m² 14,5 °C 21,7 °C 12,9 km/h (3 Bft)
09.06.2023 09:51 21,9 °C 21,9 °C 57 % 64 % 1015,9 hPa 0,0 l/m² 8,5 km/h (2 Bft) N-NW 338 ° 1 min 647 W/m² 14,8 °C 21,2 °C 12,9 km/h (3 Bft)
09.06.2023 09:52 22,0 °C 21,8 °C 57 % 65 % 1015,8 hPa 0,0 l/m² 8,5 km/h (2 Bft) NW 315 ° 1 min 649 W/m² 14,9 °C 21,1 °C 12,9 km/h (3 Bft)
09.06.2023 09:53 22,0 °C 21,9 °C 57 % 65 % 1015,8 hPa 0,0 l/m² 5,5 km/h (2 Bft) N-NW 346 ° 1 min 654 W/m² 15,0 °C 21,9 °C 9,7 km/h (2 Bft)
09.06.2023 09:54 22,0 °C 22,0 °C 57 % 67 % 1015,8 hPa 0,0 l/m² 7,2 km/h (2 Bft) N-NW 329 ° 1 min 657 W/m² 15,6 °C 21,7 °C 12,9 km/h (3 Bft)
09.06.2023 09:55 22,0 °C 22,2 °C 57 % 66 % 1015,9 hPa 0,0 l/m² 8,4 km/h (2 Bft) NW 325 ° 1 min 663 W/m² 15,5 °C 21,5 °C 14,5 km/h (3 Bft)
09.06.2023 09:56 22,0 °C 22,2 °C 57 % 66 % 1015,9 hPa 0,0 l/m² 9,5 km/h (2 Bft) N-NW 336 ° 1 min 666 W/m² 15,5 °C 21,2 °C 14,5 km/h (3 Bft)
09.06.2023 09:57 22,0 °C 22,2 °C 57 % 64 % 1015,9 hPa 0,0 l/m² 12,4 km/h (2 Bft) NW 324 ° 1 min 670 W/m² 15,1 °C 20,5 °C 16,1 km/h (3 Bft)
09.06.2023 09:58 22,0 °C 22,2 °C 57 % 64 % 1015,9 hPa 0,0 l/m² 9,8 km/h (2 Bft) N-NW 327 ° 1 min 673 W/m² 15,1 °C 21,1 °C 14,5 km/h (3 Bft)
09.06.2023 09:59 22,0 °C 22,1 °C 57 % 63 % 1015,9 hPa 0,0 l/m² 7,4 km/h (2 Bft) N 355 ° 1 min 671 W/m² 14,7 °C 21,8 °C 11,3 km/h (2 Bft)
09.06.2023 10:00 22,0 °C 22,1 °C 57 % 64 % 1015,9 hPa 0,0 l/m² 6,3 km/h (2 Bft) N-NW 336 ° 1 min 679 W/m² 15,0 °C 22,1 °C 12,9 km/h (3 Bft)
09.06.2023 10:01 22,0 °C 22,2 °C 57 % 65 % 1015,9 hPa 0,0 l/m² 11,7 km/h (2 Bft) N-NO 30 ° 1 min 649 W/m² 15,3 °C 20,6 °C 17,7 km/h (3 Bft)
09.06.2023 10:02 22,0 °C 22,1 °C 57 % 63 % 1015,9 hPa 0,0 l/m² 6,4 km/h (2 Bft) N-NW 334 ° 1 min 649 W/m² 14,7 °C 22,1 °C 9,7 km/h (2 Bft)
09.06.2023 10:03 22,0 °C 22,1 °C 57 % 63 % 1015,8 hPa 0,0 l/m² 11,7 km/h (2 Bft) N-NW 341 ° 1 min 287 W/m² 14,7 °C 20,5 °C 17,7 km/h (3 Bft)
09.06.2023 10:04 22,0 °C 22,1 °C 57 % 64 % 1015,9 hPa 0,0 l/m² 10,4 km/h (2 Bft) NW 316 ° 1 min 265 W/m² 15,0 °C 20,9 °C 14,5 km/h (3 Bft)
09.06.2023 10:05 22,0 °C 21,9 °C 57 % 64 % 1015,9 hPa 0,0 l/m² 9,2 km/h (2 Bft) N-NW 345 ° 1 min 290 W/m² 14,8 °C 21,0 °C 12,9 km/h (3 Bft)
09.06.2023 10:06 22,0 °C 21,8 °C 57 % 64 % 1015,8 hPa 0,0 l/m² 11,4 km/h (2 Bft) N 355 ° 1 min 274 W/m² 14,7 °C 20,3 °C 16,1 km/h (3 Bft)
09.06.2023 10:07 22,0 °C 21,8 °C 57 % 65 % 1015,9 hPa 0,0 l/m² 7,3 km/h (2 Bft) W-NW 296 ° 1 min 292 W/m² 14,9 °C 21,5 °C 12,9 km/h (3 Bft)
09.06.2023 10:08 22,0 °C 21,8 °C 57 % 66 % 1015,9 hPa 0,0 l/m² 8,2 km/h (2 Bft) N 355 ° 1 min 292 W/m² 15,2 °C 21,2 °C 14,5 km/h (3 Bft)
09.06.2023 10:09 22,0 °C 21,8 °C 57 % 67 % 1015,9 hPa 0,0 l/m² 12,1 km/h (2 Bft) N-NW 346 ° 1 min 292 W/m² 15,4 °C 20,1 °C 16,1 km/h (3 Bft)
09.06.2023 10:10 22,0 °C 21,7 °C 57 % 65 % 1015,9 hPa 0,0 l/m² 9,5 km/h (2 Bft) N-NW 332 ° 1 min 357 W/m² 14,8 °C 20,7 °C 14,5 km/h (3 Bft)
09.06.2023 10:11 22,0 °C 21,8 °C 57 % 67 % 1016,0 hPa 0,0 l/m² 4,3 km/h (1 Bft) W-NW 282 ° 1 min 740 W/m² 15,4 °C 21,8 °C 8,0 km/h (2 Bft)
09.06.2023 10:12 22,0 °C 22,0 °C 57 % 68 % 1015,8 hPa 0,0 l/m² 7,3 km/h (2 Bft) N-NW 346 ° 1 min 784 W/m² 15,8 °C 21,7 °C 14,5 km/h (3 Bft)
09.06.2023 10:13 22,0 °C 22,1 °C 57 % 66 % 1015,8 hPa 0,0 l/m² 9,9 km/h (2 Bft) N 355 ° 1 min 772 W/m² 15,4 °C 21,0 °C 14,5 km/h (3 Bft)
09.06.2023 10:14 22,0 °C 22,2 °C 57 % 64 % 1015,9 hPa 0,0 l/m² 6,8 km/h (2 Bft) N-NW 343 ° 1 min 775 W/m² 15,1 °C 22,1 °C 12,9 km/h (3 Bft)
09.06.2023 10:15 22,0 °C 22,4 °C 57 % 66 % 1015,9 hPa 0,0 l/m² 10,3 km/h (2 Bft) N 355 ° 1 min 766 W/m² 15,7 °C 21,2 °C 16,1 km/h (3 Bft)
09.06.2023 10:17 22,0 °C 22,6 °C 57 % 63 % 1016,0 hPa 0,0 l/m² 9,7 km/h (2 Bft) N-NW 344 ° 2 min 742 W/m² 15,2 °C 21,6 °C 19,3 km/h (3 Bft)
09.06.2023 10:18 22,0 °C 22,6 °C 57 % 63 % 1015,9 hPa 0,0 l/m² 11,9 km/h (2 Bft) N 360 ° 1 min 744 W/m² 15,2 °C 21,0 °C 14,5 km/h (3 Bft)
09.06.2023 10:19 22,0 °C 22,6 °C 57 % 62 % 1015,9 hPa 0,0 l/m² 5,2 km/h (1 Bft) N-NW 331 ° 1 min 747 W/m² 14,9 °C 22,6 °C 9,7 km/h (2 Bft)
09.06.2023 10:20 22,0 °C 22,6 °C 57 % 62 % 1015,9 hPa 0,0 l/m² 5,0 km/h (1 Bft) N 355 ° 1 min 747 W/m² 14,9 °C 22,6 °C 6,4 km/h (2 Bft)
09.06.2023 10:21 22,0 °C 22,7 °C 57 % 64 % 1015,9 hPa 0,0 l/m² 3,7 km/h (1 Bft) N-NW 340 ° 1 min 747 W/m² 15,5 °C 22,7 °C 6,4 km/h (2 Bft)
09.06.2023 10:22 22,0 °C 22,7 °C 57 % 62 % 1015,9 hPa 0,0 l/m² 5,6 km/h (2 Bft) NO 40 ° 1 min 747 W/m² 15,0 °C 22,7 °C 14,5 km/h (3 Bft)
09.06.2023 10:23 22,0 °C 22,8 °C 57 % 60 % 1015,9 hPa 0,0 l/m² 5,5 km/h (2 Bft) O-NO 57 ° 1 min 747 W/m² 14,6 °C 22,8 °C 8,0 km/h (2 Bft)
09.06.2023 10:24 22,0 °C 22,9 °C 57 % 60 % 1016,0 hPa 0,0 l/m² 4,0 km/h (1 Bft) N-NO 27 ° 1 min 657 W/m² 14,7 °C 22,9 °C 8,0 km/h (2 Bft)
09.06.2023 10:25 22,1 °C 22,9 °C 57 % 58 % 1015,9 hPa 0,0 l/m² 6,6 km/h (2 Bft) O 80 ° 1 min 657 W/m² 14,2 °C 22,8 °C 8,0 km/h (2 Bft)
09.06.2023 10:26 22,0 °C 22,9 °C 57 % 60 % 1016,0 hPa 0,0 l/m² 5,2 km/h (1 Bft) NO 42 ° 1 min 466 W/m² 14,7 °C 22,9 °C 8,0 km/h (2 Bft)
09.06.2023 10:27 22,0 °C 23,0 °C 57 % 57 % 1016,0 hPa 0,0 l/m² 5,7 km/h (2 Bft) N 360 ° 1 min 466 W/m² 14,0 °C 23,0 °C 8,0 km/h (2 Bft)
09.06.2023 10:28 22,1 °C 23,0 °C 57 % 55 % 1016,0 hPa 0,0 l/m² 6,0 km/h (2 Bft) N-NO 12 ° 1 min 766 W/m² 13,5 °C 23,0 °C 9,7 km/h (2 Bft)
09.06.2023 10:29 22,1 °C 23,1 °C 57 % 56 % 1016,0 hPa 0,0 l/m² 5,6 km/h (2 Bft) N 5 ° 1 min 779 W/m² 13,8 °C 23,1 °C 12,9 km/h (3 Bft)
09.06.2023 10:30 22,1 °C 23,2 °C 57 % 56 % 1016,0 hPa 0,0 l/m² 6,3 km/h (2 Bft) N-NO 13 ° 1 min 766 W/m² 13,9 °C 23,2 °C 12,9 km/h (3 Bft)
09.06.2023 10:31 22,0 °C 23,4 °C 57 % 58 % 1015,9 hPa 0,0 l/m² 4,9 km/h (1 Bft) N 11 ° 1 min 766 W/m² 14,7 °C 23,4 °C 11,3 km/h (2 Bft)
09.06.2023 10:32 22,1 °C 23,5 °C 57 % 59 % 1016,0 hPa 0,0 l/m² 7,6 km/h (2 Bft) O-NO 62 ° 1 min 744 W/m² 15,0 °C 23,1 °C 14,5 km/h (3 Bft)
09.06.2023 10:33 22,1 °C 23,6 °C 57 % 56 % 1015,9 hPa 0,0 l/m² 7,0 km/h (2 Bft) N-NW 338 ° 1 min 795 W/m² 14,3 °C 23,4 °C 12,9 km/h (3 Bft)
09.06.2023 10:34 22,0 °C 23,7 °C 57 % 54 % 1015,9 hPa 0,0 l/m² 3,1 km/h (1 Bft) NO 51 ° 1 min 773 W/m² 13,8 °C 23,7 °C 8,0 km/h (2 Bft)
09.06.2023 10:35 22,0 °C 23,8 °C 57 % 56 % 1015,9 hPa 0,0 l/m² 4,3 km/h (1 Bft) N-NO 30 ° 1 min 761 W/m² 14,5 °C 23,8 °C 9,7 km/h (2 Bft)
09.06.2023 10:36 22,1 °C 23,8 °C 57 % 54 % 1015,9 hPa 0,0 l/m² 8,7 km/h (2 Bft) N-NO 12 ° 1 min 761 W/m² 13,9 °C 23,2 °C 14,5 km/h (3 Bft)
09.06.2023 10:37 22,1 °C 23,8 °C 57 % 55 % 1015,8 hPa 0,0 l/m² 4,3 km/h (1 Bft) N-NW 341 ° 1 min 761 W/m² 14,2 °C 23,8 °C 8,0 km/h (2 Bft)
09.06.2023 10:38 22,1 °C 23,8 °C 57 % 56 % 1015,8 hPa 0,0 l/m² 1,2 km/h (1 Bft) N-NW 344 ° 1 min 761 W/m² 14,5 °C 23,8 °C 3,2 km/h (1 Bft)
09.06.2023 10:39 22,1 °C 23,9 °C 57 % 56 % 1015,8 hPa 0,0 l/m² 4,6 km/h (1 Bft) NO 42 ° 1 min 731 W/m² 14,6 °C 23,9 °C 12,9 km/h (3 Bft)
09.06.2023 10:40 22,1 °C 23,9 °C 57 % 58 % 1015,8 hPa 0,0 l/m² 11,6 km/h (2 Bft) N-NO 13 ° 1 min 728 W/m² 15,1 °C 22,6 °C 17,7 km/h (3 Bft)
09.06.2023 10:41 22,1 °C 23,8 °C 57 % 54 % 1015,8 hPa 0,0 l/m² 12,1 km/h (2 Bft) N 9 ° 1 min 744 W/m² 13,9 °C 22,4 °C 17,7 km/h (3 Bft)
09.06.2023 10:42 22,1 °C 23,7 °C 57 % 54 % 1015,9 hPa 0,0 l/m² 5,2 km/h (1 Bft) N 10 ° 1 min 758 W/m² 13,8 °C 23,7 °C 9,7 km/h (2 Bft)
09.06.2023 10:43 22,1 °C 23,8 °C 57 % 58 % 1015,8 hPa 0,0 l/m² 8,5 km/h (2 Bft) N-NO 17 ° 1 min 763 W/m² 15,0 °C 23,2 °C 16,1 km/h (3 Bft)
09.06.2023 10:44 22,1 °C 23,8 °C 57 % 55 % 1015,8 hPa 0,0 l/m² 10,0 km/h (2 Bft) NO 45 ° 1 min 747 W/m² 14,2 °C 22,8 °C 17,7 km/h (3 Bft)
09.06.2023 10:45 22,1 °C 23,8 °C 57 % 54 % 1015,8 hPa 0,0 l/m² 6,3 km/h (2 Bft) N 9 ° 1 min 731 W/m² 13,9 °C 23,8 °C 9,7 km/h (2 Bft)
09.06.2023 10:47 22,1 °C 23,9 °C 57 % 56 % 1015,8 hPa 0,0 l/m² 8,4 km/h (2 Bft) N-NO 19 ° 2 min 756 W/m² 14,6 °C 23,3 °C 16,1 km/h (3 Bft)
09.06.2023 10:48 22,1 °C 24,0 °C 57 % 53 % 1015,8 hPa 0,0 l/m² 10,2 km/h (2 Bft) N-NO 31 ° 1 min 756 W/m² 13,8 °C 23,0 °C 17,7 km/h (3 Bft)
09.06.2023 10:49 22,1 °C 24,1 °C 57 % 53 % 1015,7 hPa 0,0 l/m² 6,9 km/h (2 Bft) NO 36 ° 1 min 758 W/m² 13,9 °C 24,0 °C 12,9 km/h (3 Bft)
09.06.2023 10:50 22,1 °C 24,1 °C 57 % 54 % 1015,8 hPa 0,0 l/m² 6,6 km/h (2 Bft) N-NO 24 ° 1 min 758 W/m² 14,2 °C 24,1 °C 12,9 km/h (3 Bft)
09.06.2023 10:51 22,1 °C 24,1 °C 57 % 53 % 1015,8 hPa 0,0 l/m² 10,1 km/h (2 Bft) N-NW 329 ° 1 min 759 W/m² 13,9 °C 23,1 °C 14,5 km/h (3 Bft)
09.06.2023 10:52 22,1 °C 24,1 °C 57 % 53 % 1015,8 hPa 0,0 l/m² 7,1 km/h (2 Bft) N 360 ° 1 min 766 W/m² 13,9 °C 23,9 °C 9,7 km/h (2 Bft)
09.06.2023 10:53 22,1 °C 24,1 °C 57 % 52 % 1015,8 hPa 0,0 l/m² 6,5 km/h (2 Bft) N-NO 12 ° 1 min 775 W/m² 13,6 °C 24,1 °C 12,9 km/h (3 Bft)
09.06.2023 10:54 22,1 °C 24,1 °C 57 % 53 % 1015,8 hPa 0,0 l/m² 12,3 km/h (2 Bft) NW 324 ° 1 min 784 W/m² 13,9 °C 22,7 °C 16,1 km/h (3 Bft)
09.06.2023 10:55 22,1 °C 24,1 °C 57 % 54 % 1015,8 hPa 0,0 l/m² 8,0 km/h (2 Bft) N-NO 16 ° 1 min 791 W/m² 14,2 °C 23,7 °C 14,5 km/h (3 Bft)
09.06.2023 10:56 22,1 °C 24,2 °C 57 % 53 % 1015,8 hPa 0,0 l/m² 7,9 km/h (2 Bft) N-NO 25 ° 1 min 788 W/m² 14,0 °C 23,8 °C 14,5 km/h (3 Bft)
09.06.2023 10:57 22,1 °C 24,3 °C 57 % 51 % 1015,8 hPa 0,0 l/m² 13,5 km/h (3 Bft) N-NW 340 ° 1 min 779 W/m² 13,5 °C 22,7 °C 19,3 km/h (3 Bft)
09.06.2023 10:58 22,1 °C 24,2 °C 57 % 51 % 1015,8 hPa 0,0 l/m² 11,9 km/h (2 Bft) N 360 ° 1 min 773 W/m² 13,4 °C 22,9 °C 20,9 km/h (4 Bft)
09.06.2023 10:59 22,1 °C 24,2 °C 57 % 51 % 1015,8 hPa 0,0 l/m² 12,7 km/h (3 Bft) N-NO 31 ° 1 min 775 W/m² 13,4 °C 22,7 °C 16,1 km/h (3 Bft)
09.06.2023 11:00 22,1 °C 24,2 °C 57 % 52 % 1015,8 hPa 0,0 l/m² 9,3 km/h (2 Bft) O-NO 62 ° 1 min 765 W/m² 13,7 °C 23,4 °C 17,7 km/h (3 Bft)
09.06.2023 11:01 22,1 °C 24,3 °C 57 % 53 % 1015,8 hPa 0,0 l/m² 10,7 km/h (2 Bft) N-NO 26 ° 1 min 770 W/m² 14,1 °C 23,2 °C 17,7 km/h (3 Bft)
09.06.2023 11:02 22,1 °C 24,3 °C 57 % 51 % 1015,8 hPa 0,0 l/m² 9,1 km/h (2 Bft) N 9 ° 1 min 777 W/m² 13,5 °C 23,6 °C 17,7 km/h (3 Bft)
09.06.2023 11:03 22,1 °C 24,3 °C 57 % 53 % 1015,8 hPa 0,0 l/m² 1,5 km/h (1 Bft) N-NO 17 ° 1 min 779 W/m² 14,1 °C 24,3 °C 4,8 km/h (1 Bft)
09.06.2023 11:04 22,1 °C 24,4 °C 57 % 53 % 1015,8 hPa 0,0 l/m² 5,7 km/h (2 Bft) N-NW 344 ° 1 min 784 W/m² 14,2 °C 24,4 °C 8,0 km/h (2 Bft)
09.06.2023 11:05 22,1 °C 24,6 °C 57 % 55 % 1015,8 hPa 0,0 l/m² 4,5 km/h (1 Bft) NO 51 ° 1 min 784 W/m² 14,9 °C 24,6 °C 8,0 km/h (2 Bft)
09.06.2023 11:06 22,1 °C 24,8 °C 57 % 53 % 1015,8 hPa 0,0 l/m² 5,2 km/h (1 Bft) N-NO 12 ° 1 min 784 W/m² 14,6 °C 24,8 °C 12,9 km/h (3 Bft)
09.06.2023 11:07 22,1 °C 24,8 °C 57 % 52 % 1015,9 hPa 0,0 l/m² 8,9 km/h (2 Bft) N-NO 23 ° 1 min 786 W/m² 14,3 °C 24,2 °C 12,9 km/h (3 Bft)
09.06.2023 11:08 22,1 °C 24,7 °C 57 % 53 % 1015,8 hPa 0,0 l/m² 9,7 km/h (2 Bft) N-NO 23 ° 1 min 786 W/m² 14,5 °C 23,9 °C 17,7 km/h (3 Bft)
09.06.2023 11:09 22,1 °C 24,7 °C 57 % 51 % 1015,9 hPa 0,0 l/m² 9,9 km/h (2 Bft) N 351 ° 1 min 796 W/m² 13,9 °C 23,9 °C 14,5 km/h (3 Bft)
09.06.2023 11:10 22,1 °C 24,7 °C 57 % 54 % 1015,8 hPa 0,0 l/m² 10,7 km/h (2 Bft) O-NO 71 ° 1 min 796 W/m² 14,8 °C 23,7 °C 14,5 km/h (3 Bft)
09.06.2023 11:11 22,1 °C 24,7 °C 57 % 52 % 1015,9 hPa 0,0 l/m² 7,1 km/h (2 Bft) O-NO 77 ° 1 min 793 W/m² 14,2 °C 24,5 °C 9,7 km/h (2 Bft)
09.06.2023 11:12 22,1 °C 24,8 °C 57 % 53 % 1015,9 hPa 0,0 l/m² 3,6 km/h (1 Bft) NO 53 ° 1 min 795 W/m² 14,6 °C 24,8 °C 8,0 km/h (2 Bft)
09.06.2023 11:13 22,1 °C 24,8 °C 57 % 52 % 1015,9 hPa 0,0 l/m² 7,0 km/h (2 Bft) O-NO 58 ° 1 min 798 W/m² 14,3 °C 24,6 °C 11,3 km/h (2 Bft)
09.06.2023 11:14 22,1 °C 24,9 °C 57 % 53 % 1015,8 hPa 0,0 l/m² 4,0 km/h (1 Bft) N 10 ° 1 min 798 W/m² 14,6 °C 24,9 °C 4,8 km/h (1 Bft)
09.06.2023 11:15 22,1 °C 25,1 °C 57 % 52 % 1015,8 hPa 0,0 l/m² 7,1 km/h (2 Bft) NO 50 ° 1 min 802 W/m² 14,5 °C 24,9 °C 9,7 km/h (2 Bft)
09.06.2023 11:16 22,1 °C 25,1 °C 57 % 56 % 1015,8 hPa 0,0 l/m² 7,7 km/h (2 Bft) NO 42 ° 1 min 802 W/m² 15,7 °C 24,8 °C 16,1 km/h (3 Bft)
09.06.2023 11:17 22,1 °C 25,2 °C 57 % 52 % 1015,8 hPa 0,0 l/m² 10,5 km/h (2 Bft) NO 47 ° 1 min 802 W/m² 14,6 °C 24,3 °C 16,1 km/h (3 Bft)
09.06.2023 11:18 22,1 °C 25,1 °C 57 % 49 % 1015,8 hPa 0,0 l/m² 8,2 km/h (2 Bft) NO 46 ° 1 min 805 W/m² 13,6 °C 24,7 °C 12,9 km/h (3 Bft)
09.06.2023 11:19 22,1 °C 25,1 °C 57 % 50 % 1015,8 hPa 0,0 l/m² 13,6 km/h (3 Bft) NO 41 ° 1 min 805 W/m² 13,9 °C 23,6 °C 19,3 km/h (3 Bft)
09.06.2023 11:20 22,1 °C 25,0 °C 57 % 50 % 1015,8 hPa 0,0 l/m² 10,4 km/h (2 Bft) N-NW 348 ° 1 min 807 W/m² 13,8 °C 24,1 °C 17,7 km/h (3 Bft)
09.06.2023 11:21 22,1 °C 24,9 °C 57 % 49 % 1015,8 hPa 0,0 l/m² 4,8 km/h (1 Bft) NO 36 ° 1 min 809 W/m² 13,4 °C 24,9 °C 8,0 km/h (2 Bft)
09.06.2023 11:22 22,1 °C 24,9 °C 57 % 52 % 1015,8 hPa 0,0 l/m² 7,2 km/h (2 Bft) N 5 ° 1 min 810 W/m² 14,4 °C 24,7 °C 11,3 km/h (2 Bft)
09.06.2023 11:23 22,1 °C 25,0 °C 57 % 51 % 1015,8 hPa 0,0 l/m² 5,5 km/h (2 Bft) NO 35 ° 1 min 814 W/m² 14,1 °C 25,0 °C 11,3 km/h (2 Bft)
09.06.2023 11:24 22,1 °C 25,1 °C 57 % 50 % 1015,8 hPa 0,0 l/m² 6,4 km/h (2 Bft) NO 43 ° 1 min 817 W/m² 13,9 °C 25,1 °C 9,7 km/h (2 Bft)
09.06.2023 11:25 22,1 °C 25,1 °C 57 % 52 % 1015,8 hPa 0,0 l/m² 7,2 km/h (2 Bft) N 351 ° 1 min 819 W/m² 14,5 °C 24,9 °C 9,7 km/h (2 Bft)
09.06.2023 11:26 22,1 °C 25,2 °C 57 % 50 % 1015,8 hPa 0,0 l/m² 5,8 km/h (2 Bft) N 355 ° 1 min 821 W/m² 14,0 °C 25,2 °C 6,4 km/h (2 Bft)
09.06.2023 11:27 22,1 °C 25,2 °C 57 % 50 % 1015,8 hPa 0,0 l/m² 5,9 km/h (2 Bft) N 9 ° 1 min 823 W/m² 14,0 °C 25,2 °C 9,7 km/h (2 Bft)
09.06.2023 11:28 22,1 °C 25,2 °C 57 % 49 % 1015,7 hPa 0,0 l/m² 8,6 km/h (2 Bft) N-NW 333 ° 1 min 826 W/m² 13,7 °C 24,7 °C 14,5 km/h (3 Bft)
09.06.2023 11:29 22,1 °C 25,2 °C 57 % 50 % 1015,8 hPa 0,0 l/m² 12,8 km/h (3 Bft) N-NW 346 ° 1 min 826 W/m² 14,0 °C 23,9 °C 19,3 km/h (3 Bft)
09.06.2023 11:30 22,1 °C 25,3 °C 57 % 49 % 1015,7 hPa 0,0 l/m² 13,1 km/h (3 Bft) N 5 ° 1 min 828 W/m² 13,8 °C 24,0 °C 17,7 km/h (3 Bft)
09.06.2023 11:31 22,1 °C 25,1 °C 57 % 48 % 1015,7 hPa 0,0 l/m² 11,2 km/h (2 Bft) N 360 ° 1 min 828 W/m² 13,3 °C 24,0 °C 16,1 km/h (3 Bft)
09.06.2023 11:32 22,2 °C 25,1 °C 57 % 51 % 1015,7 hPa 0,0 l/m² 7,6 km/h (2 Bft) NO 44 ° 1 min 831 W/m² 14,2 °C 24,8 °C 14,5 km/h (3 Bft)
09.06.2023 11:33 22,1 °C 25,2 °C 57 % 49 % 1015,8 hPa 0,0 l/m² 5,7 km/h (2 Bft) N-NO 15 ° 1 min 833 W/m² 13,7 °C 25,2 °C 12,9 km/h (3 Bft)
09.06.2023 11:34 22,1 °C 25,2 °C 57 % 49 % 1015,8 hPa 0,0 l/m² 7,9 km/h (2 Bft) N-NO 26 ° 1 min 830 W/m² 13,7 °C 24,8 °C 14,5 km/h (3 Bft)
09.06.2023 11:35 22,1 °C 25,3 °C 57 % 49 % 1015,7 hPa 0,0 l/m² 8,8 km/h (2 Bft) N-NW 340 ° 1 min 830 W/m² 13,8 °C 24,7 °C 16,1 km/h (3 Bft)
09.06.2023 11:36 22,1 °C 25,3 °C 57 % 47 % 1015,8 hPa 0,0 l/m² 8,5 km/h (2 Bft) N 355 ° 1 min 830 W/m² 13,2 °C 24,8 °C 12,9 km/h (3 Bft)
09.06.2023 11:37 22,2 °C 25,3 °C 57 % 48 % 1015,7 hPa 0,0 l/m² 6,7 km/h (2 Bft) NO 35 ° 1 min 831 W/m² 13,5 °C 25,2 °C 12,9 km/h (3 Bft)
09.06.2023 11:38 22,1 °C 25,4 °C 57 % 53 % 1015,8 hPa 0,0 l/m² 5,5 km/h (2 Bft) N-NO 28 ° 1 min 835 W/m² 15,1 °C 25,4 °C 9,7 km/h (2 Bft)
09.06.2023 11:39 22,1 °C 25,6 °C 57 % 53 % 1015,7 hPa 0,0 l/m² 7,0 km/h (2 Bft) N 5 ° 1 min 831 W/m² 15,3 °C 25,5 °C 12,9 km/h (3 Bft)
09.06.2023 11:40 22,1 °C 25,7 °C 57 % 51 % 1015,7 hPa 0,0 l/m² 10,6 km/h (2 Bft) N-NO 28 ° 1 min 831 W/m² 14,8 °C 24,8 °C 16,1 km/h (3 Bft)
09.06.2023 11:41 22,1 °C 25,7 °C 57 % 50 % 1015,7 hPa 0,0 l/m² 11,0 km/h (2 Bft) N-NW 341 ° 1 min 831 W/m² 14,5 °C 24,8 °C 16,1 km/h (3 Bft)
09.06.2023 11:42 22,1 °C 25,7 °C 57 % 49 % 1015,7 hPa 0,0 l/m² 11,9 km/h (2 Bft) N 10 ° 1 min 831 W/m² 14,2 °C 24,6 °C 14,5 km/h (3 Bft)
09.06.2023 11:43 22,2 °C 25,7 °C 57 % 49 % 1015,8 hPa 0,0 l/m² 12,2 km/h (2 Bft) N 351 ° 1 min 833 W/m² 14,2 °C 24,6 °C 16,1 km/h (3 Bft)
09.06.2023 11:44 22,1 °C 25,7 °C 57 % 47 % 1015,7 hPa 0,0 l/m² 14,8 km/h (3 Bft) NW 323 ° 1 min 833 W/m² 13,5 °C 24,2 °C 20,9 km/h (4 Bft)
09.06.2023 11:45 22,2 °C 25,6 °C 57 % 48 % 1015,7 hPa 0,0 l/m² 14,1 km/h (3 Bft) N 10 ° 1 min 823 W/m² 13,8 °C 24,2 °C 19,3 km/h (3 Bft)
09.06.2023 11:46 22,2 °C 25,5 °C 57 % 47 % 1015,8 hPa 0,0 l/m² 12,7 km/h (3 Bft) N-NO 15 ° 1 min 816 W/m² 13,3 °C 24,3 °C 17,7 km/h (3 Bft)
09.06.2023 11:47 22,2 °C 25,6 °C 57 % 48 % 1015,7 hPa 0,0 l/m² 10,1 km/h (2 Bft) NO 38 ° 1 min 816 W/m² 13,8 °C 24,8 °C 14,5 km/h (3 Bft)
09.06.2023 11:48 22,2 °C 25,6 °C 57 % 47 % 1015,7 hPa 0,0 l/m² 12,2 km/h (2 Bft) N-NW 328 ° 1 min 826 W/m² 13,4 °C 24,4 °C 20,9 km/h (4 Bft)
09.06.2023 11:49 22,2 °C 25,6 °C 57 % 47 % 1015,7 hPa 0,0 l/m² 15,1 km/h (3 Bft) N-NW 345 ° 1 min 831 W/m² 13,4 °C 24,0 °C 17,7 km/h (3 Bft)
09.06.2023 11:50 22,2 °C 25,6 °C 57 % 49 % 1015,7 hPa 0,0 l/m² 9,2 km/h (2 Bft) NO 34 ° 1 min 837 W/m² 14,1 °C 25,0 °C 14,5 km/h (3 Bft)
09.06.2023 11:51 22,2 °C 25,7 °C 57 % 49 % 1015,7 hPa 0,0 l/m² 9,5 km/h (2 Bft) NO 44 ° 1 min 844 W/m² 14,2 °C 25,0 °C 16,1 km/h (3 Bft)
09.06.2023 11:52 22,2 °C 25,8 °C 57 % 48 % 1015,7 hPa 0,0 l/m² 3,6 km/h (1 Bft) N-NW 338 ° 1 min 847 W/m² 13,9 °C 25,8 °C 8,0 km/h (2 Bft)
09.06.2023 11:53 22,2 °C 25,9 °C 57 % 48 % 1015,7 hPa 0,0 l/m² 7,6 km/h (2 Bft) N-NW 343 ° 1 min 849 W/m² 14,0 °C 25,6 °C 12,9 km/h (3 Bft)
09.06.2023 11:54 22,2 °C 25,9 °C 57 % 47 % 1015,6 hPa 0,0 l/m² 6,9 km/h (2 Bft) N 5 ° 1 min 853 W/m² 13,7 °C 25,8 °C 11,3 km/h (2 Bft)
09.06.2023 11:55 22,2 °C 25,9 °C 57 % 48 % 1015,6 hPa 0,0 l/m² 11,0 km/h (2 Bft) N-NO 22 ° 1 min 856 W/m² 14,0 °C 25,0 °C 19,3 km/h (3 Bft)
09.06.2023 11:56 22,2 °C 25,9 °C 57 % 47 % 1015,6 hPa 0,0 l/m² 8,9 km/h (2 Bft) N 5 ° 1 min 853 W/m² 13,7 °C 25,4 °C 14,5 km/h (3 Bft)
09.06.2023 11:57 22,2 °C 25,9 °C 57 % 47 % 1015,6 hPa 0,0 l/m² 6,6 km/h (2 Bft) N 11 ° 1 min 854 W/m² 13,7 °C 25,9 °C 8,0 km/h (2 Bft)
09.06.2023 11:58 22,2 °C 26,0 °C 57 % 49 % 1015,6 hPa 0,0 l/m² 8,6 km/h (2 Bft) N-NO 27 ° 1 min 854 W/m² 14,4 °C 25,5 °C 12,9 km/h (3 Bft)
09.06.2023 11:59 22,2 °C 26,1 °C 57 % 48 % 1015,6 hPa 0,0 l/m² 8,5 km/h (2 Bft) N 355 ° 1 min 858 W/m² 14,2 °C 25,7 °C 11,3 km/h (2 Bft)
09.06.2023 12:00 22,2 °C 26,2 °C 57 % 46 % 1015,6 hPa 0,0 l/m² 14,4 km/h (3 Bft) N-NW 347 ° 1 min 860 W/m² 13,6 °C 24,8 °C 22,5 km/h (4 Bft)
09.06.2023 12:01 22,2 °C 26,2 °C 57 % 45 % 1015,5 hPa 0,0 l/m² 16,7 km/h (3 Bft) N 355 ° 1 min 858 W/m² 13,3 °C 24,6 °C 22,5 km/h (4 Bft)
09.06.2023 12:02 22,2 °C 26,1 °C 57 % 45 % 1015,5 hPa 0,0 l/m² 17,0 km/h (3 Bft) N 350 ° 1 min 858 W/m² 13,2 °C 24,4 °C 22,5 km/h (4 Bft)
09.06.2023 12:03 22,2 °C 26,0 °C 57 % 46 % 1015,5 hPa 0,0 l/m² 13,7 km/h (3 Bft) NO 47 ° 1 min 861 W/m² 13,5 °C 24,7 °C 17,7 km/h (3 Bft)
09.06.2023 12:04 22,2 °C 26,1 °C 57 % 47 % 1015,5 hPa 0,0 l/m² 8,2 km/h (2 Bft) N 350 ° 1 min 863 W/m² 13,9 °C 25,7 °C 14,5 km/h (3 Bft)
09.06.2023 12:05 22,2 °C 26,1 °C 57 % 46 % 1015,6 hPa 0,0 l/m² 12,1 km/h (2 Bft) N-NO 18 ° 1 min 863 W/m² 13,6 °C 25,0 °C 16,1 km/h (3 Bft)
09.06.2023 12:06 22,2 °C 26,3 °C 57 % 45 % 1015,6 hPa 0,0 l/m² 9,8 km/h (2 Bft) N 360 ° 1 min 863 W/m² 13,4 °C 25,6 °C 14,5 km/h (3 Bft)
09.06.2023 12:07 22,2 °C 26,2 °C 57 % 44 % 1015,5 hPa 0,0 l/m² 9,4 km/h (2 Bft) NO 50 ° 1 min 861 W/m² 13,0 °C 25,6 °C 16,1 km/h (3 Bft)
09.06.2023 12:08 22,2 °C 26,2 °C 57 % 46 % 1015,5 hPa 0,0 l/m² 14,1 km/h (3 Bft) NO 44 ° 1 min 861 W/m² 13,6 °C 24,9 °C 20,9 km/h (4 Bft)
09.06.2023 12:09 22,2 °C 26,3 °C 57 % 46 % 1015,5 hPa 0,0 l/m² 5,8 km/h (2 Bft) N-NO 30 ° 1 min 863 W/m² 13,7 °C 26,3 °C 9,7 km/h (2 Bft)
09.06.2023 12:10 22,2 °C 26,3 °C 57 % 45 % 1015,5 hPa 0,0 l/m² 8,1 km/h (2 Bft) N-NO 17 ° 1 min 865 W/m² 13,4 °C 25,9 °C 12,9 km/h (3 Bft)
09.06.2023 12:11 22,2 °C 26,3 °C 57 % 45 % 1015,5 hPa 0,0 l/m² 6,4 km/h (2 Bft) N-NO 18 ° 1 min 868 W/m² 13,4 °C 26,3 °C 9,7 km/h (2 Bft)
09.06.2023 12:12 22,2 °C 26,3 °C 57 % 47 % 1015,5 hPa 0,0 l/m² 9,5 km/h (2 Bft) NO 50 ° 1 min 872 W/m² 14,1 °C 25,7 °C 16,1 km/h (3 Bft)
09.06.2023 12:13 22,2 °C 26,5 °C 57 % 46 % 1015,5 hPa 0,0 l/m² 8,0 km/h (2 Bft) N-NO 27 ° 1 min 877 W/m² 13,9 °C 26,2 °C 12,9 km/h (3 Bft)
09.06.2023 12:14 22,2 °C 26,5 °C 57 % 46 % 1015,5 hPa 0,0 l/m² 5,8 km/h (2 Bft) N-NO 21 ° 1 min 884 W/m² 13,9 °C 26,5 °C 9,7 km/h (2 Bft)
09.06.2023 12:15 22,2 °C 26,5 °C 56 % 45 % 1015,5 hPa 0,0 l/m² 11,5 km/h (2 Bft) NO 55 ° 1 min 891 W/m² 13,6 °C 25,6 °C 19,3 km/h (3 Bft)
09.06.2023 12:16 22,2 °C 26,6 °C 56 % 47 % 1015,5 hPa 0,0 l/m² 5,9 km/h (2 Bft) NO 40 ° 1 min 891 W/m² 14,3 °C 26,6 °C 9,7 km/h (2 Bft)
09.06.2023 12:17 22,2 °C 26,7 °C 56 % 45 % 1015,5 hPa 0,0 l/m² 8,9 km/h (2 Bft) N-NO 16 ° 1 min 891 W/m² 13,8 °C 26,2 °C 12,9 km/h (3 Bft)
09.06.2023 12:18 22,2 °C 26,7 °C 57 % 45 % 1015,4 hPa 0,0 l/m² 6,6 km/h (2 Bft) N 11 ° 1 min 891 W/m² 13,8 °C 26,7 °C 12,9 km/h (3 Bft)
09.06.2023 12:19 22,2 °C 26,6 °C 56 % 45 % 1015,5 hPa 0,0 l/m² 10,3 km/h (2 Bft) N 355 ° 1 min 603 W/m² 13,7 °C 25,9 °C 19,3 km/h (3 Bft)
09.06.2023 12:20 22,2 °C 26,5 °C 56 % 46 % 1015,4 hPa 0,0 l/m² 13,7 km/h (3 Bft) N 360 ° 1 min 603 W/m² 13,9 °C 25,3 °C 20,9 km/h (4 Bft)
09.06.2023 12:21 22,2 °C 26,4 °C 56 % 45 % 1015,4 hPa 0,0 l/m² 9,5 km/h (2 Bft) NO 38 ° 1 min 675 W/m² 13,5 °C 25,8 °C 17,7 km/h (3 Bft)
09.06.2023 12:22 22,2 °C 26,4 °C 56 % 47 % 1015,4 hPa 0,0 l/m² 2,5 km/h (1 Bft) N-NW 346 ° 1 min 670 W/m² 14,2 °C 26,4 °C 6,4 km/h (2 Bft)
09.06.2023 12:23 22,2 °C 26,5 °C 56 % 47 % 1015,5 hPa 0,0 l/m² 5,2 km/h (1 Bft) N 355 ° 1 min 610 W/m² 14,3 °C 26,5 °C 8,0 km/h (2 Bft)
09.06.2023 12:24 22,2 °C 26,6 °C 56 % 47 % 1015,4 hPa 0,0 l/m² 10,1 km/h (2 Bft) N-NO 24 ° 1 min 561 W/m² 14,3 °C 25,9 °C 19,3 km/h (3 Bft)
09.06.2023 12:25 22,2 °C 26,6 °C 56 % 44 % 1015,5 hPa 0,0 l/m² 9,7 km/h (2 Bft) NO 34 ° 1 min 580 W/m² 13,3 °C 26,0 °C 19,3 km/h (3 Bft)
09.06.2023 12:26 22,2 °C 26,4 °C 56 % 44 % 1015,5 hPa 0,0 l/m² 13,2 km/h (3 Bft) NO 38 ° 1 min 580 W/m² 13,1 °C 25,2 °C 17,7 km/h (3 Bft)
09.06.2023 12:27 22,2 °C 26,4 °C 56 % 44 % 1015,4 hPa 0,0 l/m² 8,3 km/h (2 Bft) NO 44 ° 1 min 981 W/m² 13,1 °C 26,0 °C 14,5 km/h (3 Bft)
09.06.2023 12:28 22,2 °C 26,4 °C 56 % 46 % 1015,4 hPa 0,0 l/m² 7,7 km/h (2 Bft) N 355 ° 1 min 976 W/m² 13,8 °C 26,1 °C 16,1 km/h (3 Bft)
09.06.2023 12:29 22,2 °C 26,5 °C 56 % 47 % 1015,4 hPa 0,0 l/m² 10,5 km/h (2 Bft) N 5 ° 1 min 967 W/m² 14,3 °C 25,7 °C 16,1 km/h (3 Bft)
09.06.2023 12:30 22,2 °C 26,6 °C 56 % 45 % 1015,4 hPa 0,0 l/m² 12,5 km/h (2 Bft) N 355 ° 1 min 960 W/m² 13,7 °C 25,6 °C 17,7 km/h (3 Bft)
09.06.2023 12:31 22,2 °C 26,7 °C 56 % 44 % 1015,4 hPa 0,0 l/m² 14,3 km/h (3 Bft) N-NO 13 ° 1 min 949 W/m² 13,4 °C 25,4 °C 22,5 km/h (4 Bft)
09.06.2023 12:32 22,2 °C 26,8 °C 56 % 45 % 1015,4 hPa 0,0 l/m² 10,5 km/h (2 Bft) N 5 ° 1 min 949 W/m² 13,9 °C 26,1 °C 17,7 km/h (3 Bft)
09.06.2023 12:33 22,2 °C 26,8 °C 56 % 44 % 1015,4 hPa 0,0 l/m² 7,1 km/h (2 Bft) N-NO 30 ° 1 min 947 W/m² 13,5 °C 26,7 °C 9,7 km/h (2 Bft)
09.06.2023 12:34 22,2 °C 26,9 °C 56 % 45 % 1015,4 hPa 0,0 l/m² 4,8 km/h (1 Bft) NO 44 ° 1 min 947 W/m² 13,9 °C 26,9 °C 6,4 km/h (2 Bft)
09.06.2023 12:35 22,2 °C 27,2 °C 56 % 44 % 1015,4 hPa 0,0 l/m² 10,7 km/h (2 Bft) N-NO 27 ° 1 min 947 W/m² 13,9 °C 26,5 °C 22,5 km/h (4 Bft)
09.06.2023 12:37 22,3 °C 27,2 °C 56 % 43 % 1015,4 hPa 0,0 l/m² 10,2 km/h (2 Bft) N 9 ° 2 min 939 W/m² 13,5 °C 26,6 °C 22,5 km/h (4 Bft)
09.06.2023 12:38 22,3 °C 27,2 °C 56 % 43 % 1015,4 hPa 0,0 l/m² 15,8 km/h (3 Bft) N 355 ° 1 min 937 W/m² 13,5 °C 25,9 °C 22,5 km/h (4 Bft)
09.06.2023 12:39 22,3 °C 27,1 °C 56 % 42 % 1015,4 hPa 0,0 l/m² 15,7 km/h (3 Bft) N 9 ° 1 min 933 W/m² 13,1 °C 25,8 °C 25,7 km/h (4 Bft)
09.06.2023 12:40 22,2 °C 27,0 °C 56 % 44 % 1015,3 hPa 0,0 l/m² 13,4 km/h (3 Bft) N-NO 15 ° 1 min 933 W/m² 13,7 °C 25,9 °C 20,9 km/h (4 Bft)
09.06.2023 12:41 22,2 °C 26,9 °C 56 % 45 % 1015,4 hPa 0,0 l/m² 5,8 km/h (2 Bft) N-NW 344 ° 1 min 932 W/m² 13,9 °C 26,9 °C 11,3 km/h (2 Bft)
09.06.2023 12:42 22,3 °C 27,1 °C 56 % 44 % 1015,4 hPa 0,0 l/m² 9,6 km/h (2 Bft) NW 321 ° 1 min 928 W/m² 13,8 °C 26,5 °C 14,5 km/h (3 Bft)
09.06.2023 12:43 22,3 °C 27,2 °C 56 % 45 % 1015,3 hPa 0,0 l/m² 7,9 km/h (2 Bft) N-NO 27 ° 1 min 926 W/m² 14,2 °C 26,9 °C 16,1 km/h (3 Bft)
09.06.2023 12:44 22,3 °C 27,2 °C 56 % 44 % 1015,3 hPa 0,0 l/m² 15,0 km/h (3 Bft) N 5 ° 1 min 926 W/m² 13,9 °C 26,0 °C 20,9 km/h (4 Bft)
09.06.2023 12:46 22,3 °C 27,0 °C 56 % 43 % 1015,3 hPa 0,0 l/m² 13,7 km/h (3 Bft) N-NW 331 ° 2 min 932 W/m² 13,3 °C 25,9 °C 20,9 km/h (4 Bft)
09.06.2023 12:47 22,2 °C 26,9 °C 56 % 45 % 1015,3 hPa 0,0 l/m² 4,4 km/h (1 Bft) NO 40 ° 1 min 932 W/m² 13,9 °C 26,9 °C 9,7 km/h (2 Bft)
09.06.2023 12:48 22,3 °C 27,2 °C 56 % 48 % 1015,3 hPa 0,0 l/m² 6,6 km/h (2 Bft) NO 42 ° 1 min 932 W/m² 15,2 °C 27,2 °C 14,5 km/h (3 Bft)
09.06.2023 12:49 22,3 °C 27,4 °C 56 % 45 % 1015,2 hPa 0,0 l/m² 10,1 km/h (2 Bft) N 360 ° 1 min 935 W/m² 14,4 °C 26,8 °C 22,5 km/h (4 Bft)
09.06.2023 12:50 22,3 °C 27,4 °C 56 % 44 % 1015,2 hPa 0,0 l/m² 16,4 km/h (3 Bft) N-NO 13 ° 1 min 939 W/m² 14,0 °C 26,1 °C 25,7 km/h (4 Bft)
09.06.2023 12:51 22,3 °C 27,4 °C 56 % 44 % 1015,2 hPa 0,0 l/m² 11,8 km/h (2 Bft) N 355 ° 1 min 937 W/m² 14,0 °C 26,6 °C 20,9 km/h (4 Bft)
09.06.2023 12:52 22,3 °C 27,4 °C 56 % 44 % 1015,3 hPa 0,0 l/m² 13,6 km/h (3 Bft) N 11 ° 1 min 939 W/m² 14,0 °C 26,4 °C 24,1 km/h (4 Bft)
09.06.2023 12:53 22,3 °C 27,4 °C 56 % 42 % 1015,3 hPa 0,0 l/m² 12,8 km/h (3 Bft) N 355 ° 1 min 939 W/m² 13,3 °C 26,5 °C 20,9 km/h (4 Bft)
09.06.2023 12:54 22,3 °C 27,3 °C 56 % 42 % 1015,3 hPa 0,0 l/m² 18,0 km/h (3 Bft) N 5 ° 1 min 940 W/m² 13,2 °C 25,8 °C 25,7 km/h (4 Bft)
09.06.2023 12:55 22,3 °C 27,2 °C 56 % 43 % 1015,3 hPa 0,0 l/m² 13,6 km/h (3 Bft) N-NW 333 ° 1 min 942 W/m² 13,5 °C 26,1 °C 20,9 km/h (4 Bft)
09.06.2023 12:56 22,3 °C 27,2 °C 56 % 43 % 1015,3 hPa 0,0 l/m² 11,7 km/h (2 Bft) N-NW 341 ° 1 min 946 W/m² 13,5 °C 26,4 °C 19,3 km/h (3 Bft)
09.06.2023 12:57 22,3 °C 27,2 °C 56 % 44 % 1015,2 hPa 0,0 l/m² 5,2 km/h (1 Bft) N-NW 348 ° 1 min 940 W/m² 13,9 °C 27,2 °C 12,9 km/h (3 Bft)
09.06.2023 12:58 22,3 °C 27,2 °C 56 % 44 % 1015,2 hPa 0,0 l/m² 14,8 km/h (3 Bft) N-NO 15 ° 1 min 937 W/m² 13,9 °C 26,0 °C 19,3 km/h (3 Bft)
09.06.2023 12:59 22,3 °C 27,2 °C 56 % 41 % 1015,2 hPa 0,0 l/m² 9,0 km/h (2 Bft) N-NO 14 ° 1 min 932 W/m² 12,8 °C 26,7 °C 16,1 km/h (3 Bft)
09.06.2023 13:00 22,3 °C 27,2 °C 56 % 43 % 1015,1 hPa 0,0 l/m² 12,0 km/h (2 Bft) N 11 ° 1 min 923 W/m² 13,5 °C 26,3 °C 17,7 km/h (3 Bft)
09.06.2023 13:01 22,3 °C 27,3 °C 56 % 43 % 1015,2 hPa 0,0 l/m² 17,4 km/h (3 Bft) N 11 ° 1 min 916 W/m² 13,6 °C 25,9 °C 24,1 km/h (4 Bft)
09.06.2023 13:02 22,3 °C 27,3 °C 56 % 42 % 1015,1 hPa 0,0 l/m² 14,8 km/h (3 Bft) NO 55 ° 1 min 912 W/m² 13,2 °C 26,1 °C 22,5 km/h (4 Bft)
09.06.2023 13:03 22,3 °C 27,4 °C 56 % 43 % 1015,1 hPa 0,0 l/m² 12,6 km/h (3 Bft) NO 46 ° 1 min 911 W/m² 13,7 °C 26,5 °C 19,3 km/h (3 Bft)
09.06.2023 13:04 22,3 °C 27,5 °C 56 % 44 % 1015,2 hPa 0,0 l/m² 8,5 km/h (2 Bft) NO 47 ° 1 min 911 W/m² 14,1 °C 27,1 °C 16,1 km/h (3 Bft)
09.06.2023 13:05 22,3 °C 27,7 °C 56 % 43 % 1015,1 hPa 0,0 l/m² 10,7 km/h (2 Bft) O 80 ° 1 min 912 W/m² 14,0 °C 27,1 °C 16,1 km/h (3 Bft)
09.06.2023 13:06 22,3 °C 27,8 °C 56 % 42 % 1015,1 hPa 0,0 l/m² 12,3 km/h (2 Bft) NO 52 ° 1 min 911 W/m² 13,7 °C 27,0 °C 17,7 km/h (3 Bft)
09.06.2023 13:07 22,3 °C 27,9 °C 56 % 42 % 1015,2 hPa 0,0 l/m² 9,0 km/h (2 Bft) O 79 ° 1 min 914 W/m² 13,8 °C 27,5 °C 16,1 km/h (3 Bft)
09.06.2023 13:08 22,3 °C 27,9 °C 56 % 44 % 1015,1 hPa 0,0 l/m² 6,4 km/h (2 Bft) O-NO 67 ° 1 min 914 W/m² 14,5 °C 27,9 °C 9,7 km/h (2 Bft)
09.06.2023 13:09 22,3 °C 27,9 °C 56 % 43 % 1015,2 hPa 0,0 l/m² 14,3 km/h (3 Bft) NO 42 ° 1 min 914 W/m² 14,1 °C 26,9 °C 19,3 km/h (3 Bft)
09.06.2023 13:10 22,3 °C 27,8 °C 56 % 44 % 1015,1 hPa 0,0 l/m² 10,4 km/h (2 Bft) N 355 ° 1 min 919 W/m² 14,4 °C 27,2 °C 17,7 km/h (3 Bft)
09.06.2023 13:11 22,3 °C 27,8 °C 56 % 43 % 1015,1 hPa 0,0 l/m² 6,3 km/h (2 Bft) N 5 ° 1 min 918 W/m² 14,1 °C 27,8 °C 14,5 km/h (3 Bft)
09.06.2023 13:12 22,3 °C 27,8 °C 56 % 42 % 1015,1 hPa 0,0 l/m² 4,8 km/h (1 Bft) N-NW 344 ° 1 min 919 W/m² 13,7 °C 27,8 °C 8,0 km/h (2 Bft)
09.06.2023 13:13 22,3 °C 27,7 °C 56 % 43 % 1015,0 hPa 0,0 l/m² 4,6 km/h (1 Bft) O-NO 58 ° 1 min 911 W/m² 14,0 °C 27,7 °C 9,7 km/h (2 Bft)
09.06.2023 13:14 22,3 °C 27,8 °C 56 % 45 % 1015,1 hPa 0,0 l/m² 9,0 km/h (2 Bft) O-NO 60 ° 1 min 905 W/m² 14,8 °C 27,4 °C 16,1 km/h (3 Bft)
09.06.2023 13:15 22,3 °C 27,9 °C 56 % 43 % 1015,0 hPa 0,0 l/m² 12,3 km/h (2 Bft) N-NO 31 ° 1 min 902 W/m² 14,1 °C 27,1 °C 20,9 km/h (4 Bft)
09.06.2023 13:16 22,3 °C 27,8 °C 56 % 42 % 1015,0 hPa 0,0 l/m² 7,3 km/h (2 Bft) NO 39 ° 1 min 904 W/m² 13,7 °C 27,7 °C 11,3 km/h (2 Bft)
09.06.2023 13:17 22,3 °C 27,8 °C 56 % 43 % 1015,0 hPa 0,0 l/m² 8,2 km/h (2 Bft) N 360 ° 1 min 909 W/m² 14,1 °C 27,5 °C 12,9 km/h (3 Bft)
09.06.2023 13:18 22,3 °C 27,8 °C 56 % 43 % 1015,0 hPa 0,0 l/m² 8,6 km/h (2 Bft) N 355 ° 1 min 905 W/m² 14,1 °C 27,5 °C 16,1 km/h (3 Bft)
09.06.2023 13:19 22,3 °C 27,8 °C 56 % 40 % 1014,9 hPa 0,0 l/m² 6,8 km/h (2 Bft) NO 36 ° 1 min 895 W/m² 12,9 °C 27,7 °C 9,7 km/h (2 Bft)
09.06.2023 13:20 22,3 °C 27,8 °C 56 % 42 % 1014,9 hPa 0,0 l/m² 11,1 km/h (2 Bft) N-NO 30 ° 1 min 886 W/m² 13,7 °C 27,1 °C 17,7 km/h (3 Bft)
09.06.2023 13:21 22,3 °C 27,9 °C 56 % 44 % 1015,0 hPa 0,0 l/m² 6,1 km/h (2 Bft) NO 48 ° 1 min 882 W/m² 14,5 °C 27,9 °C 16,1 km/h (3 Bft)
09.06.2023 13:22 22,3 °C 28,1 °C 56 % 43 % 1015,0 hPa 0,0 l/m² 7,8 km/h (2 Bft) N-NO 33 ° 1 min 868 W/m² 14,3 °C 27,9 °C 14,5 km/h (3 Bft)
09.06.2023 13:23 22,3 °C 28,2 °C 56 % 43 % 1014,9 hPa 0,0 l/m² 13,6 km/h (3 Bft) N 355 ° 1 min 868 W/m² 14,4 °C 27,3 °C 22,5 km/h (4 Bft)
09.06.2023 13:24 22,3 °C 28,1 °C 56 % 40 % 1015,0 hPa 0,0 l/m² 8,7 km/h (2 Bft) N-NO 21 ° 1 min 865 W/m² 13,2 °C 27,8 °C 14,5 km/h (3 Bft)
09.06.2023 13:25 22,3 °C 28,0 °C 56 % 40 % 1014,9 hPa 0,0 l/m² 11,4 km/h (2 Bft) O-NO 63 ° 1 min 872 W/m² 13,1 °C 27,3 °C 22,5 km/h (4 Bft)
09.06.2023 13:26 22,3 °C 27,9 °C 56 % 41 % 1014,9 hPa 0,0 l/m² 7,6 km/h (2 Bft) N 360 ° 1 min 881 W/m² 13,4 °C 27,7 °C 12,9 km/h (3 Bft)
09.06.2023 13:27 22,3 °C 27,8 °C 56 % 42 % 1014,9 hPa 0,0 l/m² 13,4 km/h (3 Bft) N-NW 344 ° 1 min 879 W/m² 13,7 °C 26,9 °C 19,3 km/h (3 Bft)
09.06.2023 13:28 22,3 °C 27,9 °C 56 % 40 % 1014,9 hPa 0,0 l/m² 10,4 km/h (2 Bft) N-NO 28 ° 1 min 879 W/m² 13,0 °C 27,3 °C 14,5 km/h (3 Bft)
09.06.2023 13:29 22,3 °C 27,9 °C 56 % 41 % 1014,9 hPa 0,0 l/m² 4,8 km/h (1 Bft) NO 46 ° 1 min 872 W/m² 13,4 °C 27,9 °C 9,7 km/h (2 Bft)
09.06.2023 13:30 22,3 °C 27,8 °C 56 % 42 % 1014,9 hPa 0,0 l/m² 10,6 km/h (2 Bft) NO 49 ° 1 min 896 W/m² 13,7 °C 27,2 °C 19,3 km/h (3 Bft)
09.06.2023 13:32 22,3 °C 27,9 °C 56 % 42 % 1014,9 hPa 0,0 l/m² 7,9 km/h (2 Bft) N 5 ° 2 min 911 W/m² 13,8 °C 27,7 °C 16,1 km/h (3 Bft)
09.06.2023 13:33 22,3 °C 27,9 °C 56 % 41 % 1014,9 hPa 0,0 l/m² 3,1 km/h (1 Bft) NO 55 ° 1 min 919 W/m² 13,4 °C 27,9 °C 6,4 km/h (2 Bft)
09.06.2023 13:34 22,3 °C 28,0 °C 56 % 42 % 1014,9 hPa 0,0 l/m² 4,4 km/h (1 Bft) O-NO 65 ° 1 min 932 W/m² 13,9 °C 28,0 °C 6,4 km/h (2 Bft)
09.06.2023 13:35 22,3 °C 28,2 °C 56 % 42 % 1014,8 hPa 0,0 l/m² 8,9 km/h (2 Bft) O 84 ° 1 min 939 W/m² 14,0 °C 27,8 °C 14,5 km/h (3 Bft)
09.06.2023 13:36 22,3 °C 28,2 °C 56 % 40 % 1014,9 hPa 0,0 l/m² 10,3 km/h (2 Bft) NO 51 ° 1 min 947 W/m² 13,3 °C 27,7 °C 16,1 km/h (3 Bft)
09.06.2023 13:37 22,3 °C 28,3 °C 56 % 43 % 1014,8 hPa 0,0 l/m² 11,0 km/h (2 Bft) O 82 ° 1 min 940 W/m² 14,5 °C 27,7 °C 20,9 km/h (4 Bft)
09.06.2023 13:38 22,3 °C 28,5 °C 56 % 44 % 1014,8 hPa 0,0 l/m² 14,8 km/h (3 Bft) O 88 ° 1 min 939 W/m² 15,0 °C 27,6 °C 19,3 km/h (3 Bft)
09.06.2023 13:39 22,3 °C 28,6 °C 56 % 43 % 1014,8 hPa 0,0 l/m² 15,2 km/h (3 Bft) O 88 ° 1 min 940 W/m² 14,8 °C 27,7 °C 17,7 km/h (3 Bft)
09.06.2023 13:40 22,3 °C 28,6 °C 56 % 44 % 1014,7 hPa 0,0 l/m² 10,7 km/h (2 Bft) O 98 ° 1 min 935 W/m² 15,1 °C 28,1 °C 16,1 km/h (3 Bft)
09.06.2023 13:41 22,3 °C 28,7 °C 56 % 43 % 1014,7 hPa 0,0 l/m² 9,5 km/h (2 Bft) O 85 ° 1 min 912 W/m² 14,9 °C 28,3 °C 17,7 km/h (3 Bft)
09.06.2023 13:42 22,3 °C 28,8 °C 56 % 44 % 1014,7 hPa 0,0 l/m² 12,5 km/h (2 Bft) NO 42 ° 1 min 902 W/m² 15,3 °C 28,1 °C 19,3 km/h (3 Bft)
09.06.2023 13:43 22,3 °C 28,8 °C 56 % 40 % 1014,7 hPa 0,0 l/m² 13,2 km/h (3 Bft) N-NO 23 ° 1 min 918 W/m² 13,8 °C 28,1 °C 17,7 km/h (3 Bft)
09.06.2023 13:44 22,3 °C 28,7 °C 56 % 40 % 1014,7 hPa 0,0 l/m² 9,7 km/h (2 Bft) NO 47 ° 1 min 918 W/m² 13,7 °C 28,3 °C 16,1 km/h (3 Bft)
09.06.2023 13:45 22,3 °C 28,6 °C 56 % 41 % 1014,7 hPa 0,0 l/m² 5,4 km/h (2 Bft) NO 41 ° 1 min 912 W/m² 14,0 °C 28,6 °C 8,0 km/h (2 Bft)
09.06.2023 13:46 22,3 °C 28,6 °C 56 % 40 % 1014,6 hPa 0,0 l/m² 9,7 km/h (2 Bft) O-NO 77 ° 1 min 904 W/m² 13,7 °C 28,2 °C 14,5 km/h (3 Bft)
09.06.2023 13:47 22,3 °C 28,7 °C 56 % 43 % 1014,6 hPa 0,0 l/m² 12,6 km/h (3 Bft) O 88 ° 1 min 896 W/m² 14,9 °C 28,0 °C 14,5 km/h (3 Bft)
09.06.2023 13:48 22,3 °C 28,6 °C 56 % 39 % 1014,6 hPa 0,0 l/m² 10,3 km/h (2 Bft) O 101 ° 1 min 896 W/m² 13,3 °C 28,1 °C 14,5 km/h (3 Bft)
09.06.2023 13:49 22,4 °C 28,6 °C 56 % 42 % 1014,6 hPa 0,0 l/m² 11,9 km/h (2 Bft) O-NO 78 ° 1 min 896 W/m² 14,4 °C 27,9 °C 16,1 km/h (3 Bft)
09.06.2023 13:50 22,4 °C 28,4 °C 56 % 39 % 1014,5 hPa 0,0 l/m² 11,6 km/h (2 Bft) O 89 ° 1 min 896 W/m² 13,1 °C 27,7 °C 14,5 km/h (3 Bft)
09.06.2023 13:51 22,4 °C 28,6 °C 56 % 40 % 1014,6 hPa 0,0 l/m² 9,9 km/h (2 Bft) NO 53 ° 1 min 902 W/m² 13,7 °C 28,2 °C 14,5 km/h (3 Bft)
09.06.2023 13:52 22,4 °C 28,6 °C 56 % 41 % 1014,6 hPa 0,0 l/m² 7,6 km/h (2 Bft) N-NO 13 ° 1 min 900 W/m² 14,0 °C 28,4 °C 11,3 km/h (2 Bft)
09.06.2023 13:53 22,3 °C 28,6 °C 56 % 39 % 1014,6 hPa 0,0 l/m² 2,0 km/h (1 Bft) N-NO 24 ° 1 min 905 W/m² 13,3 °C 28,6 °C 3,2 km/h (1 Bft)
09.06.2023 13:54 22,4 °C 28,5 °C 56 % 38 % 1014,6 hPa 0,0 l/m² 5,0 km/h (1 Bft) N 5 ° 1 min 905 W/m² 12,8 °C 28,5 °C 8,0 km/h (2 Bft)
09.06.2023 13:55 22,4 °C 28,4 °C 56 % 39 % 1014,5 hPa 0,0 l/m² 4,0 km/h (1 Bft) N-NO 19 ° 1 min 904 W/m² 13,1 °C 28,4 °C 8,0 km/h (2 Bft)
09.06.2023 13:56 22,4 °C 28,4 °C 56 % 40 % 1014,6 hPa 0,0 l/m² 2,2 km/h (1 Bft) O 81 ° 1 min 902 W/m² 13,5 °C 28,4 °C 4,8 km/h (1 Bft)
09.06.2023 13:57 22,4 °C 28,6 °C 56 % 41 % 1014,6 hPa 0,0 l/m² 5,2 km/h (1 Bft) O 97 ° 1 min 904 W/m² 14,0 °C 28,6 °C 9,7 km/h (2 Bft)
09.06.2023 13:58 22,3 °C 28,4 °C 56 % 38 % 1014,6 hPa 0,0 l/m² 10,2 km/h (2 Bft) O 83 ° 1 min 905 W/m² 12,7 °C 27,9 °C 16,1 km/h (3 Bft)
09.06.2023 13:59 22,4 °C 28,6 °C 56 % 39 % 1014,6 hPa 0,0 l/m² 8,5 km/h (2 Bft) O 81 ° 1 min 909 W/m² 13,3 °C 28,3 °C 14,5 km/h (3 Bft)
09.06.2023 14:00 22,4 °C 28,6 °C 56 % 40 % 1014,5 hPa 0,0 l/m² 10,6 km/h (2 Bft) O 94 ° 1 min 909 W/m² 13,7 °C 28,1 °C 14,5 km/h (3 Bft)
09.06.2023 14:01 22,4 °C 28,8 °C 56 % 40 % 1014,6 hPa 0,0 l/m² 9,0 km/h (2 Bft) O-NO 75 ° 1 min 907 W/m² 13,8 °C 28,5 °C 16,1 km/h (3 Bft)
09.06.2023 14:02 22,4 °C 28,8 °C 56 % 39 % 1014,5 hPa 0,0 l/m² 7,6 km/h (2 Bft) N-NO 21 ° 1 min 904 W/m² 13,4 °C 28,6 °C 16,1 km/h (3 Bft)
09.06.2023 14:03 22,4 °C 28,8 °C 56 % 40 % 1014,5 hPa 0,0 l/m² 4,7 km/h (1 Bft) NO 41 ° 1 min 905 W/m² 13,8 °C 28,8 °C 14,5 km/h (3 Bft)
09.06.2023 14:04 22,4 °C 28,7 °C 56 % 38 % 1014,5 hPa 0,0 l/m² 9,3 km/h (2 Bft) N-NO 26 ° 1 min 911 W/m² 13,0 °C 28,3 °C 14,5 km/h (3 Bft)
09.06.2023 14:05 22,4 °C 28,7 °C 56 % 41 % 1014,4 hPa 0,0 l/m² 3,6 km/h (1 Bft) O-NO 65 ° 1 min 911 W/m² 14,1 °C 28,7 °C 8,0 km/h (2 Bft)
09.06.2023 14:06 22,4 °C 28,6 °C 56 % 40 % 1014,4 hPa 0,0 l/m² 4,1 km/h (1 Bft) O 82 ° 1 min 905 W/m² 13,7 °C 28,6 °C 4,8 km/h (1 Bft)
09.06.2023 14:07 22,4 °C 28,5 °C 56 % 38 % 1014,4 hPa 0,0 l/m² 4,1 km/h (1 Bft) N-NW 334 ° 1 min 905 W/m² 12,8 °C 28,5 °C 6,4 km/h (2 Bft)
09.06.2023 14:08 22,4 °C 28,4 °C 56 % 41 % 1014,5 hPa 0,0 l/m² 6,0 km/h (2 Bft) N 350 ° 1 min 902 W/m² 13,9 °C 28,4 °C 8,0 km/h (2 Bft)
09.06.2023 14:09 22,4 °C 28,4 °C 56 % 42 % 1014,5 hPa 0,0 l/m² 7,8 km/h (2 Bft) NO 56 ° 1 min 898 W/m² 14,2 °C 28,2 °C 12,9 km/h (3 Bft)
09.06.2023 14:10 22,4 °C 28,6 °C 56 % 41 % 1014,5 hPa 0,0 l/m² 10,2 km/h (2 Bft) O 86 ° 1 min 896 W/m² 14,0 °C 28,1 °C 14,5 km/h (3 Bft)
09.06.2023 14:11 22,4 °C 28,8 °C 56 % 39 % 1014,5 hPa 0,0 l/m² 13,3 km/h (3 Bft) O 91 ° 1 min 898 W/m² 13,4 °C 28,0 °C 17,7 km/h (3 Bft)
09.06.2023 14:12 22,4 °C 28,7 °C 56 % 38 % 1014,4 hPa 0,0 l/m² 9,9 km/h (2 Bft) O 79 ° 1 min 896 W/m² 13,0 °C 28,3 °C 14,5 km/h (3 Bft)
09.06.2023 14:13 22,4 °C 28,7 °C 56 % 40 % 1014,4 hPa 0,0 l/m² 5,0 km/h (1 Bft) O-NO 65 ° 1 min 896 W/m² 13,7 °C 28,7 °C 8,0 km/h (2 Bft)
09.06.2023 14:14 22,4 °C 28,6 °C 56 % 39 % 1014,4 hPa 0,0 l/m² 10,3 km/h (2 Bft) NO 42 ° 1 min 896 W/m² 13,3 °C 28,1 °C 12,9 km/h (3 Bft)
09.06.2023 14:15 22,4 °C 28,7 °C 56 % 40 % 1014,4 hPa 0,0 l/m² 10,2 km/h (2 Bft) O-NO 62 ° 1 min 896 W/m² 13,7 °C 28,2 °C 17,7 km/h (3 Bft)
09.06.2023 14:16 22,4 °C 28,7 °C 56 % 37 % 1014,4 hPa 0,0 l/m² 11,8 km/h (2 Bft) NO 37 ° 1 min 896 W/m² 12,5 °C 28,1 °C 19,3 km/h (3 Bft)
09.06.2023 14:17 22,4 °C 28,8 °C 56 % 38 % 1014,4 hPa 0,0 l/m² 8,8 km/h (2 Bft) NO 44 ° 1 min 907 W/m² 13,0 °C 28,5 °C 14,5 km/h (3 Bft)
09.06.2023 14:18 22,4 °C 28,8 °C 56 % 37 % 1014,5 hPa 0,0 l/m² 5,7 km/h (2 Bft) O-NO 70 ° 1 min 907 W/m² 12,6 °C 28,8 °C 11,3 km/h (2 Bft)
09.06.2023 14:19 22,4 °C 28,8 °C 56 % 38 % 1014,4 hPa 0,0 l/m² 13,4 km/h (3 Bft) O-SO 102 ° 1 min 905 W/m² 13,0 °C 28,0 °C 19,3 km/h (3 Bft)
09.06.2023 14:20 22,4 °C 28,8 °C 56 % 39 % 1014,4 hPa 0,0 l/m² 16,6 km/h (3 Bft) O-SO 109 ° 1 min 909 W/m² 13,4 °C 27,8 °C 20,9 km/h (4 Bft)
09.06.2023 14:21 22,4 °C 28,8 °C 56 % 38 % 1014,3 hPa 0,0 l/m² 12,1 km/h (2 Bft) O 89 ° 1 min 911 W/m² 13,0 °C 28,2 °C 16,1 km/h (3 Bft)
09.06.2023 14:22 22,4 °C 28,8 °C 56 % 41 % 1014,4 hPa 0,0 l/m² 12,4 km/h (2 Bft) O 81 ° 1 min 916 W/m² 14,2 °C 28,1 °C 19,3 km/h (3 Bft)
09.06.2023 14:23 22,4 °C 28,8 °C 56 % 38 % 1014,3 hPa 0,0 l/m² 11,7 km/h (2 Bft) NO 53 ° 1 min 907 W/m² 13,0 °C 28,2 °C 19,3 km/h (3 Bft)
09.06.2023 14:24 22,4 °C 28,8 °C 56 % 38 % 1014,4 hPa 0,0 l/m² 11,3 km/h (2 Bft) O 85 ° 1 min 907 W/m² 13,0 °C 28,2 °C 16,1 km/h (3 Bft)
09.06.2023 14:25 22,4 °C 28,7 °C 56 % 39 % 1014,3 hPa 0,0 l/m² 10,5 km/h (2 Bft) O 82 ° 1 min 914 W/m² 13,4 °C 28,2 °C 16,1 km/h (3 Bft)
09.06.2023 14:26 22,4 °C 28,7 °C 56 % 41 % 1014,3 hPa 0,0 l/m² 6,8 km/h (2 Bft) O 86 ° 1 min 919 W/m² 14,1 °C 28,6 °C 11,3 km/h (2 Bft)
09.06.2023 14:27 22,4 °C 28,9 °C 56 % 39 % 1014,4 hPa 0,0 l/m² 11,5 km/h (2 Bft) O-NO 64 ° 1 min 923 W/m² 13,5 °C 28,3 °C 16,1 km/h (3 Bft)
09.06.2023 14:28 22,4 °C 28,8 °C 56 % 38 % 1014,4 hPa 0,0 l/m² 4,8 km/h (1 Bft) N-NO 31 ° 1 min 928 W/m² 13,0 °C 28,8 °C 6,4 km/h (2 Bft)
09.06.2023 14:29 22,4 °C 28,7 °C 56 % 38 % 1014,4 hPa 0,0 l/m² 2,1 km/h (1 Bft) N 355 ° 1 min 926 W/m² 13,0 °C 28,7 °C 6,4 km/h (2 Bft)
09.06.2023 14:30 22,4 °C 28,7 °C 56 % 39 % 1014,4 hPa 0,0 l/m² 2,6 km/h (1 Bft) O-SO 122 ° 1 min 919 W/m² 13,4 °C 28,7 °C 6,4 km/h (2 Bft)
09.06.2023 14:31 22,4 °C 28,7 °C 56 % 39 % 1014,3 hPa 0,0 l/m² 3,4 km/h (1 Bft) O-SO 115 ° 1 min 902 W/m² 13,4 °C 28,7 °C 6,4 km/h (2 Bft)
09.06.2023 14:32 22,4 °C 28,7 °C 56 % 40 % 1014,2 hPa 0,0 l/m² 8,7 km/h (2 Bft) O-SO 115 ° 1 min 900 W/m² 13,7 °C 28,4 °C 12,9 km/h (3 Bft)
09.06.2023 14:33 22,4 °C 28,6 °C 56 % 40 % 1014,3 hPa 0,0 l/m² 4,1 km/h (1 Bft) O-SO 105 ° 1 min 902 W/m² 13,7 °C 28,6 °C 6,4 km/h (2 Bft)
09.06.2023 14:34 22,4 °C 28,6 °C 56 % 37 % 1014,3 hPa 0,0 l/m² 2,6 km/h (1 Bft) O-NO 77 ° 1 min 916 W/m² 12,5 °C 28,6 °C 4,8 km/h (1 Bft)
09.06.2023 14:35 22,4 °C 28,6 °C 56 % 42 % 1014,3 hPa 0,0 l/m² 5,4 km/h (2 Bft) O-NO 72 ° 1 min 914 W/m² 14,4 °C 28,6 °C 9,7 km/h (2 Bft)
09.06.2023 14:36 22,4 °C 28,7 °C 56 % 40 % 1014,2 hPa 0,0 l/m² 1,7 km/h (1 Bft) O 84 ° 1 min 909 W/m² 13,7 °C 28,7 °C 4,8 km/h (1 Bft)
09.06.2023 14:37 22,4 °C 28,8 °C 56 % 42 % 1014,3 hPa 0,0 l/m² 4,0 km/h (1 Bft) NO 46 ° 1 min 905 W/m² 14,6 °C 28,8 °C 8,0 km/h (2 Bft)
09.06.2023 14:38 22,4 °C 28,9 °C 56 % 41 % 1014,3 hPa 0,0 l/m² 2,8 km/h (1 Bft) NO 55 ° 1 min 842 W/m² 14,3 °C 28,9 °C 6,4 km/h (2 Bft)
09.06.2023 14:39 22,4 °C 29,0 °C 56 % 41 % 1014,2 hPa 0,0 l/m² 4,9 km/h (1 Bft) O 80 ° 1 min 891 W/m² 14,4 °C 29,0 °C 9,7 km/h (2 Bft)
09.06.2023 14:40 22,4 °C 28,9 °C 56 % 40 % 1014,3 hPa 0,0 l/m² 9,1 km/h (2 Bft) O-SO 120 ° 1 min 891 W/m² 13,9 °C 28,6 °C 12,9 km/h (3 Bft)
09.06.2023 14:41 22,4 °C 28,8 °C 56 % 41 % 1014,3 hPa 0,0 l/m² 5,7 km/h (2 Bft) O 98 ° 1 min 875 W/m² 14,2 °C 28,8 °C 9,7 km/h (2 Bft)
09.06.2023 14:42 22,4 °C 28,9 °C 56 % 41 % 1014,2 hPa 0,0 l/m² 6,7 km/h (2 Bft) O 82 ° 1 min 875 W/m² 14,3 °C 28,9 °C 11,3 km/h (2 Bft)
09.06.2023 14:43 22,4 °C 29,1 °C 56 % 42 % 1014,2 hPa 0,0 l/m² 8,6 km/h (2 Bft) O 84 ° 1 min 875 W/m² 14,9 °C 28,8 °C 12,9 km/h (3 Bft)
09.06.2023 14:44 22,4 °C 28,8 °C 57 % 40 % 1014,3 hPa 0,0 l/m² 2,4 km/h (1 Bft) O-NO 58 ° 1 min 875 W/m² 13,8 °C 28,8 °C 6,4 km/h (2 Bft)
09.06.2023 14:45 22,4 °C 28,6 °C 57 % 39 % 1014,2 hPa 0,0 l/m² 5,2 km/h (1 Bft) O 98 ° 1 min 229 W/m² 13,3 °C 28,6 °C 12,9 km/h (3 Bft)
09.06.2023 14:46 22,5 °C 28,3 °C 57 % 40 % 1014,3 hPa 0,0 l/m² 9,5 km/h (2 Bft) O 96 ° 1 min 229 W/m² 13,4 °C 27,9 °C 12,9 km/h (3 Bft)
09.06.2023 14:47 22,4 °C 28,1 °C 57 % 43 % 1014,3 hPa 0,0 l/m² 6,7 km/h (2 Bft) O 86 ° 1 min 258 W/m² 14,3 °C 28,1 °C 11,3 km/h (2 Bft)
09.06.2023 14:48 22,5 °C 27,9 °C 57 % 43 % 1014,2 hPa 0,0 l/m² 6,0 km/h (2 Bft) O 90 ° 1 min 288 W/m² 14,1 °C 27,9 °C 11,3 km/h (2 Bft)
09.06.2023 14:49 22,5 °C 27,8 °C 57 % 42 % 1014,3 hPa 0,0 l/m² 8,7 km/h (2 Bft) O-SO 109 ° 1 min 306 W/m² 13,7 °C 27,4 °C 11,3 km/h (2 Bft)
09.06.2023 14:50 22,5 °C 27,8 °C 57 % 42 % 1014,3 hPa 0,0 l/m² 8,6 km/h (2 Bft) O 92 ° 1 min 306 W/m² 13,7 °C 27,5 °C 14,5 km/h (3 Bft)
09.06.2023 14:51 22,5 °C 27,8 °C 57 % 39 % 1014,3 hPa 0,0 l/m² 3,7 km/h (1 Bft) O-SO 121 ° 1 min 823 W/m² 12,6 °C 27,8 °C 6,4 km/h (2 Bft)
09.06.2023 14:52 22,5 °C 27,9 °C 57 % 42 % 1014,3 hPa 0,0 l/m² 4,4 km/h (1 Bft) SO 127 ° 1 min 944 W/m² 13,8 °C 27,9 °C 6,4 km/h (2 Bft)
09.06.2023 14:53 22,5 °C 28,0 °C 57 % 41 % 1014,2 hPa 0,0 l/m² 1,4 km/h (1 Bft) O-NO 78 ° 1 min 954 W/m² 13,5 °C 28,0 °C 4,8 km/h (1 Bft)
09.06.2023 14:54 22,5 °C 28,2 °C 57 % 42 % 1014,3 hPa 0,0 l/m² 7,8 km/h (2 Bft) O-SO 111 ° 1 min 953 W/m² 14,0 °C 28,0 °C 12,9 km/h (3 Bft)
09.06.2023 14:55 22,6 °C 28,4 °C 57 % 41 % 1014,2 hPa 0,0 l/m² 8,0 km/h (2 Bft) O-NO 78 ° 1 min 954 W/m² 13,9 °C 28,2 °C 14,5 km/h (3 Bft)
09.06.2023 14:56 22,6 °C 28,7 °C 57 % 41 % 1014,1 hPa 0,0 l/m² 10,7 km/h (2 Bft) O-NO 69 ° 1 min 914 W/m² 14,1 °C 28,2 °C 16,1 km/h (3 Bft)
09.06.2023 14:57 22,6 °C 28,8 °C 57 % 42 % 1014,2 hPa 0,0 l/m² 9,8 km/h (2 Bft) NO 40 ° 1 min 919 W/m² 14,6 °C 28,4 °C 22,5 km/h (4 Bft)
09.06.2023 14:58 22,6 °C 29,1 °C 57 % 43 % 1014,2 hPa 0,0 l/m² 8,9 km/h (2 Bft) NO 36 ° 1 min 907 W/m² 15,2 °C 28,8 °C 16,1 km/h (3 Bft)
09.06.2023 14:59 22,6 °C 29,2 °C 57 % 42 % 1014,2 hPa 0,0 l/m² 4,8 km/h (1 Bft) N 5 ° 1 min 211 W/m² 14,9 °C 29,2 °C 11,3 km/h (2 Bft)
09.06.2023 15:00 22,6 °C 29,2 °C 57 % 42 % 1014,3 hPa 0,0 l/m² 2,1 km/h (1 Bft) NO 40 ° 1 min 193 W/m² 14,9 °C 29,2 °C 4,8 km/h (1 Bft)
09.06.2023 15:01 22,6 °C 28,8 °C 57 % 39 % 1014,3 hPa 0,0 l/m² 4,1 km/h (1 Bft) O-NO 76 ° 1 min 181 W/m² 13,4 °C 28,8 °C 6,4 km/h (2 Bft)
09.06.2023 15:02 22,6 °C 28,5 °C 57 % 40 % 1014,3 hPa 0,0 l/m² 4,8 km/h (1 Bft) O 93 ° 1 min 171 W/m² 13,6 °C 28,5 °C 6,4 km/h (2 Bft)
09.06.2023 15:03 22,6 °C 28,1 °C 57 % 39 % 1014,2 hPa 0,0 l/m² 0,7 km/h (0 Bft) O 93 ° 1 min 163 W/m² 12,8 °C 28,1 °C 3,2 km/h (1 Bft)
09.06.2023 15:04 22,6 °C 27,8 °C 57 % 40 % 1014,2 hPa 0,0 l/m² 1,4 km/h (1 Bft) NO 55 ° 1 min 158 W/m² 12,9 °C 27,8 °C 4,8 km/h (1 Bft)
09.06.2023 15:05 22,6 °C 27,5 °C 57 % 42 % 1014,3 hPa 0,0 l/m² 6,6 km/h (2 Bft) O 97 ° 1 min 155 W/m² 13,4 °C 27,5 °C 11,3 km/h (2 Bft)
09.06.2023 15:06 22,6 °C 27,3 °C 57 % 43 % 1014,2 hPa 0,0 l/m² 8,5 km/h (2 Bft) N 5 ° 1 min 149 W/m² 13,6 °C 26,9 °C 16,1 km/h (3 Bft)
09.06.2023 15:07 22,6 °C 27,2 °C 57 % 42 % 1014,2 hPa 0,0 l/m² 7,1 km/h (2 Bft) N-NO 32 ° 1 min 146 W/m² 13,2 °C 27,1 °C 11,3 km/h (2 Bft)
09.06.2023 15:08 22,6 °C 27,2 °C 57 % 41 % 1014,3 hPa 0,0 l/m² 5,3 km/h (1 Bft) N 5 ° 1 min 151 W/m² 12,8 °C 27,2 °C 11,3 km/h (2 Bft)
09.06.2023 15:09 22,6 °C 27,2 °C 57 % 42 % 1014,2 hPa 0,0 l/m² 4,7 km/h (1 Bft) NO 50 ° 1 min 160 W/m² 13,2 °C 27,2 °C 8,0 km/h (2 Bft)
09.06.2023 15:10 22,6 °C 27,2 °C 57 % 41 % 1014,2 hPa 0,0 l/m² 4,1 km/h (1 Bft) N 9 ° 1 min 796 W/m² 12,8 °C 27,2 °C 11,3 km/h (2 Bft)
09.06.2023 15:11 22,6 °C 27,4 °C 57 % 42 % 1014,2 hPa 0,0 l/m² 7,9 km/h (2 Bft) N-NO 26 ° 1 min 791 W/m² 13,3 °C 27,1 °C 11,3 km/h (2 Bft)
09.06.2023 15:12 22,6 °C 27,7 °C 57 % 44 % 1014,2 hPa 0,0 l/m² 5,7 km/h (2 Bft) NO 34 ° 1 min 800 W/m² 14,3 °C 27,7 °C 11,3 km/h (2 Bft)
09.06.2023 15:13 22,6 °C 28,0 °C 57 % 42 % 1014,2 hPa 0,0 l/m² 5,0 km/h (1 Bft) N-NW 332 ° 1 min 803 W/m² 13,9 °C 28,0 °C 9,7 km/h (2 Bft)
09.06.2023 15:14 22,6 °C 28,2 °C 57 % 40 % 1014,2 hPa 0,0 l/m² 3,0 km/h (1 Bft) N-NW 339 ° 1 min 803 W/m² 13,3 °C 28,2 °C 4,8 km/h (1 Bft)
09.06.2023 15:15 22,6 °C 28,3 °C 57 % 39 % 1014,2 hPa 0,0 l/m² 5,2 km/h (1 Bft) N-NW 330 ° 1 min 810 W/m² 13,0 °C 28,3 °C 8,0 km/h (2 Bft)
09.06.2023 15:16 22,6 °C 28,3 °C 57 % 39 % 1014,2 hPa 0,0 l/m² 5,8 km/h (2 Bft) N-NO 13 ° 1 min 805 W/m² 13,0 °C 28,3 °C 9,7 km/h (2 Bft)
09.06.2023 15:17 22,6 °C 28,2 °C 57 % 40 % 1014,1 hPa 0,0 l/m² 2,6 km/h (1 Bft) W 281 ° 1 min 809 W/m² 13,3 °C 28,2 °C 6,4 km/h (2 Bft)
09.06.2023 15:18 22,6 °C 28,1 °C 57 % 39 % 1014,1 hPa 0,0 l/m² 1,0 km/h (0 Bft) NW 309 ° 1 min 807 W/m² 12,8 °C 28,1 °C 3,2 km/h (1 Bft)
09.06.2023 15:19 22,6 °C 28,1 °C 57 % 44 % 1014,1 hPa 0,0 l/m² 2,3 km/h (1 Bft) N-NO 19 ° 1 min 805 W/m² 14,7 °C 28,1 °C 4,8 km/h (1 Bft)
09.06.2023 15:20 22,6 °C 28,2 °C 57 % 39 % 1014,1 hPa 0,0 l/m² 3,2 km/h (1 Bft) N-NO 15 ° 1 min 809 W/m² 12,9 °C 28,2 °C 8,0 km/h (2 Bft)
09.06.2023 15:21 22,6 °C 28,2 °C 57 % 38 % 1014,1 hPa 0,0 l/m² 3,4 km/h (1 Bft) N-NO 19 ° 1 min 816 W/m² 12,5 °C 28,2 °C 9,7 km/h (2 Bft)
09.06.2023 15:22 22,6 °C 28,2 °C 57 % 40 % 1014,1 hPa 0,0 l/m² 4,1 km/h (1 Bft) O-NO 71 ° 1 min 809 W/m² 13,3 °C 28,2 °C 12,9 km/h (3 Bft)
09.06.2023 15:23 22,6 °C 28,5 °C 57 % 42 % 1014,1 hPa 0,0 l/m² 7,2 km/h (2 Bft) O 84 ° 1 min 807 W/m² 14,3 °C 28,4 °C 11,3 km/h (2 Bft)
09.06.2023 15:24 22,6 °C 28,7 °C 57 % 43 % 1014,1 hPa 0,0 l/m² 5,0 km/h (1 Bft) O 98 ° 1 min 807 W/m² 14,9 °C 28,7 °C 6,4 km/h (2 Bft)
09.06.2023 15:25 22,6 °C 28,7 °C 57 % 37 % 1014,1 hPa 0,0 l/m² 0,2 km/h (0 Bft) O 98 ° 1 min 819 W/m² 12,5 °C 28,7 °C 1,6 km/h (1 Bft)
09.06.2023 15:26 22,6 °C 28,7 °C 57 % 40 % 1014,0 hPa 0,0 l/m² 6,1 km/h (2 Bft) N-NW 328 ° 1 min 826 W/m² 13,7 °C 28,7 °C 12,9 km/h (3 Bft)
09.06.2023 15:27 22,6 °C 28,7 °C 57 % 39 % 1013,9 hPa 0,0 l/m² 3,4 km/h (1 Bft) O 93 ° 1 min 823 W/m² 13,4 °C 28,7 °C 6,4 km/h (2 Bft)
09.06.2023 15:28 22,6 °C 28,8 °C 57 % 40 % 1013,9 hPa 0,0 l/m² 7,4 km/h (2 Bft) NO 44 ° 1 min 826 W/m² 13,8 °C 28,7 °C 11,3 km/h (2 Bft)
09.06.2023 15:29 22,6 °C 28,9 °C 57 % 43 % 1014,1 hPa 0,0 l/m² 7,3 km/h (2 Bft) O-NO 63 ° 1 min 840 W/m² 15,0 °C 28,8 °C 9,7 km/h (2 Bft)
09.06.2023 15:30 22,6 °C 29,0 °C 57 % 38 % 1014,0 hPa 0,0 l/m² 8,0 km/h (2 Bft) O 85 ° 1 min 849 W/m² 13,2 °C 28,8 °C 14,5 km/h (3 Bft)
09.06.2023 15:31 22,6 °C 29,1 °C 57 % 41 % 1014,0 hPa 0,0 l/m² 8,5 km/h (2 Bft) O-NO 75 ° 1 min 849 W/m² 14,5 °C 28,8 °C 14,5 km/h (3 Bft)
09.06.2023 15:32 22,6 °C 29,2 °C 57 % 39 % 1014,0 hPa 0,0 l/m² 9,2 km/h (2 Bft) NO 44 ° 1 min 853 W/m² 13,8 °C 28,9 °C 17,7 km/h (3 Bft)
09.06.2023 15:33 22,6 °C 29,2 °C 57 % 41 % 1014,0 hPa 0,0 l/m² 5,7 km/h (2 Bft) O 80 ° 1 min 860 W/m² 14,6 °C 29,2 °C 11,3 km/h (2 Bft)
09.06.2023 15:34 22,6 °C 29,4 °C 57 % 42 % 1014,0 hPa 0,0 l/m² 10,6 km/h (2 Bft) O-NO 68 ° 1 min 854 W/m² 15,1 °C 29,0 °C 17,7 km/h (3 Bft)
09.06.2023 15:35 22,6 °C 29,4 °C 57 % 37 % 1014,0 hPa 0,0 l/m² 9,9 km/h (2 Bft) O 92 ° 1 min 849 W/m² 13,2 °C 29,0 °C 16,1 km/h (3 Bft)
09.06.2023 15:36 22,6 °C 29,4 °C 57 % 39 % 1014,0 hPa 0,0 l/m² 12,5 km/h (2 Bft) O 94 ° 1 min 800 W/m² 14,0 °C 28,8 °C 16,1 km/h (3 Bft)
09.06.2023 15:37 22,6 °C 29,3 °C 57 % 39 % 1013,9 hPa 0,0 l/m² 10,3 km/h (2 Bft) O 82 ° 1 min 800 W/m² 13,9 °C 28,9 °C 12,9 km/h (3 Bft)
09.06.2023 15:38 22,6 °C 28,9 °C 57 % 40 % 1014,0 hPa 0,0 l/m² 7,1 km/h (2 Bft) O 84 ° 1 min 234 W/m² 13,9 °C 28,8 °C 11,3 km/h (2 Bft)
09.06.2023 15:39 22,6 °C 28,6 °C 57 % 38 % 1014,0 hPa 0,0 l/m² 5,8 km/h (2 Bft) O 98 ° 1 min 230 W/m² 12,9 °C 28,6 °C 9,7 km/h (2 Bft)
09.06.2023 15:40 22,6 °C 28,4 °C 57 % 40 % 1013,9 hPa 0,0 l/m² 9,4 km/h (2 Bft) O 83 ° 1 min 206 W/m² 13,5 °C 28,0 °C 12,9 km/h (3 Bft)
09.06.2023 15:41 22,6 °C 28,1 °C 57 % 39 % 1014,0 hPa 0,0 l/m² 6,1 km/h (2 Bft) O 84 ° 1 min 199 W/m² 12,8 °C 28,1 °C 9,7 km/h (2 Bft)
09.06.2023 15:42 22,6 °C 27,9 °C 57 % 42 % 1014,0 hPa 0,0 l/m² 3,1 km/h (1 Bft) O 80 ° 1 min 192 W/m² 13,8 °C 27,9 °C 4,8 km/h (1 Bft)
09.06.2023 15:43 22,6 °C 27,8 °C 57 % 41 % 1014,0 hPa 0,0 l/m² 6,3 km/h (2 Bft) O-SO 111 ° 1 min 186 W/m² 13,3 °C 27,8 °C 9,7 km/h (2 Bft)
09.06.2023 15:45 22,6 °C 27,4 °C 57 % 42 % 1014,0 hPa 0,0 l/m² 8,2 km/h (2 Bft) O 87 ° 2 min 155 W/m² 13,3 °C 27,1 °C 17,7 km/h (3 Bft)
09.06.2023 15:46 22,6 °C 27,2 °C 57 % 43 % 1014,0 hPa 0,0 l/m² 15,8 km/h (3 Bft) O 82 ° 1 min 146 W/m² 13,5 °C 25,9 °C 20,9 km/h (4 Bft)
09.06.2023 15:47 22,6 °C 27,1 °C 57 % 41 % 1013,9 hPa 0,0 l/m² 13,8 km/h (3 Bft) O-SO 116 ° 1 min 144 W/m² 12,7 °C 26,0 °C 17,7 km/h (3 Bft)
09.06.2023 15:48 22,6 °C 26,9 °C 57 % 41 % 1014,0 hPa 0,0 l/m² 13,6 km/h (3 Bft) O-SO 109 ° 1 min 142 W/m² 12,5 °C 25,8 °C 19,3 km/h (3 Bft)
09.06.2023 15:49 22,6 °C 26,8 °C 57 % 42 % 1014,0 hPa 0,0 l/m² 11,0 km/h (2 Bft) O 86 ° 1 min 139 W/m² 12,8 °C 26,0 °C 12,9 km/h (3 Bft)
09.06.2023 15:50 22,6 °C 26,7 °C 57 % 43 % 1013,9 hPa 0,0 l/m² 10,7 km/h (2 Bft) O-SO 104 ° 1 min 135 W/m² 13,1 °C 25,9 °C 12,9 km/h (3 Bft)
09.06.2023 15:51 22,6 °C 26,6 °C 57 % 43 % 1013,9 hPa 0,0 l/m² 11,4 km/h (2 Bft) O 89 ° 1 min 134 W/m² 13,0 °C 25,7 °C 14,5 km/h (3 Bft)
09.06.2023 15:52 22,6 °C 26,6 °C 57 % 44 % 1013,9 hPa 0,0 l/m² 5,3 km/h (1 Bft) O-NO 63 ° 1 min 134 W/m² 13,3 °C 26,6 °C 12,9 km/h (3 Bft)
09.06.2023 15:53 22,6 °C 26,6 °C 57 % 44 % 1013,9 hPa 0,0 l/m² 4,3 km/h (1 Bft) O 94 ° 1 min 132 W/m² 13,3 °C 26,6 °C 6,4 km/h (2 Bft)
09.06.2023 15:54 22,6 °C 26,6 °C 57 % 42 % 1013,9 hPa 0,0 l/m² 4,4 km/h (1 Bft) NO 40 ° 1 min 127 W/m² 12,6 °C 26,6 °C 6,4 km/h (2 Bft)
09.06.2023 15:55 22,6 °C 26,7 °C 57 % 42 % 1014,0 hPa 0,0 l/m² 3,2 km/h (1 Bft) O-NO 57 ° 1 min 125 W/m² 12,7 °C 26,7 °C 6,4 km/h (2 Bft)
09.06.2023 15:56 22,6 °C 26,7 °C 57 % 41 % 1013,9 hPa 0,0 l/m² 2,3 km/h (1 Bft) N-NO 19 ° 1 min 127 W/m² 12,3 °C 26,7 °C 6,4 km/h (2 Bft)
09.06.2023 15:57 22,6 °C 26,8 °C 57 % 42 % 1014,0 hPa 0,0 l/m² 7,6 km/h (2 Bft) NO 46 ° 1 min 128 W/m² 12,8 °C 26,6 °C 12,9 km/h (3 Bft)
09.06.2023 15:58 22,6 °C 26,8 °C 57 % 41 % 1013,9 hPa 0,0 l/m² 5,9 km/h (2 Bft) NO 36 ° 1 min 134 W/m² 12,4 °C 26,8 °C 9,7 km/h (2 Bft)
09.06.2023 15:59 22,6 °C 26,9 °C 57 % 41 % 1014,0 hPa 0,0 l/m² 2,5 km/h (1 Bft) N-NO 32 ° 1 min 151 W/m² 12,5 °C 26,9 °C 3,2 km/h (1 Bft)
09.06.2023 16:00 22,6 °C 27,0 °C 57 % 40 % 1013,9 hPa 0,0 l/m² 5,0 km/h (1 Bft) O-NO 63 ° 1 min 151 W/m² 12,2 °C 27,0 °C 8,0 km/h (2 Bft)
09.06.2023 16:01 22,6 °C 27,1 °C 57 % 42 % 1013,8 hPa 0,0 l/m² 4,3 km/h (1 Bft) NO 46 ° 1 min 715 W/m² 13,1 °C 27,1 °C 6,4 km/h (2 Bft)
09.06.2023 16:02 22,6 °C 27,4 °C 57 % 43 % 1013,9 hPa 0,0 l/m² 3,4 km/h (1 Bft) N 5 ° 1 min 708 W/m² 13,7 °C 27,4 °C 6,4 km/h (2 Bft)
09.06.2023 16:03 22,6 °C 27,6 °C 57 % 42 % 1013,9 hPa 0,0 l/m² 3,0 km/h (1 Bft) N 360 ° 1 min 705 W/m² 13,5 °C 27,6 °C 4,8 km/h (1 Bft)
09.06.2023 16:04 22,6 °C 27,7 °C 57 % 40 % 1013,9 hPa 0,0 l/m² 3,3 km/h (1 Bft) N 9 ° 1 min 710 W/m² 12,9 °C 27,7 °C 4,8 km/h (1 Bft)
09.06.2023 16:05 22,6 °C 27,9 °C 57 % 41 % 1013,9 hPa 0,0 l/m² 5,9 km/h (2 Bft) N 355 ° 1 min 715 W/m² 13,4 °C 27,9 °C 8,0 km/h (2 Bft)
09.06.2023 16:07 22,6 °C 28,1 °C 57 % 42 % 1013,7 hPa 0,0 l/m² 4,7 km/h (1 Bft) NW 325 ° 2 min 475 W/m² 14,0 °C 28,1 °C 9,7 km/h (2 Bft)
09.06.2023 16:08 22,6 °C 28,1 °C 57 % 41 % 1013,7 hPa 0,0 l/m² 4,0 km/h (1 Bft) N-NW 333 ° 1 min 522 W/m² 13,6 °C 28,1 °C 6,4 km/h (2 Bft)
09.06.2023 16:09 22,6 °C 28,1 °C 57 % 39 % 1013,8 hPa 0,0 l/m² 2,5 km/h (1 Bft) NW 310 ° 1 min 724 W/m² 12,8 °C 28,1 °C 4,8 km/h (1 Bft)
09.06.2023 16:10 22,6 °C 28,2 °C 57 % 40 % 1013,8 hPa 0,0 l/m² 1,7 km/h (1 Bft) N-NW 342 ° 1 min 724 W/m² 13,3 °C 28,2 °C 4,8 km/h (1 Bft)
09.06.2023 16:12 22,6 °C 28,3 °C 57 % 40 % 1013,7 hPa 0,0 l/m² 3,8 km/h (1 Bft) NW 314 ° 2 min 717 W/m² 13,4 °C 28,3 °C 6,4 km/h (2 Bft)
09.06.2023 16:13 22,6 °C 28,4 °C 57 % 38 % 1013,7 hPa 0,0 l/m² 3,4 km/h (1 Bft) N-NW 334 ° 1 min 721 W/m² 12,7 °C 28,4 °C 6,4 km/h (2 Bft)
09.06.2023 16:14 22,6 °C 28,4 °C 57 % 40 % 1013,7 hPa 0,0 l/m² 5,9 km/h (2 Bft) N-NW 333 ° 1 min 724 W/m² 13,5 °C 28,4 °C 9,7 km/h (2 Bft)
09.06.2023 16:15 22,6 °C 28,3 °C 57 % 39 % 1013,7 hPa 0,0 l/m² 7,1 km/h (2 Bft) N-NW 345 ° 1 min 731 W/m² 13,0 °C 28,2 °C 9,7 km/h (2 Bft)
09.06.2023 16:16 22,6 °C 28,3 °C 57 % 38 % 1013,7 hPa 0,0 l/m² 5,1 km/h (1 Bft) N 360 ° 1 min 738 W/m² 12,6 °C 28,3 °C 8,0 km/h (2 Bft)
09.06.2023 16:17 22,6 °C 28,4 °C 57 % 39 % 1013,7 hPa 0,0 l/m² 3,2 km/h (1 Bft) O-NO 66 ° 1 min 747 W/m² 13,1 °C 28,4 °C 4,8 km/h (1 Bft)
09.06.2023 16:18 22,6 °C 28,6 °C 57 % 39 % 1013,7 hPa 0,0 l/m² 5,6 km/h (2 Bft) O-NO 66 ° 1 min 749 W/m² 13,3 °C 28,6 °C 8,0 km/h (2 Bft)
09.06.2023 16:19 22,6 °C 28,7 °C 57 % 39 % 1013,7 hPa 0,0 l/m² 4,4 km/h (1 Bft) O 92 ° 1 min 742 W/m² 13,4 °C 28,7 °C 14,5 km/h (3 Bft)
09.06.2023 16:20 22,6 °C 28,8 °C 57 % 39 % 1013,7 hPa 0,0 l/m² 9,3 km/h (2 Bft) O-SO 102 ° 1 min 719 W/m² 13,4 °C 28,4 °C 14,5 km/h (3 Bft)
09.06.2023 16:22 22,6 °C 29,0 °C 57 % 42 % 1013,7 hPa 0,0 l/m² 5,5 km/h (2 Bft) N 5 ° 2 min 700 W/m² 14,8 °C 29,0 °C 9,7 km/h (2 Bft)
09.06.2023 16:23 22,6 °C 29,0 °C 57 % 41 % 1013,7 hPa 0,0 l/m² 1,5 km/h (1 Bft) N 5 ° 1 min 700 W/m² 14,4 °C 29,0 °C 4,8 km/h (1 Bft)
09.06.2023 16:24 22,6 °C 28,9 °C 57 % 39 % 1013,6 hPa 0,0 l/m² 5,6 km/h (2 Bft) O-NO 61 ° 1 min 700 W/m² 13,5 °C 28,9 °C 9,7 km/h (2 Bft)
09.06.2023 16:25 22,6 °C 28,9 °C 57 % 39 % 1013,6 hPa 0,0 l/m² 3,0 km/h (1 Bft) NO 41 ° 1 min 686 W/m² 13,5 °C 28,9 °C 4,8 km/h (1 Bft)
09.06.2023 16:26 22,6 °C 28,9 °C 57 % 38 % 1013,6 hPa 0,0 l/m² 1,9 km/h (1 Bft) NO 46 ° 1 min 686 W/m² 13,1 °C 28,9 °C 4,8 km/h (1 Bft)
09.06.2023 16:27 22,6 °C 28,7 °C 57 % 38 % 1013,6 hPa 0,0 l/m² 4,8 km/h (1 Bft) N 360 ° 1 min 686 W/m² 13,0 °C 28,7 °C 9,7 km/h (2 Bft)
09.06.2023 16:28 22,6 °C 28,6 °C 57 % 37 % 1013,6 hPa 0,0 l/m² 5,6 km/h (2 Bft) N 5 ° 1 min 693 W/m² 12,5 °C 28,6 °C 12,9 km/h (3 Bft)
09.06.2023 16:29 22,6 °C 28,6 °C 57 % 39 % 1013,6 hPa 0,0 l/m² 2,2 km/h (1 Bft) N-NO 17 ° 1 min 691 W/m² 13,3 °C 28,6 °C 6,4 km/h (2 Bft)
09.06.2023 16:30 22,6 °C 28,6 °C 57 % 38 % 1013,6 hPa 0,0 l/m² 7,1 km/h (2 Bft) NO 38 ° 1 min 687 W/m² 12,9 °C 28,5 °C 16,1 km/h (3 Bft)
09.06.2023 16:31 22,6 °C 28,7 °C 57 % 40 % 1013,6 hPa 0,0 l/m² 6,1 km/h (2 Bft) NO 37 ° 1 min 682 W/m² 13,7 °C 28,7 °C 14,5 km/h (3 Bft)
09.06.2023 16:32 22,6 °C 28,8 °C 57 % 37 % 1013,6 hPa 0,0 l/m² 5,4 km/h (2 Bft) N-NO 18 ° 1 min 664 W/m² 12,6 °C 28,8 °C 9,7 km/h (2 Bft)
09.06.2023 16:33 22,6 °C 28,8 °C 57 % 37 % 1013,6 hPa 0,0 l/m² 6,7 km/h (2 Bft) NO 46 ° 1 min 664 W/m² 12,6 °C 28,8 °C 12,9 km/h (3 Bft)
09.06.2023 16:34 22,6 °C 28,7 °C 57 % 37 % 1013,6 hPa 0,0 l/m² 4,5 km/h (1 Bft) O-NO 64 ° 1 min 664 W/m² 12,5 °C 28,7 °C 8,0 km/h (2 Bft)
09.06.2023 16:35 22,6 °C 28,7 °C 57 % 37 % 1013,6 hPa 0,0 l/m² 7,6 km/h (2 Bft) NO 36 ° 1 min 158 W/m² 12,5 °C 28,5 °C 12,9 km/h (3 Bft)
09.06.2023 16:36 22,6 °C 28,4 °C 57 % 37 % 1013,7 hPa 0,0 l/m² 6,6 km/h (2 Bft) O-NO 57 ° 1 min 193 W/m² 12,3 °C 28,4 °C 14,5 km/h (3 Bft)
09.06.2023 16:37 22,6 °C 28,3 °C 57 % 38 % 1013,7 hPa 0,0 l/m² 7,3 km/h (2 Bft) NO 49 ° 1 min 163 W/m² 12,6 °C 28,2 °C 16,1 km/h (3 Bft)
09.06.2023 16:38 22,6 °C 28,2 °C 57 % 38 % 1013,7 hPa 0,0 l/m² 9,3 km/h (2 Bft) O-NO 57 ° 1 min 165 W/m² 12,5 °C 27,8 °C 16,1 km/h (3 Bft)
09.06.2023 16:39 22,6 °C 27,9 °C 57 % 39 % 1013,7 hPa 0,0 l/m² 8,2 km/h (2 Bft) N-NW 336 ° 1 min 167 W/m² 12,6 °C 27,6 °C 14,5 km/h (3 Bft)
09.06.2023 16:40 22,6 °C 27,8 °C 57 % 39 % 1013,7 hPa 0,0 l/m² 8,2 km/h (2 Bft) N 5 ° 1 min 169 W/m² 12,6 °C 27,5 °C 12,9 km/h (3 Bft)
09.06.2023 16:41 22,6 °C 27,7 °C 57 % 41 % 1013,7 hPa 0,0 l/m² 9,9 km/h (2 Bft) N-NW 343 ° 1 min 172 W/m² 13,2 °C 27,2 °C 14,5 km/h (3 Bft)
09.06.2023 16:42 22,6 °C 27,5 °C 57 % 41 % 1013,6 hPa 0,0 l/m² 6,8 km/h (2 Bft) N 349 ° 1 min 176 W/m² 13,1 °C 27,4 °C 12,9 km/h (3 Bft)
09.06.2023 16:43 22,6 °C 27,4 °C 57 % 42 % 1013,7 hPa 0,0 l/m² 10,0 km/h (2 Bft) N-NO 26 ° 1 min 176 W/m² 13,3 °C 26,8 °C 12,9 km/h (3 Bft)
09.06.2023 16:44 22,6 °C 27,4 °C 57 % 41 % 1013,6 hPa 0,0 l/m² 11,2 km/h (2 Bft) N 5 ° 1 min 169 W/m² 13,0 °C 26,7 °C 14,5 km/h (3 Bft)
09.06.2023 16:45 22,6 °C 27,3 °C 57 % 42 % 1013,7 hPa 0,0 l/m² 9,0 km/h (2 Bft) N 351 ° 1 min 162 W/m² 13,2 °C 26,9 °C 12,9 km/h (3 Bft)
09.06.2023 16:46 22,6 °C 27,2 °C 57 % 42 % 1013,6 hPa 0,0 l/m² 10,6 km/h (2 Bft) N 355 ° 1 min 156 W/m² 13,2 °C 26,5 °C 14,5 km/h (3 Bft)
09.06.2023 16:47 22,6 °C 27,1 °C 57 % 43 % 1013,6 hPa 0,0 l/m² 7,5 km/h (2 Bft) N-NW 346 ° 1 min 155 W/m² 13,4 °C 26,9 °C 14,5 km/h (3 Bft)
09.06.2023 16:48 22,6 °C 27,0 °C 57 % 43 % 1013,6 hPa 0,0 l/m² 9,3 km/h (2 Bft) N-NW 331 ° 1 min 153 W/m² 13,3 °C 26,5 °C 12,9 km/h (3 Bft)
09.06.2023 16:49 22,6 °C 26,9 °C 57 % 44 % 1013,6 hPa 0,0 l/m² 7,4 km/h (2 Bft) N 355 ° 1 min 148 W/m² 13,6 °C 26,7 °C 12,9 km/h (3 Bft)
09.06.2023 16:50 22,6 °C 26,9 °C 57 % 43 % 1013,6 hPa 0,0 l/m² 8,0 km/h (2 Bft) N 5 ° 1 min 144 W/m² 13,2 °C 26,6 °C 12,9 km/h (3 Bft)
09.06.2023 16:52 22,6 °C 26,8 °C 57 % 44 % 1013,6 hPa 0,0 l/m² 8,0 km/h (2 Bft) N-NW 340 ° 2 min 141 W/m² 13,5 °C 26,5 °C 14,5 km/h (3 Bft)
09.06.2023 16:53 22,6 °C 26,8 °C 57 % 45 % 1013,6 hPa 0,0 l/m² 8,1 km/h (2 Bft) N-NW 342 ° 1 min 137 W/m² 13,9 °C 26,5 °C 9,7 km/h (2 Bft)
09.06.2023 16:54 22,5 °C 26,7 °C 57 % 44 % 1013,6 hPa 0,0 l/m² 7,6 km/h (2 Bft) N-NW 346 ° 1 min 134 W/m² 13,4 °C 26,5 °C 12,9 km/h (3 Bft)
09.06.2023 16:55 22,5 °C 26,7 °C 57 % 45 % 1013,6 hPa 0,0 l/m² 7,7 km/h (2 Bft) N 351 ° 1 min 123 W/m² 13,8 °C 26,4 °C 9,7 km/h (2 Bft)
09.06.2023 16:56 22,6 °C 26,6 °C 57 % 45 % 1013,5 hPa 0,0 l/m² 7,8 km/h (2 Bft) N-NW 345 ° 1 min 118 W/m² 13,7 °C 26,3 °C 14,5 km/h (3 Bft)
09.06.2023 16:57 22,5 °C 26,5 °C 57 % 45 % 1013,6 hPa 0,0 l/m² 7,5 km/h (2 Bft) N-NW 338 ° 1 min 109 W/m² 13,6 °C 26,3 °C 12,9 km/h (3 Bft)
09.06.2023 16:58 22,5 °C 26,5 °C 57 % 45 % 1013,6 hPa 0,0 l/m² 9,1 km/h (2 Bft) N-NW 328 ° 1 min 104 W/m² 13,6 °C 26,0 °C 12,9 km/h (3 Bft)
09.06.2023 16:59 22,5 °C 26,4 °C 57 % 45 % 1013,6 hPa 0,0 l/m² 8,3 km/h (2 Bft) NW 321 ° 1 min 100 W/m² 13,5 °C 26,0 °C 12,9 km/h (3 Bft)
09.06.2023 17:00 22,6 °C 26,4 °C 57 % 45 % 1013,6 hPa 0,0 l/m² 9,3 km/h (2 Bft) N 355 ° 1 min 98 W/m² 13,5 °C 25,8 °C 12,9 km/h (3 Bft)
09.06.2023 17:01 22,6 °C 26,3 °C 57 % 46 % 1013,6 hPa 0,0 l/m² 8,9 km/h (2 Bft) N 350 ° 1 min 102 W/m² 13,7 °C 25,8 °C 12,9 km/h (3 Bft)
09.06.2023 17:02 22,5 °C 26,3 °C 57 % 45 % 1013,6 hPa 0,0 l/m² 8,4 km/h (2 Bft) N-NW 330 ° 1 min 105 W/m² 13,4 °C 25,9 °C 14,5 km/h (3 Bft)
09.06.2023 17:03 22,5 °C 26,3 °C 57 % 46 % 1013,6 hPa 0,0 l/m² 8,4 km/h (2 Bft) N 355 ° 1 min 123 W/m² 13,7 °C 25,9 °C 12,9 km/h (3 Bft)
09.06.2023 17:04 22,5 °C 26,3 °C 57 % 46 % 1013,6 hPa 0,0 l/m² 6,4 km/h (2 Bft) N-NW 332 ° 1 min 105 W/m² 13,7 °C 26,3 °C 9,7 km/h (2 Bft)
09.06.2023 17:05 22,5 °C 26,2 °C 57 % 46 % 1013,5 hPa 0,0 l/m² 7,2 km/h (2 Bft) N-NW 340 ° 1 min 102 W/m² 13,6 °C 26,0 °C 9,7 km/h (2 Bft)
09.06.2023 17:06 22,5 °C 26,2 °C 57 % 47 % 1013,6 hPa 0,0 l/m² 5,6 km/h (2 Bft) NW 325 ° 1 min 102 W/m² 14,0 °C 26,2 °C 8,0 km/h (2 Bft)
09.06.2023 17:07 22,5 °C 26,2 °C 57 % 46 % 1013,6 hPa 0,0 l/m² 6,1 km/h (2 Bft) N-NW 345 ° 1 min 104 W/m² 13,6 °C 26,2 °C 9,7 km/h (2 Bft)
09.06.2023 17:08 22,5 °C 26,1 °C 57 % 46 % 1013,6 hPa 0,0 l/m² 7,0 km/h (2 Bft) N-NW 338 ° 1 min 104 W/m² 13,6 °C 26,0 °C 11,3 km/h (2 Bft)
09.06.2023 17:09 22,5 °C 26,1 °C 57 % 46 % 1013,6 hPa 0,0 l/m² 8,1 km/h (2 Bft) NW 320 ° 1 min 107 W/m² 13,6 °C 25,7 °C 12,9 km/h (3 Bft)
09.06.2023 17:10 22,5 °C 26,1 °C 57 % 46 % 1013,6 hPa 0,0 l/m² 7,1 km/h (2 Bft) N-NW 332 ° 1 min 111 W/m² 13,6 °C 25,9 °C 9,7 km/h (2 Bft)
09.06.2023 17:11 22,5 °C 26,1 °C 57 % 46 % 1013,6 hPa 0,0 l/m² 5,6 km/h (2 Bft) N 360 ° 1 min 113 W/m² 13,6 °C 26,1 °C 8,0 km/h (2 Bft)
09.06.2023 17:12 22,5 °C 26,2 °C 57 % 47 % 1013,5 hPa 0,0 l/m² 6,2 km/h (2 Bft) NW 325 ° 1 min 116 W/m² 14,0 °C 26,2 °C 12,9 km/h (3 Bft)
09.06.2023 17:13 22,5 °C 26,1 °C 57 % 47 % 1013,5 hPa 0,0 l/m² 6,7 km/h (2 Bft) N-NW 344 ° 1 min 118 W/m² 13,9 °C 26,0 °C 12,9 km/h (3 Bft)
09.06.2023 17:14 22,5 °C 26,1 °C 57 % 48 % 1013,5 hPa 0,0 l/m² 3,4 km/h (1 Bft) NW 323 ° 1 min 120 W/m² 14,2 °C 26,1 °C 4,8 km/h (1 Bft)
09.06.2023 17:15 22,5 °C 26,1 °C 57 % 48 % 1013,5 hPa 0,0 l/m² 4,0 km/h (1 Bft) N-NW 334 ° 1 min 125 W/m² 14,2 °C 26,1 °C 6,4 km/h (2 Bft)
09.06.2023 17:16 22,5 °C 26,0 °C 57 % 49 % 1013,6 hPa 0,0 l/m² 5,2 km/h (1 Bft) N-NW 339 ° 1 min 134 W/m² 14,4 °C 26,0 °C 6,4 km/h (2 Bft)
09.06.2023 17:17 22,5 °C 25,9 °C 57 % 49 % 1013,5 hPa 0,0 l/m² 4,1 km/h (1 Bft) N-NW 348 ° 1 min 146 W/m² 14,4 °C 25,9 °C 6,4 km/h (2 Bft)
09.06.2023 17:18 22,5 °C 25,9 °C 57 % 48 % 1013,5 hPa 0,0 l/m² 6,7 km/h (2 Bft) N-NW 335 ° 1 min 172 W/m² 14,0 °C 25,8 °C 9,7 km/h (2 Bft)
09.06.2023 17:19 22,5 °C 26,0 °C 57 % 48 % 1013,5 hPa 0,0 l/m² 7,4 km/h (2 Bft) N-NW 338 ° 1 min 172 W/m² 14,1 °C 25,8 °C 12,9 km/h (3 Bft)
09.06.2023 17:20 22,5 °C 26,1 °C 57 % 49 % 1013,5 hPa 0,0 l/m² 5,4 km/h (2 Bft) N 350 ° 1 min 172 W/m² 14,5 °C 26,1 °C 8,0 km/h (2 Bft)
09.06.2023 17:21 22,5 °C 26,3 °C 57 % 47 % 1013,5 hPa 0,0 l/m² 7,0 km/h (2 Bft) N-NW 329 ° 1 min 172 W/m² 14,1 °C 26,2 °C 8,0 km/h (2 Bft)
09.06.2023 17:22 22,5 °C 26,4 °C 57 % 47 % 1013,5 hPa 0,0 l/m² 6,0 km/h (2 Bft) NW 323 ° 1 min 281 W/m² 14,2 °C 26,4 °C 9,7 km/h (2 Bft)
09.06.2023 17:23 22,4 °C 26,4 °C 57 % 47 % 1013,5 hPa 0,0 l/m² 6,6 km/h (2 Bft) N 355 ° 1 min 367 W/m² 14,2 °C 26,4 °C 9,7 km/h (2 Bft)
09.06.2023 17:24 22,5 °C 26,6 °C 57 % 47 % 1013,6 hPa 0,0 l/m² 5,8 km/h (2 Bft) N-NW 336 ° 1 min 413 W/m² 14,3 °C 26,6 °C 9,7 km/h (2 Bft)
09.06.2023 17:25 22,4 °C 26,7 °C 57 % 48 % 1013,4 hPa 0,0 l/m² 4,6 km/h (1 Bft) N-NW 334 ° 1 min 413 W/m² 14,8 °C 26,7 °C 9,7 km/h (2 Bft)
09.06.2023 17:26 22,4 °C 26,8 °C 57 % 48 % 1013,5 hPa 0,0 l/m² 6,9 km/h (2 Bft) N-NW 336 ° 1 min 548 W/m² 14,9 °C 26,7 °C 14,5 km/h (3 Bft)
09.06.2023 17:27 22,5 °C 27,0 °C 57 % 48 % 1013,5 hPa 0,0 l/m² 6,8 km/h (2 Bft) N-NW 346 ° 1 min 547 W/m² 15,0 °C 26,9 °C 9,7 km/h (2 Bft)
09.06.2023 17:28 22,5 °C 27,2 °C 57 % 45 % 1013,6 hPa 0,0 l/m² 11,0 km/h (2 Bft) N-NW 336 ° 1 min 548 W/m² 14,2 °C 26,5 °C 17,7 km/h (3 Bft)
09.06.2023 17:29 22,5 °C 27,4 °C 57 % 45 % 1013,5 hPa 0,0 l/m² 9,2 km/h (2 Bft) N 9 ° 1 min 536 W/m² 14,4 °C 26,9 °C 14,5 km/h (3 Bft)
09.06.2023 17:30 22,4 °C 27,5 °C 57 % 43 % 1013,5 hPa 0,0 l/m² 16,5 km/h (3 Bft) N 360 ° 1 min 501 W/m² 13,8 °C 26,2 °C 25,7 km/h (4 Bft)
09.06.2023 17:31 22,4 °C 27,6 °C 57 % 42 % 1013,5 hPa 0,0 l/m² 18,5 km/h (3 Bft) N-NW 335 ° 1 min 527 W/m² 13,5 °C 26,1 °C 25,7 km/h (4 Bft)
09.06.2023 17:32 22,5 °C 27,7 °C 57 % 41 % 1013,6 hPa 0,0 l/m² 13,9 km/h (3 Bft) N 5 ° 1 min 524 W/m² 13,2 °C 26,7 °C 17,7 km/h (3 Bft)
09.06.2023 17:33 22,5 °C 27,7 °C 57 % 41 % 1013,5 hPa 0,0 l/m² 14,4 km/h (3 Bft) N-NO 18 ° 1 min 522 W/m² 13,2 °C 26,6 °C 19,3 km/h (3 Bft)
09.06.2023 17:34 22,5 °C 27,8 °C 57 % 41 % 1013,5 hPa 0,0 l/m² 12,5 km/h (2 Bft) N 355 ° 1 min 522 W/m² 13,3 °C 27,0 °C 16,1 km/h (3 Bft)
09.06.2023 17:35 22,4 °C 27,7 °C 57 % 41 % 1013,5 hPa 0,0 l/m² 11,5 km/h (2 Bft) N-NW 329 ° 1 min 522 W/m² 13,2 °C 27,0 °C 16,1 km/h (3 Bft)
09.06.2023 17:36 22,5 °C 27,7 °C 57 % 41 % 1013,5 hPa 0,0 l/m² 15,4 km/h (3 Bft) N 10 ° 1 min 141 W/m² 13,2 °C 26,5 °C 20,9 km/h (4 Bft)
09.06.2023 17:37 22,5 °C 27,5 °C 57 % 41 % 1013,4 hPa 0,0 l/m² 15,0 km/h (3 Bft) N 5 ° 1 min 139 W/m² 13,1 °C 26,3 °C 25,7 km/h (4 Bft)
09.06.2023 17:38 22,5 °C 27,4 °C 57 % 41 % 1013,4 hPa 0,0 l/m² 14,4 km/h (3 Bft) N 355 ° 1 min 134 W/m² 13,0 °C 26,3 °C 22,5 km/h (4 Bft)
09.06.2023 17:39 22,5 °C 27,3 °C 57 % 42 % 1013,5 hPa 0,0 l/m² 16,6 km/h (3 Bft) N 5 ° 1 min 134 W/m² 13,2 °C 25,9 °C 20,9 km/h (4 Bft)
09.06.2023 17:40 22,5 °C 27,2 °C 57 % 43 % 1013,5 hPa 0,0 l/m² 10,6 km/h (2 Bft) NW 317 ° 1 min 132 W/m² 13,5 °C 26,5 °C 16,1 km/h (3 Bft)
09.06.2023 17:41 22,4 °C 27,1 °C 57 % 44 % 1013,5 hPa 0,0 l/m² 11,1 km/h (2 Bft) N-NW 346 ° 1 min 130 W/m² 13,8 °C 26,3 °C 17,7 km/h (3 Bft)
09.06.2023 17:42 22,5 °C 26,9 °C 57 % 43 % 1013,5 hPa 0,0 l/m² 10,7 km/h (2 Bft) N-NW 344 ° 1 min 139 W/m² 13,2 °C 26,2 °C 16,1 km/h (3 Bft)
09.06.2023 17:43 22,5 °C 26,8 °C 57 % 43 % 1013,4 hPa 0,0 l/m² 11,3 km/h (2 Bft) NW 326 ° 1 min 141 W/m² 13,2 °C 26,0 °C 17,7 km/h (3 Bft)
09.06.2023 17:44 22,5 °C 26,8 °C 57 % 44 % 1013,4 hPa 0,0 l/m² 8,9 km/h (2 Bft) N 355 ° 1 min 158 W/m² 13,5 °C 26,3 °C 12,9 km/h (3 Bft)
09.06.2023 17:45 22,5 °C 26,8 °C 57 % 44 % 1013,5 hPa 0,0 l/m² 10,3 km/h (2 Bft) N-NW 331 ° 1 min 158 W/m² 13,5 °C 26,1 °C 16,1 km/h (3 Bft)
09.06.2023 17:46 22,5 °C 26,8 °C 57 % 44 % 1013,4 hPa 0,0 l/m² 12,9 km/h (3 Bft) N-NW 338 ° 1 min 178 W/m² 13,5 °C 25,7 °C 19,3 km/h (3 Bft)
09.06.2023 17:47 22,4 °C 26,8 °C 57 % 43 % 1013,5 hPa 0,0 l/m² 12,7 km/h (3 Bft) N 5 ° 1 min 200 W/m² 13,2 °C 25,8 °C 17,7 km/h (3 Bft)
09.06.2023 17:48 22,4 °C 26,9 °C 57 % 44 % 1013,4 hPa 0,0 l/m² 11,2 km/h (2 Bft) N 5 ° 1 min 452 W/m² 13,6 °C 26,1 °C 16,1 km/h (3 Bft)
09.06.2023 17:49 22,4 °C 27,1 °C 57 % 44 % 1013,4 hPa 0,0 l/m² 10,8 km/h (2 Bft) NW 308 ° 1 min 466 W/m² 13,8 °C 26,4 °C 17,7 km/h (3 Bft)
09.06.2023 17:50 22,4 °C 27,2 °C 57 % 44 % 1013,4 hPa 0,0 l/m² 8,5 km/h (2 Bft) N-NW 333 ° 1 min 466 W/m² 13,9 °C 26,8 °C 16,1 km/h (3 Bft)
09.06.2023 17:51 22,4 °C 27,2 °C 57 % 44 % 1013,4 hPa 0,0 l/m² 10,6 km/h (2 Bft) NW 324 ° 1 min 466 W/m² 13,9 °C 26,5 °C 17,7 km/h (3 Bft)
09.06.2023 17:52 22,4 °C 27,3 °C 57 % 43 % 1013,4 hPa 0,0 l/m² 14,7 km/h (3 Bft) N 5 ° 1 min 466 W/m² 13,6 °C 26,1 °C 19,3 km/h (3 Bft)
09.06.2023 17:53 22,5 °C 27,3 °C 57 % 43 % 1013,3 hPa 0,0 l/m² 8,9 km/h (2 Bft) N 360 ° 1 min 385 W/m² 13,6 °C 26,9 °C 16,1 km/h (3 Bft)
09.06.2023 17:54 22,4 °C 27,3 °C 57 % 43 % 1013,4 hPa 0,0 l/m² 8,9 km/h (2 Bft) N 355 ° 1 min 279 W/m² 13,6 °C 26,9 °C 14,5 km/h (3 Bft)
09.06.2023 17:55 22,5 °C 27,3 °C 57 % 43 % 1013,4 hPa 0,0 l/m² 8,8 km/h (2 Bft) N-NW 348 ° 1 min 207 W/m² 13,6 °C 26,9 °C 14,5 km/h (3 Bft)
09.06.2023 17:56 22,5 °C 27,3 °C 57 % 44 % 1013,5 hPa 0,0 l/m² 7,1 km/h (2 Bft) NO 38 ° 1 min 200 W/m² 14,0 °C 27,2 °C 12,9 km/h (3 Bft)
09.06.2023 17:57 22,5 °C 27,3 °C 57 % 44 % 1013,4 hPa 0,0 l/m² 7,9 km/h (2 Bft) NO 34 ° 1 min 139 W/m² 14,0 °C 27,0 °C 12,9 km/h (3 Bft)
09.06.2023 17:58 22,5 °C 27,3 °C 57 % 44 % 1013,4 hPa 0,0 l/m² 8,8 km/h (2 Bft) N 11 ° 1 min 139 W/m² 14,0 °C 26,9 °C 17,7 km/h (3 Bft)
09.06.2023 17:59 22,5 °C 27,3 °C 57 % 44 % 1013,4 hPa 0,0 l/m² 11,1 km/h (2 Bft) N 5 ° 1 min 420 W/m² 14,0 °C 26,6 °C 16,1 km/h (3 Bft)
09.06.2023 18:00 22,5 °C 27,3 °C 57 % 43 % 1013,4 hPa 0,0 l/m² 8,2 km/h (2 Bft) N 360 ° 1 min 420 W/m² 13,6 °C 27,0 °C 16,1 km/h (3 Bft)
09.06.2023 18:01 22,5 °C 27,3 °C 57 % 43 % 1013,4 hPa 0,0 l/m² 10,4 km/h (2 Bft) NW 326 ° 1 min 411 W/m² 13,6 °C 26,6 °C 17,7 km/h (3 Bft)
09.06.2023 18:02 22,5 °C 27,3 °C 57 % 43 % 1013,4 hPa 0,0 l/m² 11,8 km/h (2 Bft) N 360 ° 1 min 417 W/m² 13,6 °C 26,5 °C 20,9 km/h (4 Bft)
09.06.2023 18:03 22,6 °C 27,3 °C 57 % 42 % 1013,4 hPa 0,0 l/m² 11,8 km/h (2 Bft) N-NW 344 ° 1 min 418 W/m² 13,2 °C 26,5 °C 19,3 km/h (3 Bft)
09.06.2023 18:04 22,5 °C 27,3 °C 57 % 42 % 1013,4 hPa 0,0 l/m² 14,8 km/h (3 Bft) N 350 ° 1 min 413 W/m² 13,2 °C 26,1 °C 20,9 km/h (4 Bft)
09.06.2023 18:05 22,6 °C 27,3 °C 57 % 43 % 1013,5 hPa 0,0 l/m² 15,7 km/h (3 Bft) N 355 ° 1 min 424 W/m² 13,6 °C 26,0 °C 20,9 km/h (4 Bft)
09.06.2023 18:06 22,5 °C 27,3 °C 57 % 42 % 1013,4 hPa 0,0 l/m² 12,1 km/h (2 Bft) N 355 ° 1 min 413 W/m² 13,2 °C 26,4 °C 19,3 km/h (3 Bft)
09.06.2023 18:07 22,6 °C 27,3 °C 57 % 42 % 1013,3 hPa 0,0 l/m² 13,1 km/h (3 Bft) N 355 ° 1 min 413 W/m² 13,2 °C 26,3 °C 17,7 km/h (3 Bft)
09.06.2023 18:08 22,6 °C 27,4 °C 57 % 42 % 1013,4 hPa 0,0 l/m² 11,3 km/h (2 Bft) N 5 ° 1 min 387 W/m² 13,3 °C 26,6 °C 16,1 km/h (3 Bft)
09.06.2023 18:09 22,6 °C 27,4 °C 57 % 43 % 1013,4 hPa 0,0 l/m² 9,7 km/h (2 Bft) N 355 ° 1 min 297 W/m² 13,7 °C 26,9 °C 14,5 km/h (3 Bft)
09.06.2023 18:10 22,6 °C 27,4 °C 57 % 43 % 1013,4 hPa 0,0 l/m² 7,0 km/h (2 Bft) NW 322 ° 1 min 279 W/m² 13,7 °C 27,3 °C 16,1 km/h (3 Bft)
09.06.2023 18:11 22,6 °C 27,3 °C 57 % 43 % 1013,5 hPa 0,0 l/m² 8,0 km/h (2 Bft) N-NW 348 ° 1 min 366 W/m² 13,6 °C 27,0 °C 12,9 km/h (3 Bft)
09.06.2023 18:12 22,6 °C 27,3 °C 57 % 43 % 1013,4 hPa 0,0 l/m² 8,3 km/h (2 Bft) N 360 ° 1 min 366 W/m² 13,6 °C 27,0 °C 12,9 km/h (3 Bft)
09.06.2023 18:13 22,6 °C 27,2 °C 57 % 43 % 1013,4 hPa 0,0 l/m² 8,4 km/h (2 Bft) N-NO 13 ° 1 min 123 W/m² 13,5 °C 26,8 °C 14,5 km/h (3 Bft)
09.06.2023 18:14 22,6 °C 27,1 °C 57 % 44 % 1013,4 hPa 0,0 l/m² 8,4 km/h (2 Bft) N 11 ° 1 min 123 W/m² 13,8 °C 26,7 °C 16,1 km/h (3 Bft)
09.06.2023 18:15 22,6 °C 26,9 °C 57 % 44 % 1013,4 hPa 0,0 l/m² 12,5 km/h (2 Bft) N 5 ° 1 min 130 W/m² 13,6 °C 25,9 °C 16,1 km/h (3 Bft)
09.06.2023 18:16 22,6 °C 26,8 °C 57 % 43 % 1013,4 hPa 0,0 l/m² 11,5 km/h (2 Bft) N-NW 339 ° 1 min 211 W/m² 13,2 °C 25,9 °C 14,5 km/h (3 Bft)
09.06.2023 18:17 22,5 °C 26,7 °C 57 % 44 % 1013,5 hPa 0,0 l/m² 9,1 km/h (2 Bft) N 355 ° 1 min 114 W/m² 13,4 °C 26,2 °C 16,1 km/h (3 Bft)
09.06.2023 18:18 22,6 °C 26,6 °C 57 % 44 % 1013,4 hPa 0,0 l/m² 6,9 km/h (2 Bft) NW 319 ° 1 min 113 W/m² 13,3 °C 26,5 °C 16,1 km/h (3 Bft)
09.06.2023 18:19 22,5 °C 26,5 °C 57 % 45 % 1013,4 hPa 0,0 l/m² 7,6 km/h (2 Bft) N 5 ° 1 min 109 W/m² 13,6 °C 26,3 °C 9,7 km/h (2 Bft)
09.06.2023 18:20 22,6 °C 26,4 °C 57 % 45 % 1013,4 hPa 0,0 l/m² 8,1 km/h (2 Bft) N 355 ° 1 min 105 W/m² 13,5 °C 26,1 °C 12,9 km/h (3 Bft)
09.06.2023 18:21 22,6 °C 26,3 °C 57 % 46 % 1013,5 hPa 0,0 l/m² 7,3 km/h (2 Bft) N-NW 348 ° 1 min 100 W/m² 13,7 °C 26,1 °C 9,7 km/h (2 Bft)
09.06.2023 18:22 22,6 °C 26,2 °C 57 % 46 % 1013,5 hPa 0,0 l/m² 7,4 km/h (2 Bft) N-NW 344 ° 1 min 93 W/m² 13,6 °C 26,0 °C 12,9 km/h (3 Bft)
09.06.2023 18:23 22,6 °C 26,1 °C 57 % 46 % 1013,4 hPa 0,0 l/m² 8,1 km/h (2 Bft) N 355 ° 1 min 88 W/m² 13,6 °C 25,7 °C 12,9 km/h (3 Bft)
09.06.2023 18:24 22,6 °C 26,1 °C 57 % 47 % 1013,5 hPa 0,0 l/m² 7,2 km/h (2 Bft) N-NW 348 ° 1 min 90 W/m² 13,9 °C 25,9 °C 9,7 km/h (2 Bft)
09.06.2023 18:25 22,6 °C 25,9 °C 57 % 47 % 1013,4 hPa 0,0 l/m² 8,1 km/h (2 Bft) NW 313 ° 1 min 90 W/m² 13,7 °C 25,5 °C 14,5 km/h (3 Bft)
09.06.2023 18:26 22,6 °C 25,8 °C 56 % 47 % 1013,5 hPa 0,0 l/m² 9,2 km/h (2 Bft) W-NW 302 ° 1 min 91 W/m² 13,6 °C 25,2 °C 12,9 km/h (3 Bft)
09.06.2023 18:27 22,6 °C 25,8 °C 56 % 47 % 1013,5 hPa 0,0 l/m² 8,6 km/h (2 Bft) N-NW 345 ° 1 min 93 W/m² 13,6 °C 25,3 °C 14,5 km/h (3 Bft)
09.06.2023 18:28 22,6 °C 25,8 °C 56 % 48 % 1013,5 hPa 0,0 l/m² 7,7 km/h (2 Bft) N-NW 338 ° 1 min 93 W/m² 13,9 °C 25,5 °C 9,7 km/h (2 Bft)
09.06.2023 18:29 22,6 °C 25,7 °C 56 % 48 % 1013,4 hPa 0,0 l/m² 6,8 km/h (2 Bft) N 360 ° 1 min 93 W/m² 13,9 °C 25,6 °C 12,9 km/h (3 Bft)
09.06.2023 18:30 22,5 °C 25,6 °C 56 % 48 % 1013,5 hPa 0,0 l/m² 7,0 km/h (2 Bft) N-NW 341 ° 1 min 111 W/m² 13,8 °C 25,5 °C 9,7 km/h (2 Bft)
09.06.2023 18:31 22,6 °C 25,6 °C 56 % 48 % 1013,4 hPa 0,0 l/m² 7,1 km/h (2 Bft) NW 314 ° 1 min 151 W/m² 13,8 °C 25,4 °C 9,7 km/h (2 Bft)
09.06.2023 18:32 22,6 °C 25,6 °C 56 % 48 % 1013,4 hPa 0,0 l/m² 7,2 km/h (2 Bft) NW 324 ° 1 min 197 W/m² 13,8 °C 25,4 °C 12,9 km/h (3 Bft)
09.06.2023 18:33 22,6 °C 25,6 °C 56 % 48 % 1013,4 hPa 0,0 l/m² 8,7 km/h (2 Bft) N-NW 338 ° 1 min 148 W/m² 13,8 °C 25,1 °C 12,9 km/h (3 Bft)
09.06.2023 18:34 22,6 °C 25,6 °C 56 % 48 % 1013,4 hPa 0,0 l/m² 8,2 km/h (2 Bft) N-NW 339 ° 1 min 227 W/m² 13,8 °C 25,2 °C 12,9 km/h (3 Bft)
09.06.2023 18:35 22,6 °C 25,6 °C 56 % 48 % 1013,4 hPa 0,0 l/m² 7,2 km/h (2 Bft) N-NW 342 ° 1 min 230 W/m² 13,8 °C 25,4 °C 8,0 km/h (2 Bft)
09.06.2023 18:36 22,6 °C 25,6 °C 56 % 48 % 1013,4 hPa 0,0 l/m² 8,4 km/h (2 Bft) N-NW 347 ° 1 min 292 W/m² 13,8 °C 25,1 °C 14,5 km/h (3 Bft)
09.06.2023 18:37 22,6 °C 25,6 °C 56 % 48 % 1013,4 hPa 0,0 l/m² 8,7 km/h (2 Bft) N-NW 333 ° 1 min 285 W/m² 13,8 °C 25,1 °C 14,5 km/h (3 Bft)
09.06.2023 18:38 22,5 °C 25,7 °C 56 % 48 % 1013,4 hPa 0,0 l/m² 8,2 km/h (2 Bft) N 355 ° 1 min 276 W/m² 13,9 °C 25,3 °C 12,9 km/h (3 Bft)
09.06.2023 18:39 22,5 °C 25,7 °C 56 % 48 % 1013,4 hPa 0,0 l/m² 9,6 km/h (2 Bft) N-NW 344 ° 1 min 255 W/m² 13,9 °C 25,0 °C 14,5 km/h (3 Bft)
09.06.2023 18:40 22,6 °C 25,7 °C 56 % 48 % 1013,4 hPa 0,0 l/m² 9,3 km/h (2 Bft) N-NW 333 ° 1 min 120 W/m² 13,9 °C 25,1 °C 12,9 km/h (3 Bft)
09.06.2023 18:41 22,6 °C 25,7 °C 56 % 48 % 1013,4 hPa 0,0 l/m² 7,8 km/h (2 Bft) N-NO 13 ° 1 min 121 W/m² 13,9 °C 25,4 °C 12,9 km/h (3 Bft)
09.06.2023 18:42 22,5 °C 25,8 °C 56 % 49 % 1013,4 hPa 0,0 l/m² 7,4 km/h (2 Bft) N-NW 342 ° 1 min 116 W/m² 14,3 °C 25,6 °C 12,9 km/h (3 Bft)
09.06.2023 18:43 22,5 °C 25,8 °C 56 % 49 % 1013,4 hPa 0,0 l/m² 6,2 km/h (2 Bft) N-NW 344 ° 1 min 111 W/m² 14,3 °C 25,8 °C 8,0 km/h (2 Bft)
09.06.2023 18:44 22,6 °C 25,9 °C 56 % 48 % 1013,4 hPa 0,0 l/m² 8,0 km/h (2 Bft) N 360 ° 1 min 100 W/m² 14,0 °C 25,5 °C 12,9 km/h (3 Bft)
09.06.2023 18:46 22,6 °C 26,1 °C 56 % 48 % 1013,4 hPa 0,0 l/m² 7,0 km/h (2 Bft) N 350 ° 2 min 98 W/m² 14,2 °C 26,0 °C 12,9 km/h (3 Bft)
09.06.2023 18:47 22,6 °C 26,1 °C 56 % 48 % 1013,3 hPa 0,0 l/m² 8,5 km/h (2 Bft) N 355 ° 1 min 100 W/m² 14,2 °C 25,7 °C 14,5 km/h (3 Bft)
09.06.2023 18:48 22,5 °C 26,2 °C 56 % 48 % 1013,3 hPa 0,0 l/m² 6,6 km/h (2 Bft) N-NW 344 ° 1 min 95 W/m² 14,3 °C 26,2 °C 9,7 km/h (2 Bft)
09.06.2023 18:49 22,5 °C 26,3 °C 56 % 48 % 1013,3 hPa 0,0 l/m² 6,7 km/h (2 Bft) N-NW 348 ° 1 min 97 W/m² 14,4 °C 26,2 °C 9,7 km/h (2 Bft)
09.06.2023 18:50 22,6 °C 26,3 °C 56 % 47 % 1013,3 hPa 0,0 l/m² 6,0 km/h (2 Bft) N 360 ° 1 min 91 W/m² 14,1 °C 26,3 °C 12,9 km/h (3 Bft)
09.06.2023 18:51 22,6 °C 26,4 °C 56 % 47 % 1013,4 hPa 0,0 l/m² 7,1 km/h (2 Bft) N 5 ° 1 min 90 W/m² 14,2 °C 26,3 °C 12,9 km/h (3 Bft)
09.06.2023 18:52 22,6 °C 26,4 °C 56 % 46 % 1013,4 hPa 0,0 l/m² 9,1 km/h (2 Bft) N-NW 331 ° 1 min 91 W/m² 13,8 °C 25,9 °C 12,9 km/h (3 Bft)
09.06.2023 18:53 22,5 °C 26,3 °C 56 % 47 % 1013,4 hPa 0,0 l/m² 9,0 km/h (2 Bft) N 360 ° 1 min 91 W/m² 14,1 °C 25,8 °C 16,1 km/h (3 Bft)
09.06.2023 18:54 22,5 °C 26,4 °C 56 % 46 % 1013,4 hPa 0,0 l/m² 7,3 km/h (2 Bft) N-NW 348 ° 1 min 95 W/m² 13,8 °C 26,2 °C 12,9 km/h (3 Bft)
09.06.2023 18:55 22,5 °C 26,3 °C 56 % 47 % 1013,4 hPa 0,0 l/m² 8,7 km/h (2 Bft) N 5 ° 1 min 95 W/m² 14,1 °C 25,8 °C 12,9 km/h (3 Bft)
09.06.2023 18:56 22,5 °C 26,4 °C 56 % 46 % 1013,4 hPa 0,0 l/m² 10,8 km/h (2 Bft) N-NW 348 ° 1 min 95 W/m² 13,8 °C 25,6 °C 17,7 km/h (3 Bft)
09.06.2023 18:57 22,5 °C 26,4 °C 56 % 46 % 1013,4 hPa 0,0 l/m² 7,5 km/h (2 Bft) N-NW 347 ° 1 min 95 W/m² 13,8 °C 26,2 °C 11,3 km/h (2 Bft)
09.06.2023 18:58 22,6 °C 26,4 °C 56 % 45 % 1013,4 hPa 0,0 l/m² 9,9 km/h (2 Bft) N 355 ° 1 min 95 W/m² 13,5 °C 25,7 °C 14,5 km/h (3 Bft)
09.06.2023 18:59 22,6 °C 26,5 °C 56 % 45 % 1013,3 hPa 0,0 l/m² 5,8 km/h (2 Bft) N-NO 25 ° 1 min 93 W/m² 13,6 °C 26,5 °C 6,4 km/h (2 Bft)
09.06.2023 19:00 22,5 °C 26,5 °C 56 % 46 % 1013,4 hPa 0,0 l/m² 6,0 km/h (2 Bft) N-NW 338 ° 1 min 91 W/m² 13,9 °C 26,5 °C 9,7 km/h (2 Bft)
09.06.2023 19:01 22,5 °C 26,6 °C 56 % 45 % 1013,4 hPa 0,0 l/m² 5,6 km/h (2 Bft) N-NW 340 ° 1 min 91 W/m² 13,7 °C 26,6 °C 9,7 km/h (2 Bft)
09.06.2023 19:02 22,5 °C 26,6 °C 56 % 45 % 1013,5 hPa 0,0 l/m² 8,8 km/h (2 Bft) N-NO 15 ° 1 min 91 W/m² 13,7 °C 26,1 °C 16,1 km/h (3 Bft)
09.06.2023 19:03 22,5 °C 26,7 °C 56 % 44 % 1013,4 hPa 0,0 l/m² 9,4 km/h (2 Bft) N 355 ° 1 min 93 W/m² 13,4 °C 26,1 °C 14,5 km/h (3 Bft)
09.06.2023 19:04 22,5 °C 26,7 °C 56 % 44 % 1013,4 hPa 0,0 l/m² 8,2 km/h (2 Bft) N-NW 346 ° 1 min 95 W/m² 13,4 °C 26,3 °C 12,9 km/h (3 Bft)
09.06.2023 19:05 22,5 °C 26,7 °C 56 % 44 % 1013,5 hPa 0,0 l/m² 6,4 km/h (2 Bft) N-NW 338 ° 1 min 93 W/m² 13,4 °C 26,7 °C 12,9 km/h (3 Bft)
09.06.2023 19:06 22,5 °C 26,8 °C 56 % 44 % 1013,4 hPa 0,0 l/m² 10,9 km/h (2 Bft) N-NW 347 ° 1 min 93 W/m² 13,5 °C 26,0 °C 14,5 km/h (3 Bft)
09.06.2023 19:07 22,5 °C 26,8 °C 56 % 43 % 1013,5 hPa 0,0 l/m² 6,6 km/h (2 Bft) N-NO 13 ° 1 min 98 W/m² 13,2 °C 26,8 °C 9,7 km/h (2 Bft)
09.06.2023 19:08 22,5 °C 26,8 °C 56 % 43 % 1013,4 hPa 0,0 l/m² 5,9 km/h (2 Bft) N 11 ° 1 min 100 W/m² 13,2 °C 26,8 °C 11,3 km/h (2 Bft)
09.06.2023 19:09 22,5 °C 26,8 °C 56 % 44 % 1013,4 hPa 0,0 l/m² 3,2 km/h (1 Bft) N 11 ° 1 min 98 W/m² 13,5 °C 26,8 °C 4,8 km/h (1 Bft)
09.06.2023 19:10 22,5 °C 26,9 °C 56 % 44 % 1013,5 hPa 0,0 l/m² 0,9 km/h (0 Bft) N-NW 337 ° 1 min 90 W/m² 13,6 °C 26,9 °C 3,2 km/h (1 Bft)
09.06.2023 19:11 22,5 °C 26,9 °C 56 % 44 % 1013,5 hPa 0,0 l/m² 6,9 km/h (2 Bft) N-NO 23 ° 1 min 88 W/m² 13,6 °C 26,8 °C 9,7 km/h (2 Bft)
09.06.2023 19:12 22,5 °C 26,9 °C 56 % 44 % 1013,5 hPa 0,0 l/m² 7,7 km/h (2 Bft) NO 34 ° 1 min 88 W/m² 13,6 °C 26,7 °C 14,5 km/h (3 Bft)
09.06.2023 19:13 22,5 °C 26,8 °C 56 % 43 % 1013,5 hPa 0,0 l/m² 10,3 km/h (2 Bft) N-NW 348 ° 1 min 90 W/m² 13,2 °C 26,1 °C 16,1 km/h (3 Bft)
09.06.2023 19:14 22,5 °C 26,8 °C 56 % 42 % 1013,5 hPa 0,0 l/m² 9,9 km/h (2 Bft) N 355 ° 1 min 90 W/m² 12,8 °C 26,2 °C 14,5 km/h (3 Bft)
09.06.2023 19:15 22,5 °C 26,8 °C 56 % 43 % 1013,5 hPa 0,0 l/m² 7,2 km/h (2 Bft) N-NO 15 ° 1 min 90 W/m² 13,2 °C 26,6 °C 9,7 km/h (2 Bft)
09.06.2023 19:16 22,5 °C 26,7 °C 56 % 43 % 1013,4 hPa 0,0 l/m² 6,4 km/h (2 Bft) O-NO 61 ° 1 min 88 W/m² 13,1 °C 26,7 °C 16,1 km/h (3 Bft)
09.06.2023 19:17 22,5 °C 26,6 °C 56 % 44 % 1013,4 hPa 0,0 l/m² 5,0 km/h (1 Bft) NO 35 ° 1 min 90 W/m² 13,3 °C 26,6 °C 8,0 km/h (2 Bft)
09.06.2023 19:18 22,5 °C 26,5 °C 56 % 44 % 1013,5 hPa 0,0 l/m² 3,6 km/h (1 Bft) N-NO 27 ° 1 min 93 W/m² 13,2 °C 26,5 °C 8,0 km/h (2 Bft)
09.06.2023 19:19 22,5 °C 26,5 °C 56 % 44 % 1013,5 hPa 0,0 l/m² 7,9 km/h (2 Bft) N 355 ° 1 min 97 W/m² 13,2 °C 26,2 °C 14,5 km/h (3 Bft)
09.06.2023 19:20 22,5 °C 26,4 °C 56 % 44 % 1013,5 hPa 0,0 l/m² 5,9 km/h (2 Bft) N 360 ° 1 min 100 W/m² 13,1 °C 26,4 °C 9,7 km/h (2 Bft)
09.06.2023 19:21 22,4 °C 26,4 °C 56 % 44 % 1013,4 hPa 0,0 l/m² 7,6 km/h (2 Bft) N-NW 338 ° 1 min 97 W/m² 13,1 °C 26,2 °C 9,7 km/h (2 Bft)
09.06.2023 19:22 22,5 °C 26,4 °C 56 % 43 % 1013,5 hPa 0,0 l/m² 9,3 km/h (2 Bft) O-NO 58 ° 1 min 84 W/m² 12,8 °C 25,8 °C 14,5 km/h (3 Bft)
09.06.2023 19:23 22,5 °C 26,4 °C 56 % 43 % 1013,5 hPa 0,0 l/m² 5,4 km/h (2 Bft) NO 34 ° 1 min 79 W/m² 12,8 °C 26,4 °C 9,7 km/h (2 Bft)
09.06.2023 19:24 22,4 °C 26,3 °C 56 % 43 % 1013,5 hPa 0,0 l/m² 10,5 km/h (2 Bft) NO 40 ° 1 min 76 W/m² 12,7 °C 25,5 °C 16,1 km/h (3 Bft)
09.06.2023 19:25 22,5 °C 26,3 °C 56 % 43 % 1013,5 hPa 0,0 l/m² 6,9 km/h (2 Bft) N-NO 16 ° 1 min 72 W/m² 12,7 °C 26,2 °C 11,3 km/h (2 Bft)
09.06.2023 19:26 22,4 °C 26,3 °C 56 % 43 % 1013,5 hPa 0,0 l/m² 6,8 km/h (2 Bft) N-NO 16 ° 1 min 70 W/m² 12,7 °C 26,2 °C 12,9 km/h (3 Bft)
09.06.2023 19:27 22,5 °C 26,3 °C 56 % 43 % 1013,6 hPa 0,0 l/m² 4,8 km/h (1 Bft) N-NO 20 ° 1 min 65 W/m² 12,7 °C 26,3 °C 8,0 km/h (2 Bft)
09.06.2023 19:28 22,4 °C 26,2 °C 56 % 44 % 1013,5 hPa 0,0 l/m² 5,6 km/h (2 Bft) N-NO 33 ° 1 min 63 W/m² 13,0 °C 26,2 °C 8,0 km/h (2 Bft)
09.06.2023 19:29 22,4 °C 26,2 °C 56 % 44 % 1013,5 hPa 0,0 l/m² 6,9 km/h (2 Bft) N 5 ° 1 min 63 W/m² 13,0 °C 26,1 °C 9,7 km/h (2 Bft)
09.06.2023 19:30 22,5 °C 26,1 °C 56 % 43 % 1013,5 hPa 0,0 l/m² 3,8 km/h (1 Bft) N 10 ° 1 min 63 W/m² 12,5 °C 26,1 °C 6,4 km/h (2 Bft)
09.06.2023 19:31 22,5 °C 26,1 °C 56 % 44 % 1013,5 hPa 0,0 l/m² 7,8 km/h (2 Bft) N-NO 25 ° 1 min 65 W/m² 12,9 °C 25,8 °C 12,9 km/h (3 Bft)
09.06.2023 19:32 22,5 °C 26,1 °C 56 % 44 % 1013,6 hPa 0,0 l/m² 5,8 km/h (2 Bft) N 355 ° 1 min 69 W/m² 12,9 °C 26,1 °C 12,9 km/h (3 Bft)
09.06.2023 19:33 22,4 °C 26,1 °C 56 % 44 % 1013,5 hPa 0,0 l/m² 4,3 km/h (1 Bft) N 5 ° 1 min 72 W/m² 12,9 °C 26,1 °C 6,4 km/h (2 Bft)
09.06.2023 19:34 22,5 °C 26,0 °C 56 % 44 % 1013,5 hPa 0,0 l/m² 6,4 km/h (2 Bft) N-NO 26 ° 1 min 77 W/m² 12,8 °C 26,0 °C 11,3 km/h (2 Bft)
09.06.2023 19:35 22,5 °C 25,9 °C 56 % 44 % 1013,5 hPa 0,0 l/m² 6,3 km/h (2 Bft) N-NO 24 ° 1 min 77 W/m² 12,7 °C 25,9 °C 11,3 km/h (2 Bft)
09.06.2023 19:36 22,4 °C 25,9 °C 56 % 45 % 1013,5 hPa 0,0 l/m² 5,4 km/h (2 Bft) N 360 ° 1 min 77 W/m² 13,0 °C 25,9 °C 8,0 km/h (2 Bft)
09.06.2023 19:37 22,4 °C 25,9 °C 56 % 44 % 1013,5 hPa 0,0 l/m² 5,8 km/h (2 Bft) N-NO 28 ° 1 min 77 W/m² 12,7 °C 25,9 °C 9,7 km/h (2 Bft)
09.06.2023 19:38 22,4 °C 25,9 °C 56 % 45 % 1013,5 hPa 0,0 l/m² 5,9 km/h (2 Bft) N-NO 21 ° 1 min 79 W/m² 13,0 °C 25,9 °C 11,3 km/h (2 Bft)
09.06.2023 19:39 22,5 °C 25,9 °C 56 % 45 % 1013,6 hPa 0,0 l/m² 5,0 km/h (1 Bft) N-NO 19 ° 1 min 79 W/m² 13,0 °C 25,9 °C 8,0 km/h (2 Bft)
09.06.2023 19:40 22,5 °C 25,9 °C 56 % 45 % 1013,5 hPa 0,0 l/m² 6,2 km/h (2 Bft) N-NW 344 ° 1 min 81 W/m² 13,0 °C 25,9 °C 11,3 km/h (2 Bft)
09.06.2023 19:41 22,4 °C 25,9 °C 56 % 45 % 1013,5 hPa 0,0 l/m² 4,0 km/h (1 Bft) N-NW 346 ° 1 min 81 W/m² 13,0 °C 25,9 °C 4,8 km/h (1 Bft)
09.06.2023 19:42 22,4 °C 25,9 °C 56 % 45 % 1013,5 hPa 0,0 l/m² 4,7 km/h (1 Bft) N 10 ° 1 min 81 W/m² 13,0 °C 25,9 °C 6,4 km/h (2 Bft)
09.06.2023 19:43 22,4 °C 25,9 °C 56 % 46 % 1013,5 hPa 0,0 l/m² 3,2 km/h (1 Bft) N 11 ° 1 min 81 W/m² 13,4 °C 25,9 °C 4,8 km/h (1 Bft)
09.06.2023 19:44 22,4 °C 25,9 °C 56 % 46 % 1013,6 hPa 0,0 l/m² 5,6 km/h (2 Bft) N-NW 347 ° 1 min 83 W/m² 13,4 °C 25,9 °C 11,3 km/h (2 Bft)
09.06.2023 19:45 22,5 °C 25,9 °C 56 % 46 % 1013,6 hPa 0,0 l/m² 6,2 km/h (2 Bft) N-NW 334 ° 1 min 83 W/m² 13,4 °C 25,9 °C 9,7 km/h (2 Bft)
09.06.2023 19:46 22,5 °C 25,9 °C 56 % 45 % 1013,6 hPa 0,0 l/m² 6,1 km/h (2 Bft) N 355 ° 1 min 83 W/m² 13,0 °C 25,9 °C 8,0 km/h (2 Bft)
09.06.2023 19:47 22,4 °C 25,9 °C 56 % 45 % 1013,5 hPa 0,0 l/m² 6,8 km/h (2 Bft) N 355 ° 1 min 83 W/m² 13,0 °C 25,8 °C 9,7 km/h (2 Bft)
09.06.2023 19:48 22,4 °C 25,9 °C 56 % 45 % 1013,6 hPa 0,0 l/m² 4,9 km/h (1 Bft) N 5 ° 1 min 79 W/m² 13,0 °C 25,9 °C 6,4 km/h (2 Bft)
09.06.2023 19:49 22,4 °C 25,9 °C 56 % 46 % 1013,5 hPa 0,0 l/m² 4,8 km/h (1 Bft) N-NO 24 ° 1 min 77 W/m² 13,4 °C 25,9 °C 6,4 km/h (2 Bft)
09.06.2023 19:50 22,4 °C 25,9 °C 56 % 45 % 1013,6 hPa 0,0 l/m² 5,4 km/h (2 Bft) N 355 ° 1 min 74 W/m² 13,0 °C 25,9 °C 8,0 km/h (2 Bft)
09.06.2023 19:51 22,4 °C 25,9 °C 56 % 46 % 1013,6 hPa 0,0 l/m² 6,4 km/h (2 Bft) N 349 ° 1 min 69 W/m² 13,4 °C 25,9 °C 8,0 km/h (2 Bft)
09.06.2023 19:52 22,4 °C 25,9 °C 56 % 46 % 1013,6 hPa 0,0 l/m² 6,4 km/h (2 Bft) N-NW 345 ° 1 min 67 W/m² 13,4 °C 25,9 °C 9,7 km/h (2 Bft)
09.06.2023 19:53 22,4 °C 25,9 °C 57 % 46 % 1013,6 hPa 0,0 l/m² 4,1 km/h (1 Bft) N-NW 342 ° 1 min 67 W/m² 13,4 °C 25,9 °C 6,4 km/h (2 Bft)
09.06.2023 19:54 22,4 °C 25,9 °C 56 % 46 % 1013,6 hPa 0,0 l/m² 7,0 km/h (2 Bft) N 351 ° 1 min 63 W/m² 13,4 °C 25,8 °C 12,9 km/h (3 Bft)
09.06.2023 19:55 22,5 °C 25,9 °C 56 % 46 % 1013,6 hPa 0,0 l/m² 6,7 km/h (2 Bft) N-NW 342 ° 1 min 63 W/m² 13,4 °C 25,8 °C 12,9 km/h (3 Bft)
09.06.2023 19:56 22,4 °C 25,9 °C 57 % 46 % 1013,6 hPa 0,0 l/m² 6,4 km/h (2 Bft) N-NO 28 ° 1 min 58 W/m² 13,4 °C 25,9 °C 8,0 km/h (2 Bft)
09.06.2023 19:57 22,4 °C 25,8 °C 57 % 47 % 1013,6 hPa 0,0 l/m² 6,4 km/h (2 Bft) N 5 ° 1 min 56 W/m² 13,6 °C 25,8 °C 9,7 km/h (2 Bft)
09.06.2023 19:58 22,4 °C 25,8 °C 56 % 46 % 1013,6 hPa 0,0 l/m² 6,7 km/h (2 Bft) N 9 ° 1 min 56 W/m² 13,3 °C 25,7 °C 9,7 km/h (2 Bft)
09.06.2023 19:59 22,5 °C 25,8 °C 56 % 47 % 1013,7 hPa 0,0 l/m² 7,1 km/h (2 Bft) N 355 ° 1 min 56 W/m² 13,6 °C 25,6 °C 9,7 km/h (2 Bft)
09.06.2023 20:00 22,4 °C 25,8 °C 56 % 46 % 1013,6 hPa 0,0 l/m² 6,0 km/h (2 Bft) N-NW 331 ° 1 min 54 W/m² 13,3 °C 25,8 °C 9,7 km/h (2 Bft)
09.06.2023 20:01 22,4 °C 25,7 °C 57 % 46 % 1013,6 hPa 0,0 l/m² 8,0 km/h (2 Bft) N 5 ° 1 min 54 W/m² 13,2 °C 25,3 °C 12,9 km/h (3 Bft)
09.06.2023 20:02 22,4 °C 25,7 °C 57 % 46 % 1013,6 hPa 0,0 l/m² 8,1 km/h (2 Bft) N-NW 345 ° 1 min 54 W/m² 13,2 °C 25,3 °C 11,3 km/h (2 Bft)
09.06.2023 20:03 22,4 °C 25,7 °C 56 % 46 % 1013,7 hPa 0,0 l/m² 7,4 km/h (2 Bft) N-NW 348 ° 1 min 54 W/m² 13,2 °C 25,5 °C 9,7 km/h (2 Bft)
09.06.2023 20:04 22,4 °C 25,7 °C 57 % 46 % 1013,6 hPa 0,0 l/m² 6,3 km/h (2 Bft) N-NW 342 ° 1 min 54 W/m² 13,2 °C 25,7 °C 11,3 km/h (2 Bft)
09.06.2023 20:05 22,4 °C 25,7 °C 57 % 46 % 1013,6 hPa 0,0 l/m² 8,3 km/h (2 Bft) N 350 ° 1 min 54 W/m² 13,2 °C 25,3 °C 12,9 km/h (3 Bft)
09.06.2023 20:06 22,4 °C 25,6 °C 57 % 46 % 1013,6 hPa 0,0 l/m² 6,0 km/h (2 Bft) N-NO 24 ° 1 min 54 W/m² 13,1 °C 25,6 °C 9,7 km/h (2 Bft)
09.06.2023 20:07 22,4 °C 25,6 °C 57 % 46 % 1013,6 hPa 0,0 l/m² 4,6 km/h (1 Bft) N 355 ° 1 min 53 W/m² 13,1 °C 25,6 °C 6,4 km/h (2 Bft)
09.06.2023 20:08 22,4 °C 25,6 °C 57 % 46 % 1013,7 hPa 0,0 l/m² 4,9 km/h (1 Bft) N 350 ° 0 min 51 W/m² 13,1 °C 25,6 °C 6,4 km/h (2 Bft)
09.06.2023 20:09 22,4 °C 25,5 °C 57 % 46 % 1013,7 hPa 0,0 l/m² 6,0 km/h (2 Bft) N 360 ° 0 min 51 W/m² 13,0 °C 25,5 °C 11,3 km/h (2 Bft)
09.06.2023 20:10 22,4 °C 25,5 °C 57 % 46 % 1013,7 hPa 0,0 l/m² 5,1 km/h (1 Bft) N 355 ° 0 min 49 W/m² 13,0 °C 25,5 °C 8,0 km/h (2 Bft)
09.06.2023 20:11 22,4 °C 25,4 °C 57 % 46 % 1013,7 hPa 0,0 l/m² 3,0 km/h (1 Bft) N-NW 331 ° 0 min 49 W/m² 12,9 °C 25,4 °C 6,4 km/h (2 Bft)
09.06.2023 20:12 22,4 °C 25,4 °C 57 % 46 % 1013,7 hPa 0,0 l/m² 3,9 km/h (1 Bft) N-NW 347 ° 0 min 47 W/m² 12,9 °C 25,4 °C 6,4 km/h (2 Bft)
09.06.2023 20:13 22,4 °C 25,3 °C 57 % 46 % 1013,7 hPa 0,0 l/m² 4,9 km/h (1 Bft) N-NW 342 ° 0 min 46 W/m² 12,8 °C 25,3 °C 8,0 km/h (2 Bft)
09.06.2023 20:14 22,5 °C 25,3 °C 57 % 47 % 1013,7 hPa 0,0 l/m² 5,2 km/h (1 Bft) N 349 ° 0 min 42 W/m² 13,2 °C 25,3 °C 6,4 km/h (2 Bft)
09.06.2023 20:15 22,4 °C 25,2 °C 57 % 46 % 1013,7 hPa 0,0 l/m² 3,8 km/h (1 Bft) N-NW 339 ° 0 min 42 W/m² 12,7 °C 25,2 °C 4,8 km/h (1 Bft)
09.06.2023 20:16 22,4 °C 25,2 °C 57 % 46 % 1013,7 hPa 0,0 l/m² 5,6 km/h (2 Bft) NW 324 ° 0 min 40 W/m² 12,7 °C 25,2 °C 8,0 km/h (2 Bft)
09.06.2023 20:17 22,4 °C 25,2 °C 57 % 46 % 1013,7 hPa 0,0 l/m² 6,2 km/h (2 Bft) N 355 ° 0 min 40 W/m² 12,7 °C 25,2 °C 8,0 km/h (2 Bft)
09.06.2023 20:18 22,4 °C 25,2 °C 57 % 46 % 1013,7 hPa 0,0 l/m² 7,5 km/h (2 Bft) NO 40 ° 0 min 40 W/m² 12,7 °C 24,9 °C 12,9 km/h (3 Bft)
09.06.2023 20:19 22,4 °C 25,2 °C 57 % 46 % 1013,7 hPa 0,0 l/m² 8,1 km/h (2 Bft) N 355 ° 0 min 40 W/m² 12,7 °C 24,8 °C 12,9 km/h (3 Bft)
09.06.2023 20:20 22,4 °C 25,2 °C 57 % 46 % 1013,7 hPa 0,0 l/m² 4,8 km/h (1 Bft) NO 43 ° 0 min 42 W/m² 12,7 °C 25,2 °C 8,0 km/h (2 Bft)
09.06.2023 20:21 22,4 °C 25,2 °C 57 % 46 % 1013,7 hPa 0,0 l/m² 4,0 km/h (1 Bft) N 350 ° 0 min 42 W/m² 12,7 °C 25,2 °C 4,8 km/h (1 Bft)
09.06.2023 20:22 22,4 °C 25,2 °C 57 % 46 % 1013,7 hPa 0,0 l/m² 6,4 km/h (2 Bft) N 360 ° 0 min 42 W/m² 12,7 °C 25,2 °C 11,3 km/h (2 Bft)
09.06.2023 20:23 22,4 °C 25,1 °C 56 % 45 % 1013,7 hPa 0,0 l/m² 4,4 km/h (1 Bft) N 5 ° 0 min 44 W/m² 12,3 °C 25,1 °C 8,0 km/h (2 Bft)
09.06.2023 20:24 22,5 °C 25,1 °C 57 % 46 % 1013,8 hPa 0,0 l/m² 6,3 km/h (2 Bft) N 9 ° 0 min 44 W/m² 12,7 °C 25,1 °C 11,3 km/h (2 Bft)
09.06.2023 20:25 22,4 °C 25,1 °C 57 % 45 % 1013,8 hPa 0,0 l/m² 6,7 km/h (2 Bft) N-NW 346 ° 0 min 44 W/m² 12,3 °C 25,0 °C 9,7 km/h (2 Bft)
09.06.2023 20:26 22,4 °C 25,1 °C 57 % 45 % 1013,8 hPa 0,0 l/m² 7,2 km/h (2 Bft) N 9 ° 0 min 44 W/m² 12,3 °C 24,9 °C 9,7 km/h (2 Bft)
09.06.2023 20:27 22,4 °C 25,1 °C 57 % 45 % 1013,8 hPa 0,0 l/m² 5,2 km/h (1 Bft) N 5 ° 0 min 44 W/m² 12,3 °C 25,1 °C 6,4 km/h (2 Bft)
09.06.2023 20:28 22,4 °C 25,1 °C 57 % 45 % 1013,8 hPa 0,0 l/m² 5,3 km/h (1 Bft) N 5 ° 0 min 42 W/m² 12,3 °C 25,1 °C 8,0 km/h (2 Bft)
09.06.2023 20:29 22,5 °C 25,0 °C 57 % 45 % 1013,9 hPa 0,0 l/m² 4,2 km/h (1 Bft) N-NO 31 ° 0 min 42 W/m² 12,2 °C 25,0 °C 8,0 km/h (2 Bft)
09.06.2023 20:30 22,5 °C 24,9 °C 57 % 46 % 1013,8 hPa 0,0 l/m² 2,6 km/h (1 Bft) N 355 ° 0 min 42 W/m² 12,5 °C 24,9 °C 3,2 km/h (1 Bft)
09.06.2023 20:31 22,4 °C 24,9 °C 57 % 46 % 1013,8 hPa 0,0 l/m² 3,2 km/h (1 Bft) N 355 ° 0 min 42 W/m² 12,5 °C 24,9 °C 6,4 km/h (2 Bft)
09.06.2023 20:32 22,4 °C 24,8 °C 56 % 46 % 1013,7 hPa 0,0 l/m² 5,6 km/h (2 Bft) N-NW 344 ° 0 min 40 W/m² 12,4 °C 24,8 °C 8,0 km/h (2 Bft)
09.06.2023 20:33 22,4 °C 24,8 °C 57 % 46 % 1013,8 hPa 0,0 l/m² 5,1 km/h (1 Bft) N 355 ° 0 min 40 W/m² 12,4 °C 24,8 °C 9,7 km/h (2 Bft)
09.06.2023 20:34 22,4 °C 24,8 °C 57 % 46 % 1013,8 hPa 0,0 l/m² 5,8 km/h (2 Bft) N 360 ° 0 min 39 W/m² 12,4 °C 24,8 °C 9,7 km/h (2 Bft)
09.06.2023 20:35 22,4 °C 24,7 °C 57 % 46 % 1013,8 hPa 0,0 l/m² 6,7 km/h (2 Bft) N 355 ° 0 min 39 W/m² 12,3 °C 24,6 °C 9,7 km/h (2 Bft)
09.06.2023 20:36 22,4 °C 24,7 °C 57 % 46 % 1013,8 hPa 0,0 l/m² 4,0 km/h (1 Bft) N 349 ° 0 min 40 W/m² 12,3 °C 24,7 °C 6,4 km/h (2 Bft)
09.06.2023 20:37 22,4 °C 24,7 °C 57 % 46 % 1013,8 hPa 0,0 l/m² 6,1 km/h (2 Bft) N 360 ° 0 min 40 W/m² 12,3 °C 24,7 °C 9,7 km/h (2 Bft)
09.06.2023 20:38 22,4 °C 24,6 °C 57 % 46 % 1013,8 hPa 0,0 l/m² 6,3 km/h (2 Bft) N 360 ° 0 min 40 W/m² 12,2 °C 24,6 °C 8,0 km/h (2 Bft)
09.06.2023 20:39 22,5 °C 24,6 °C 57 % 46 % 1013,8 hPa 0,0 l/m² 6,2 km/h (2 Bft) N-NW 342 ° 0 min 39 W/m² 12,2 °C 24,6 °C 8,0 km/h (2 Bft)
09.06.2023 20:40 22,4 °C 24,6 °C 57 % 47 % 1013,8 hPa 0,0 l/m² 6,2 km/h (2 Bft) N-NW 345 ° 0 min 39 W/m² 12,5 °C 24,6 °C 8,0 km/h (2 Bft)
09.06.2023 20:41 22,4 °C 24,4 °C 57 % 47 % 1013,9 hPa 0,0 l/m² 4,7 km/h (1 Bft) N-NW 340 ° 0 min 35 W/m² 12,3 °C 24,4 °C 6,4 km/h (2 Bft)
09.06.2023 20:42 22,4 °C 24,4 °C 57 % 47 % 1013,9 hPa 0,0 l/m² 6,4 km/h (2 Bft) N-NW 345 ° 0 min 33 W/m² 12,3 °C 24,4 °C 11,3 km/h (2 Bft)
09.06.2023 20:43 22,4 °C 24,3 °C 57 % 47 % 1013,8 hPa 0,0 l/m² 5,6 km/h (2 Bft) N 360 ° 0 min 33 W/m² 12,3 °C 24,3 °C 8,0 km/h (2 Bft)
09.06.2023 20:44 22,5 °C 24,3 °C 57 % 48 % 1013,8 hPa 0,0 l/m² 5,7 km/h (2 Bft) N 355 ° 0 min 28 W/m² 12,6 °C 24,3 °C 8,0 km/h (2 Bft)
09.06.2023 20:45 22,5 °C 24,2 °C 57 % 48 % 1013,9 hPa 0,0 l/m² 6,4 km/h (2 Bft) N 355 ° 0 min 26 W/m² 12,5 °C 24,2 °C 9,7 km/h (2 Bft)
09.06.2023 20:46 22,4 °C 24,2 °C 57 % 48 % 1013,8 hPa 0,0 l/m² 6,6 km/h (2 Bft) N 5 ° 0 min 25 W/m² 12,5 °C 24,2 °C 9,7 km/h (2 Bft)
09.06.2023 20:47 22,4 °C 24,1 °C 57 % 48 % 1013,9 hPa 0,0 l/m² 5,3 km/h (1 Bft) N-NW 348 ° 0 min 25 W/m² 12,4 °C 24,1 °C 6,4 km/h (2 Bft)
09.06.2023 20:48 22,5 °C 24,1 °C 57 % 48 % 1013,9 hPa 0,0 l/m² 5,6 km/h (2 Bft) N 355 ° 0 min 23 W/m² 12,4 °C 24,1 °C 8,0 km/h (2 Bft)
09.06.2023 20:49 22,5 °C 24,0 °C 57 % 48 % 1013,8 hPa 0,0 l/m² 5,6 km/h (2 Bft) N-NW 348 ° 0 min 23 W/m² 12,3 °C 24,0 °C 6,4 km/h (2 Bft)
09.06.2023 20:50 22,5 °C 23,9 °C 57 % 49 % 1013,8 hPa 0,0 l/m² 5,8 km/h (2 Bft) N 5 ° 0 min 21 W/m² 12,5 °C 23,9 °C 6,4 km/h (2 Bft)
09.06.2023 20:51 22,5 °C 23,8 °C 57 % 49 % 1013,9 hPa 0,0 l/m² 6,7 km/h (2 Bft) N 5 ° 0 min 21 W/m² 12,4 °C 23,7 °C 8,0 km/h (2 Bft)
09.06.2023 20:52 22,5 °C 23,8 °C 57 % 49 % 1013,9 hPa 0,0 l/m² 4,9 km/h (1 Bft) N 349 ° 0 min 21 W/m² 12,4 °C 23,8 °C 6,4 km/h (2 Bft)
09.06.2023 20:53 22,5 °C 23,7 °C 57 % 49 % 1013,9 hPa 0,0 l/m² 7,1 km/h (2 Bft) N-NO 13 ° 0 min 21 W/m² 12,3 °C 23,5 °C 12,9 km/h (3 Bft)
09.06.2023 20:54 22,5 °C 23,7 °C 57 % 49 % 1013,9 hPa 0,0 l/m² 6,8 km/h (2 Bft) N-NW 334 ° 0 min 21 W/m² 12,3 °C 23,6 °C 8,0 km/h (2 Bft)
09.06.2023 20:55 22,6 °C 23,6 °C 57 % 49 % 1013,9 hPa 0,0 l/m² 6,2 km/h (2 Bft) N-NW 346 ° 0 min 19 W/m² 12,2 °C 23,6 °C 12,9 km/h (3 Bft)
09.06.2023 20:56 22,6 °C 23,6 °C 57 % 49 % 1014,0 hPa 0,0 l/m² 7,9 km/h (2 Bft) N-NW 347 ° 0 min 19 W/m² 12,2 °C 23,2 °C 11,3 km/h (2 Bft)
09.06.2023 20:57 22,6 °C 23,6 °C 57 % 49 % 1014,0 hPa 0,0 l/m² 6,8 km/h (2 Bft) N 355 ° 0 min 19 W/m² 12,2 °C 23,5 °C 12,9 km/h (3 Bft)
09.06.2023 20:58 22,6 °C 23,5 °C 58 % 49 % 1014,0 hPa 0,0 l/m² 7,3 km/h (2 Bft) N-NW 342 ° 0 min 19 W/m² 12,2 °C 23,2 °C 12,9 km/h (3 Bft)
09.06.2023 20:59 22,6 °C 23,4 °C 58 % 49 % 1014,0 hPa 0,0 l/m² 7,4 km/h (2 Bft) N 351 ° 0 min 19 W/m² 12,1 °C 23,1 °C 9,7 km/h (2 Bft)
09.06.2023 21:00 22,6 °C 23,4 °C 58 % 50 % 1014,0 hPa 0,0 l/m² 7,8 km/h (2 Bft) N-NW 344 ° 0 min 19 W/m² 12,4 °C 23,0 °C 12,9 km/h (3 Bft)
09.06.2023 21:01 22,6 °C 23,4 °C 58 % 49 % 1013,9 hPa 0,0 l/m² 8,8 km/h (2 Bft) N 360 ° 0 min 19 W/m² 12,1 °C 22,7 °C 12,9 km/h (3 Bft)
09.06.2023 21:02 22,6 °C 23,3 °C 58 % 49 % 1014,0 hPa 0,0 l/m² 10,1 km/h (2 Bft) N 349 ° 0 min 19 W/m² 12,0 °C 22,3 °C 14,5 km/h (3 Bft)
09.06.2023 21:03 22,6 °C 23,3 °C 58 % 49 % 1014,0 hPa 0,0 l/m² 8,3 km/h (2 Bft) N-NO 30 ° 0 min 19 W/m² 12,0 °C 22,7 °C 12,9 km/h (3 Bft)
09.06.2023 21:04 22,6 °C 23,3 °C 58 % 49 % 1014,0 hPa 0,0 l/m² 7,3 km/h (2 Bft) N-NW 341 ° 0 min 19 W/m² 12,0 °C 23,0 °C 9,7 km/h (2 Bft)
09.06.2023 21:05 22,6 °C 23,3 °C 58 % 49 % 1014,0 hPa 0,0 l/m² 9,9 km/h (2 Bft) N-NW 337 ° 0 min 18 W/m² 12,0 °C 22,3 °C 14,5 km/h (3 Bft)
09.06.2023 21:06 22,6 °C 23,2 °C 58 % 49 % 1014,0 hPa 0,0 l/m² 9,4 km/h (2 Bft) N-NW 328 ° 0 min 18 W/m² 11,9 °C 22,3 °C 12,9 km/h (3 Bft)
09.06.2023 21:07 22,6 °C 23,2 °C 58 % 50 % 1014,0 hPa 0,0 l/m² 8,7 km/h (2 Bft) N-NW 331 ° 0 min 16 W/m² 12,2 °C 22,5 °C 14,5 km/h (3 Bft)
09.06.2023 21:08 22,6 °C 23,1 °C 58 % 49 % 1014,0 hPa 0,0 l/m² 8,9 km/h (2 Bft) N-NW 345 ° 0 min 16 W/m² 11,8 °C 22,4 °C 12,9 km/h (3 Bft)
09.06.2023 21:09 22,6 °C 23,1 °C 58 % 50 % 1014,0 hPa 0,0 l/m² 8,9 km/h (2 Bft) N-NW 348 ° 0 min 14 W/m² 12,1 °C 22,4 °C 12,9 km/h (3 Bft)
09.06.2023 21:10 22,6 °C 23,0 °C 58 % 50 % 1014,0 hPa 0,0 l/m² 6,6 km/h (2 Bft) N-NW 332 ° 0 min 14 W/m² 12,0 °C 22,9 °C 9,7 km/h (2 Bft)
09.06.2023 21:11 22,6 °C 22,9 °C 58 % 50 % 1014,0 hPa 0,0 l/m² 6,0 km/h (2 Bft) N-NW 341 ° 0 min 12 W/m² 11,9 °C 22,9 °C 8,0 km/h (2 Bft)
09.06.2023 21:12 22,6 °C 22,9 °C 58 % 50 % 1014,0 hPa 0,0 l/m² 8,9 km/h (2 Bft) N-NW 334 ° 0 min 12 W/m² 11,9 °C 22,1 °C 12,9 km/h (3 Bft)
09.06.2023 21:13 22,6 °C 22,9 °C 58 % 50 % 1014,0 hPa 0,0 l/m² 7,4 km/h (2 Bft) N 5 ° 0 min 11 W/m² 11,9 °C 22,6 °C 9,7 km/h (2 Bft)
09.06.2023 21:14 22,6 °C 22,9 °C 58 % 50 % 1014,0 hPa 0,0 l/m² 8,2 km/h (2 Bft) N-NW 339 ° 0 min 9 W/m² 11,9 °C 22,3 °C 12,9 km/h (3 Bft)
09.06.2023 21:15 22,7 °C 22,8 °C 58 % 50 % 1014,1 hPa 0,0 l/m² 6,8 km/h (2 Bft) N 350 ° 0 min 9 W/m² 11,8 °C 22,7 °C 11,3 km/h (2 Bft)
09.06.2023 21:16 22,6 °C 22,8 °C 58 % 51 % 1014,0 hPa 0,0 l/m² 6,6 km/h (2 Bft) NW 320 ° 0 min 9 W/m² 12,1 °C 22,7 °C 8,0 km/h (2 Bft)
09.06.2023 21:17 22,7 °C 22,7 °C 58 % 51 % 1014,0 hPa 0,0 l/m² 7,0 km/h (2 Bft) N-NW 345 ° 0 min 9 W/m² 12,0 °C 22,5 °C 9,7 km/h (2 Bft)
09.06.2023 21:18 22,7 °C 22,7 °C 58 % 51 % 1013,9 hPa 0,0 l/m² 8,6 km/h (2 Bft) N-NW 332 ° 0 min 9 W/m² 12,0 °C 22,0 °C 12,9 km/h (3 Bft)
09.06.2023 21:19 22,7 °C 22,6 °C 58 % 51 % 1014,0 hPa 0,0 l/m² 8,4 km/h (2 Bft) N 355 ° 0 min 7 W/m² 11,9 °C 22,0 °C 12,9 km/h (3 Bft)
09.06.2023 21:20 22,7 °C 22,6 °C 58 % 51 % 1014,0 hPa 0,0 l/m² 7,6 km/h (2 Bft) N-NW 333 ° 0 min 7 W/m² 11,9 °C 22,2 °C 12,9 km/h (3 Bft)
09.06.2023 21:21 22,7 °C 22,6 °C 58 % 51 % 1014,0 hPa 0,0 l/m² 7,8 km/h (2 Bft) N 9 ° 0 min 5 W/m² 11,9 °C 22,1 °C 12,9 km/h (3 Bft)
09.06.2023 21:22 22,7 °C 22,6 °C 58 % 51 % 1014,1 hPa 0,0 l/m² 8,0 km/h (2 Bft) N 355 ° 0 min 5 W/m² 11,9 °C 22,1 °C 12,9 km/h (3 Bft)
09.06.2023 21:23 22,7 °C 22,5 °C 58 % 51 % 1013,9 hPa 0,0 l/m² 7,3 km/h (2 Bft) N-NW 334 ° 0 min 5 W/m² 11,8 °C 22,2 °C 12,9 km/h (3 Bft)
09.06.2023 21:24 22,7 °C 22,4 °C 58 % 51 % 1014,1 hPa 0,0 l/m² 9,5 km/h (2 Bft) N-NW 342 ° 0 min 5 W/m² 11,8 °C 21,4 °C 14,5 km/h (3 Bft)
09.06.2023 21:25 22,7 °C 22,4 °C 58 % 51 % 1014,0 hPa 0,0 l/m² 8,2 km/h (2 Bft) N 349 ° 0 min 5 W/m² 11,8 °C 21,8 °C 12,9 km/h (3 Bft)
09.06.2023 21:26 22,7 °C 22,3 °C 58 % 52 % 1014,1 hPa 0,0 l/m² 8,7 km/h (2 Bft) N-NW 329 ° 0 min 5 W/m² 12,0 °C 21,6 °C 12,9 km/h (3 Bft)
09.06.2023 21:27 22,7 °C 22,3 °C 58 % 52 % 1014,0 hPa 0,0 l/m² 6,8 km/h (2 Bft) N-NW 341 ° 0 min 0 W/m² 12,0 °C 22,2 °C 8,0 km/h (2 Bft)
09.06.2023 21:28 22,7 °C 22,3 °C 58 % 52 % 1014,0 hPa 0,0 l/m² 7,3 km/h (2 Bft) NW 324 ° 0 min 0 W/m² 12,0 °C 22,0 °C 9,7 km/h (2 Bft)
09.06.2023 21:29 22,7 °C 22,3 °C 58 % 52 % 1014,1 hPa 0,0 l/m² 6,8 km/h (2 Bft) N-NW 344 ° 0 min 0 W/m² 12,0 °C 22,2 °C 9,7 km/h (2 Bft)
09.06.2023 21:30 22,7 °C 22,3 °C 58 % 52 % 1014,1 hPa 0,0 l/m² 8,0 km/h (2 Bft) N 5 ° 0 min 0 W/m² 12,0 °C 21,8 °C 11,3 km/h (2 Bft)
09.06.2023 21:31 22,7 °C 22,2 °C 58 % 52 % 1014,1 hPa 0,0 l/m² 8,9 km/h (2 Bft) N-NW 346 ° 0 min 0 W/m² 11,9 °C 21,4 °C 12,9 km/h (3 Bft)
09.06.2023 21:32 22,7 °C 22,2 °C 58 % 52 % 1014,0 hPa 0,0 l/m² 10,1 km/h (2 Bft) N 355 ° 0 min 0 W/m² 11,9 °C 21,0 °C 14,5 km/h (3 Bft)
09.06.2023 21:33 22,7 °C 22,1 °C 58 % 52 % 1014,1 hPa 0,0 l/m² 7,9 km/h (2 Bft) N 355 ° 0 min 0 W/m² 11,8 °C 21,6 °C 9,7 km/h (2 Bft)
09.06.2023 21:34 22,7 °C 22,1 °C 58 % 52 % 1014,1 hPa 0,0 l/m² 9,8 km/h (2 Bft) N 355 ° 0 min 0 W/m² 11,8 °C 21,0 °C 14,5 km/h (3 Bft)
09.06.2023 21:35 22,7 °C 22,1 °C 58 % 51 % 1014,1 hPa 0,0 l/m² 9,5 km/h (2 Bft) N 350 ° 0 min 0 W/m² 11,5 °C 21,1 °C 14,5 km/h (3 Bft)
09.06.2023 21:36 22,7 °C 22,1 °C 58 % 51 % 1014,2 hPa 0,0 l/m² 7,0 km/h (2 Bft) N-NW 338 ° 0 min 0 W/m² 11,5 °C 21,9 °C 12,9 km/h (3 Bft)
09.06.2023 21:37 22,7 °C 22,0 °C 58 % 51 % 1014,2 hPa 0,0 l/m² 7,8 km/h (2 Bft) N-NW 345 ° 0 min 0 W/m² 11,4 °C 21,5 °C 11,3 km/h (2 Bft)
09.06.2023 21:38 22,7 °C 22,0 °C 58 % 51 % 1014,1 hPa 0,0 l/m² 8,9 km/h (2 Bft) N-NW 348 ° 0 min 0 W/m² 11,4 °C 21,2 °C 14,5 km/h (3 Bft)
09.06.2023 21:39 22,7 °C 21,9 °C 58 % 51 % 1014,1 hPa 0,0 l/m² 7,4 km/h (2 Bft) N-NW 344 ° 0 min 0 W/m² 11,3 °C 21,5 °C 9,7 km/h (2 Bft)
09.06.2023 21:40 22,7 °C 21,9 °C 58 % 51 % 1014,1 hPa 0,0 l/m² 8,2 km/h (2 Bft) NW 314 ° 0 min 0 W/m² 11,3 °C 21,3 °C 12,9 km/h (3 Bft)
09.06.2023 21:41 22,7 °C 21,9 °C 58 % 51 % 1014,2 hPa 0,0 l/m² 8,3 km/h (2 Bft) N 5 ° 0 min 0 W/m² 11,3 °C 21,2 °C 12,9 km/h (3 Bft)
09.06.2023 21:42 22,7 °C 21,9 °C 58 % 51 % 1014,1 hPa 0,0 l/m² 8,0 km/h (2 Bft) N 360 ° 0 min 0 W/m² 11,3 °C 21,3 °C 12,9 km/h (3 Bft)
09.06.2023 21:43 22,7 °C 21,9 °C 58 % 51 % 1014,2 hPa 0,0 l/m² 8,0 km/h (2 Bft) N 360 ° 0 min 0 W/m² 11,3 °C 21,3 °C 11,3 km/h (2 Bft)
09.06.2023 21:44 22,7 °C 21,9 °C 58 % 50 % 1014,1 hPa 0,0 l/m² 6,4 km/h (2 Bft) N 360 ° 0 min 0 W/m² 11,0 °C 21,9 °C 9,7 km/h (2 Bft)
09.06.2023 21:45 22,7 °C 21,9 °C 58 % 51 % 1014,2 hPa 0,0 l/m² 6,4 km/h (2 Bft) N 360 ° 0 min 0 W/m² 11,3 °C 21,9 °C 12,9 km/h (3 Bft)
09.06.2023 21:46 22,7 °C 21,9 °C 58 % 51 % 1014,2 hPa 0,0 l/m² 8,0 km/h (2 Bft) N 360 ° 0 min 0 W/m² 11,3 °C 21,3 °C 12,9 km/h (3 Bft)
09.06.2023 21:47 22,7 °C 21,9 °C 58 % 50 % 1014,3 hPa 0,0 l/m² 8,0 km/h (2 Bft) N 360 ° 0 min 0 W/m² 11,0 °C 21,3 °C 9,7 km/h (2 Bft)
09.06.2023 21:48 22,7 °C 21,8 °C 58 % 51 % 1014,2 hPa 0,0 l/m² 6,4 km/h (2 Bft) N 360 ° 0 min 0 W/m² 11,2 °C 21,8 °C 9,7 km/h (2 Bft)
09.06.2023 21:49 22,7 °C 21,8 °C 58 % 51 % 1014,2 hPa 0,0 l/m² 8,0 km/h (2 Bft) N 360 ° 0 min 0 W/m² 11,2 °C 21,2 °C 11,3 km/h (2 Bft)
09.06.2023 21:50 22,7 °C 21,8 °C 58 % 51 % 1014,3 hPa 0,0 l/m² 6,4 km/h (2 Bft) N 360 ° 0 min 0 W/m² 11,2 °C 21,8 °C 9,7 km/h (2 Bft)
09.06.2023 21:51 22,7 °C 21,8 °C 58 % 51 % 1014,3 hPa 0,0 l/m² 6,4 km/h (2 Bft) N 360 ° 0 min 0 W/m² 11,2 °C 21,8 °C 12,9 km/h (3 Bft)
09.06.2023 21:52 22,7 °C 21,7 °C 58 % 50 % 1014,3 hPa 0,0 l/m² 8,0 km/h (2 Bft) N-NW 337 ° 0 min 0 W/m² 10,8 °C 21,1 °C 12,9 km/h (3 Bft)
09.06.2023 21:53 22,7 °C 21,8 °C 58 % 50 % 1014,3 hPa 0,0 l/m² 6,4 km/h (2 Bft) N 360 ° 0 min 0 W/m² 10,9 °C 21,8 °C 9,7 km/h (2 Bft)
09.06.2023 21:54 22,7 °C 21,8 °C 58 % 50 % 1014,3 hPa 0,0 l/m² 6,4 km/h (2 Bft) N-NW 337 ° 0 min 0 W/m² 10,9 °C 21,8 °C 9,7 km/h (2 Bft)
09.06.2023 21:55 22,7 °C 21,8 °C 58 % 50 % 1014,3 hPa 0,0 l/m² 4,8 km/h (1 Bft) N 360 ° 0 min 0 W/m² 10,9 °C 21,8 °C 6,4 km/h (2 Bft)
09.06.2023 21:56 22,7 °C 21,8 °C 58 % 50 % 1014,3 hPa 0,0 l/m² 4,8 km/h (1 Bft) N 360 ° 0 min 0 W/m² 10,9 °C 21,8 °C 6,4 km/h (2 Bft)
09.06.2023 21:57 22,7 °C 21,7 °C 58 % 50 % 1014,3 hPa 0,0 l/m² 6,4 km/h (2 Bft) N 360 ° 0 min 0 W/m² 10,8 °C 21,7 °C 8,0 km/h (2 Bft)
09.06.2023 21:58 22,7 °C 21,7 °C 58 % 50 % 1014,3 hPa 0,0 l/m² 6,4 km/h (2 Bft) N 360 ° 0 min 0 W/m² 10,8 °C 21,7 °C 8,0 km/h (2 Bft)
09.06.2023 21:59 22,7 °C 21,7 °C 58 % 51 % 1014,3 hPa 0,0 l/m² 4,8 km/h (1 Bft) N 360 ° 0 min 0 W/m² 11,1 °C 21,7 °C 6,4 km/h (2 Bft)
09.06.2023 22:00 22,6 °C 21,7 °C 58 % 51 % 1014,4 hPa 0,0 l/m² 4,8 km/h (1 Bft) N 360 ° 0 min 0 W/m² 11,1 °C 21,7 °C 6,4 km/h (2 Bft)
09.06.2023 22:01 22,6 °C 21,7 °C 58 % 51 % 1014,3 hPa 0,0 l/m² 4,8 km/h (1 Bft) N 360 ° 0 min 0 W/m² 11,1 °C 21,7 °C 6,4 km/h (2 Bft)
09.06.2023 22:02 22,6 °C 21,6 °C 58 % 51 % 1014,3 hPa 0,0 l/m² 3,2 km/h (1 Bft) N-NO 22 ° 0 min 0 W/m² 11,0 °C 21,6 °C 8,0 km/h (2 Bft)
09.06.2023 22:03 22,6 °C 21,6 °C 58 % 51 % 1014,3 hPa 0,0 l/m² 6,4 km/h (2 Bft) N 360 ° 0 min 0 W/m² 11,0 °C 21,6 °C 9,7 km/h (2 Bft)
09.06.2023 22:04 22,6 °C 21,5 °C 59 % 51 % 1014,3 hPa 0,0 l/m² 4,8 km/h (1 Bft) N-NW 337 ° 0 min 0 W/m² 10,9 °C 21,5 °C 6,4 km/h (2 Bft)
09.06.2023 22:05 22,6 °C 21,4 °C 58 % 51 % 1014,3 hPa 0,0 l/m² 4,8 km/h (1 Bft) N 360 ° 0 min 0 W/m² 10,8 °C 21,4 °C 6,4 km/h (2 Bft)
09.06.2023 22:06 22,6 °C 21,4 °C 59 % 51 % 1014,3 hPa 0,0 l/m² 4,8 km/h (1 Bft) N 360 ° 0 min 0 W/m² 10,8 °C 21,4 °C 6,4 km/h (2 Bft)
09.06.2023 22:07 22,6 °C 21,4 °C 59 % 52 % 1014,3 hPa 0,0 l/m² 6,4 km/h (2 Bft) N 360 ° 0 min 0 W/m² 11,1 °C 21,4 °C 9,7 km/h (2 Bft)
09.06.2023 22:08 22,6 °C 21,3 °C 59 % 51 % 1014,3 hPa 0,0 l/m² 4,8 km/h (1 Bft) N 360 ° 0 min 0 W/m² 10,7 °C 21,3 °C 6,4 km/h (2 Bft)
09.06.2023 22:09 22,6 °C 21,3 °C 59 % 51 % 1014,4 hPa 0,0 l/m² 4,8 km/h (1 Bft) N 360 ° 0 min 0 W/m² 10,7 °C 21,3 °C 8,0 km/h (2 Bft)
09.06.2023 22:10 22,6 °C 21,3 °C 59 % 52 % 1014,4 hPa 0,0 l/m² 4,8 km/h (1 Bft) N 360 ° 0 min 0 W/m² 11,0 °C 21,3 °C 6,4 km/h (2 Bft)
09.06.2023 22:11 22,6 °C 21,3 °C 59 % 51 % 1014,4 hPa 0,0 l/m² 4,8 km/h (1 Bft) N 360 ° 0 min 0 W/m² 10,7 °C 21,3 °C 6,4 km/h (2 Bft)
09.06.2023 22:12 22,6 °C 21,3 °C 59 % 51 % 1014,4 hPa 0,0 l/m² 6,4 km/h (2 Bft) N-NW 337 ° 0 min 0 W/m² 10,7 °C 21,3 °C 14,5 km/h (3 Bft)
09.06.2023 22:13 22,6 °C 21,3 °C 59 % 52 % 1014,4 hPa 0,0 l/m² 4,8 km/h (1 Bft) N 360 ° 0 min 0 W/m² 11,0 °C 21,3 °C 6,4 km/h (2 Bft)
09.06.2023 22:14 22,6 °C 21,2 °C 59 % 51 % 1014,4 hPa 0,0 l/m² 1,6 km/h (1 Bft) N 360 ° 0 min 0 W/m² 10,7 °C 21,2 °C 4,8 km/h (1 Bft)
09.06.2023 22:15 22,6 °C 21,2 °C 59 % 52 % 1014,3 hPa 0,0 l/m² 1,6 km/h (1 Bft) N 360 ° 0 min 0 W/m² 10,9 °C 21,2 °C 3,2 km/h (1 Bft)
09.06.2023 22:16 22,6 °C 21,2 °C 59 % 52 % 1014,4 hPa 0,0 l/m² 1,6 km/h (1 Bft) N 360 ° 0 min 0 W/m² 10,9 °C 21,2 °C 3,2 km/h (1 Bft)
09.06.2023 22:17 22,5 °C 21,1 °C 59 % 52 % 1014,4 hPa 0,0 l/m² 1,6 km/h (1 Bft) N-NO 22 ° 0 min 0 W/m² 10,9 °C 21,1 °C 3,2 km/h (1 Bft)
09.06.2023 22:18 22,5 °C 21,1 °C 59 % 52 % 1014,4 hPa 0,0 l/m² 1,6 km/h (1 Bft) N-NO 22 ° 0 min 0 W/m² 10,9 °C 21,1 °C 4,8 km/h (1 Bft)
09.06.2023 22:19 22,5 °C 21,1 °C 59 % 52 % 1014,4 hPa 0,0 l/m² 1,6 km/h (1 Bft) N 360 ° 0 min 0 W/m² 10,9 °C 21,1 °C 6,4 km/h (2 Bft)
09.06.2023 22:20 22,5 °C 21,0 °C 59 % 53 % 1014,4 hPa 0,0 l/m² 0,0 km/h (0 Bft) N 360 ° 0 min 0 W/m² 11,0 °C 21,0 °C 3,2 km/h (1 Bft)
09.06.2023 22:21 22,5 °C 20,9 °C 59 % 53 % 1014,4 hPa 0,0 l/m² 1,6 km/h (1 Bft) N 360 ° 0 min 0 W/m² 11,0 °C 20,9 °C 6,4 km/h (2 Bft)
09.06.2023 22:22 22,5 °C 20,8 °C 59 % 53 % 1014,4 hPa 0,0 l/m² 1,6 km/h (1 Bft) N-NO 22 ° 0 min 0 W/m² 10,9 °C 20,8 °C 3,2 km/h (1 Bft)
09.06.2023 22:23 22,5 °C 20,8 °C 59 % 53 % 1014,4 hPa 0,0 l/m² 1,6 km/h (1 Bft) N-NO 22 ° 0 min 0 W/m² 10,9 °C 20,8 °C 3,2 km/h (1 Bft)
09.06.2023 22:24 22,5 °C 20,7 °C 59 % 54 % 1014,5 hPa 0,0 l/m² 1,6 km/h (1 Bft) NO 45 ° 0 min 0 W/m² 11,1 °C 20,7 °C 4,8 km/h (1 Bft)
09.06.2023 22:25 22,4 °C 20,7 °C 59 % 53 % 1014,4 hPa 0,0 l/m² 3,2 km/h (1 Bft) N 360 ° 0 min 0 W/m² 10,8 °C 20,7 °C 4,8 km/h (1 Bft)
09.06.2023 22:26 22,4 °C 20,7 °C 59 % 53 % 1014,5 hPa 0,0 l/m² 4,8 km/h (1 Bft) N-NW 337 ° 0 min 0 W/m² 10,8 °C 20,7 °C 8,0 km/h (2 Bft)
09.06.2023 22:27 22,5 °C 20,7 °C 59 % 53 % 1014,4 hPa 0,0 l/m² 3,2 km/h (1 Bft) N-NO 22 ° 0 min 0 W/m² 10,8 °C 20,7 °C 6,4 km/h (2 Bft)
09.06.2023 22:28 22,4 °C 20,7 °C 59 % 53 % 1014,5 hPa 0,0 l/m² 3,2 km/h (1 Bft) N-NO 22 ° 0 min 0 W/m² 10,8 °C 20,7 °C 4,8 km/h (1 Bft)
09.06.2023 22:29 22,4 °C 20,8 °C 59 % 53 % 1014,5 hPa 0,0 l/m² 1,6 km/h (1 Bft) N-NW 337 ° 0 min 0 W/m² 10,9 °C 20,8 °C 3,2 km/h (1 Bft)
09.06.2023 22:30 22,4 °C 20,7 °C 59 % 53 % 1014,5 hPa 0,0 l/m² 3,2 km/h (1 Bft) N 360 ° 0 min 0 W/m² 10,8 °C 20,7 °C 6,4 km/h (2 Bft)
09.06.2023 22:31 22,4 °C 20,7 °C 59 % 53 % 1014,5 hPa 0,0 l/m² 1,6 km/h (1 Bft) N-NO 22 ° 0 min 0 W/m² 10,8 °C 20,7 °C 4,8 km/h (1 Bft)
09.06.2023 22:32 22,4 °C 20,6 °C 59 % 53 % 1014,4 hPa 0,0 l/m² 1,6 km/h (1 Bft) N 360 ° 0 min 0 W/m² 10,7 °C 20,6 °C 3,2 km/h (1 Bft)
09.06.2023 22:33 22,4 °C 20,6 °C 59 % 54 % 1014,4 hPa 0,0 l/m² 3,2 km/h (1 Bft) N 360 ° 0 min 0 W/m² 11,0 °C 20,6 °C 4,8 km/h (1 Bft)
09.06.2023 22:34 22,4 °C 20,5 °C 59 % 53 % 1014,5 hPa 0,0 l/m² 3,2 km/h (1 Bft) N-NO 22 ° 0 min 0 W/m² 10,6 °C 20,5 °C 4,8 km/h (1 Bft)
09.06.2023 22:35 22,4 °C 20,5 °C 59 % 53 % 1014,5 hPa 0,0 l/m² 1,6 km/h (1 Bft) N 360 ° 0 min 0 W/m² 10,6 °C 20,5 °C 4,8 km/h (1 Bft)
09.06.2023 22:36 22,4 °C 20,5 °C 59 % 53 % 1014,5 hPa 0,0 l/m² 3,2 km/h (1 Bft) N 360 ° 0 min 0 W/m² 10,6 °C 20,5 °C 4,8 km/h (1 Bft)
09.06.2023 22:37 22,4 °C 20,4 °C 59 % 53 % 1014,5 hPa 0,0 l/m² 4,8 km/h (1 Bft) N 360 ° 0 min 0 W/m² 10,5 °C 20,4 °C 6,4 km/h (2 Bft)
09.06.2023 22:38 22,4 °C 20,5 °C 59 % 53 % 1014,5 hPa 0,0 l/m² 4,8 km/h (1 Bft) N 360 ° 0 min 0 W/m² 10,6 °C 20,5 °C 6,4 km/h (2 Bft)
09.06.2023 22:39 22,4 °C 20,5 °C 59 % 53 % 1014,5 hPa 0,0 l/m² 1,6 km/h (1 Bft) N 360 ° 0 min 0 W/m² 10,6 °C 20,5 °C 4,8 km/h (1 Bft)
09.06.2023 22:40 22,4 °C 20,5 °C 59 % 53 % 1014,5 hPa 0,0 l/m² 1,6 km/h (1 Bft) N 360 ° 0 min 0 W/m² 10,6 °C 20,5 °C 3,2 km/h (1 Bft)
09.06.2023 22:41 22,4 °C 20,5 °C 59 % 53 % 1014,5 hPa 0,0 l/m² 1,6 km/h (1 Bft) N 360 ° 0 min 0 W/m² 10,6 °C 20,5 °C 3,2 km/h (1 Bft)
09.06.2023 22:42 22,4 °C 20,4 °C 59 % 53 % 1014,5 hPa 0,0 l/m² 3,2 km/h (1 Bft) NO 45 ° 0 min 0 W/m² 10,5 °C 20,4 °C 4,8 km/h (1 Bft)
09.06.2023 22:43 22,4 °C 20,4 °C 59 % 54 % 1014,5 hPa 0,0 l/m² 0,0 km/h (0 Bft) NO 45 ° 0 min 0 W/m² 10,8 °C 20,4 °C 1,6 km/h (1 Bft)
09.06.2023 22:44 22,4 °C 20,3 °C 59 % 54 % 1014,5 hPa 0,0 l/m² 0,0 km/h (0 Bft) NO 45 ° 0 min 0 W/m² 10,7 °C 20,3 °C 1,6 km/h (1 Bft)
09.06.2023 22:45 22,4 °C 20,2 °C 59 % 55 % 1014,5 hPa 0,0 l/m² 1,6 km/h (1 Bft) NO 45 ° 0 min 0 W/m² 10,9 °C 20,2 °C 3,2 km/h (1 Bft)
09.06.2023 22:46 22,4 °C 20,2 °C 59 % 55 % 1014,6 hPa 0,0 l/m² 1,6 km/h (1 Bft) NO 45 ° 0 min 0 W/m² 10,9 °C 20,2 °C 3,2 km/h (1 Bft)
09.06.2023 22:47 22,4 °C 20,2 °C 59 % 55 % 1014,6 hPa 0,0 l/m² 0,0 km/h (0 Bft) NO 45 ° 0 min 0 W/m² 10,9 °C 20,2 °C 1,6 km/h (1 Bft)
09.06.2023 22:48 22,4 °C 20,1 °C 59 % 55 % 1014,6 hPa 0,0 l/m² 1,6 km/h (1 Bft) N-NW 337 ° 0 min 0 W/m² 10,8 °C 20,1 °C 8,0 km/h (2 Bft)
09.06.2023 22:49 22,4 °C 20,1 °C 59 % 55 % 1014,5 hPa 0,0 l/m² 1,6 km/h (1 Bft) N-NW 337 ° 0 min 0 W/m² 10,8 °C 20,1 °C 3,2 km/h (1 Bft)
09.06.2023 22:50 22,4 °C 20,0 °C 59 % 55 % 1014,6 hPa 0,0 l/m² 0,0 km/h (0 Bft) N 0 ° 0 min 0 W/m² 10,7 °C 20,0 °C 0,0 km/h (0 Bft)
09.06.2023 22:51 22,4 °C 20,0 °C 59 % 55 % 1014,5 hPa 0,0 l/m² 1,6 km/h (1 Bft) N 360 ° 0 min 0 W/m² 10,7 °C 20,0 °C 3,2 km/h (1 Bft)
09.06.2023 22:52 22,4 °C 20,0 °C 59 % 55 % 1014,6 hPa 0,0 l/m² 0,0 km/h (0 Bft) N 0 ° 0 min 0 W/m² 10,7 °C 20,0 °C 0,0 km/h (0 Bft)
09.06.2023 22:53 22,4 °C 20,0 °C 59 % 55 % 1014,6 hPa 0,0 l/m² 1,6 km/h (1 Bft) N 360 ° 0 min 0 W/m² 10,7 °C 20,0 °C 3,2 km/h (1 Bft)
09.06.2023 22:54 22,4 °C 19,9 °C 59 % 55 % 1014,6 hPa 0,0 l/m² 0,0 km/h (0 Bft) N 360 ° 0 min 0 W/m² 10,6 °C 19,9 °C 1,6 km/h (1 Bft)
09.06.2023 22:55 22,4 °C 19,9 °C 59 % 55 % 1014,7 hPa 0,0 l/m² 1,6 km/h (1 Bft) N-NO 22 ° 0 min 0 W/m² 10,6 °C 19,9 °C 3,2 km/h (1 Bft)
09.06.2023 22:56 22,4 °C 19,8 °C 59 % 56 % 1014,7 hPa 0,0 l/m² 1,6 km/h (1 Bft) N 360 ° 0 min 0 W/m² 10,8 °C 19,8 °C 4,8 km/h (1 Bft)
09.06.2023 22:57 22,3 °C 19,7 °C 59 % 56 % 1014,7 hPa 0,0 l/m² 4,8 km/h (1 Bft) N 360 ° 0 min 0 W/m² 10,7 °C 19,7 °C 6,4 km/h (2 Bft)
09.06.2023 22:58 22,3 °C 19,7 °C 59 % 56 % 1014,7 hPa 0,0 l/m² 6,4 km/h (2 Bft) N 360 ° 0 min 0 W/m² 10,7 °C 19,7 °C 11,3 km/h (2 Bft)
09.06.2023 22:59 22,3 °C 19,8 °C 59 % 55 % 1014,7 hPa 0,0 l/m² 4,8 km/h (1 Bft) N 360 ° 0 min 0 W/m² 10,5 °C 19,8 °C 9,7 km/h (2 Bft)
09.06.2023 23:00 22,3 °C 19,8 °C 59 % 56 % 1014,7 hPa 0,0 l/m² 8,0 km/h (2 Bft) N-NO 22 ° 0 min 0 W/m² 10,8 °C 19,1 °C 11,3 km/h (2 Bft)
09.06.2023 23:01 22,3 °C 19,8 °C 59 % 56 % 1014,8 hPa 0,0 l/m² 6,4 km/h (2 Bft) N-NO 22 ° 0 min 0 W/m² 10,8 °C 19,8 °C 12,9 km/h (3 Bft)
09.06.2023 23:02 22,3 °C 19,9 °C 59 % 55 % 1014,8 hPa 0,0 l/m² 8,0 km/h (2 Bft) N 360 ° 0 min 0 W/m² 10,6 °C 19,2 °C 12,9 km/h (3 Bft)
09.06.2023 23:03 22,3 °C 19,9 °C 59 % 55 % 1014,7 hPa 0,0 l/m² 4,8 km/h (1 Bft) N 360 ° 0 min 0 W/m² 10,6 °C 19,9 °C 8,0 km/h (2 Bft)
09.06.2023 23:04 22,3 °C 19,9 °C 59 % 55 % 1014,8 hPa 0,0 l/m² 6,4 km/h (2 Bft) N 360 ° 0 min 0 W/m² 10,6 °C 19,9 °C 8,0 km/h (2 Bft)
09.06.2023 23:05 22,3 °C 19,9 °C 59 % 55 % 1014,8 hPa 0,0 l/m² 6,4 km/h (2 Bft) N-NO 22 ° 0 min 0 W/m² 10,6 °C 19,9 °C 8,0 km/h (2 Bft)
09.06.2023 23:06 22,3 °C 20,0 °C 59 % 55 % 1014,8 hPa 0,0 l/m² 6,4 km/h (2 Bft) N 360 ° 0 min 0 W/m² 10,7 °C 20,0 °C 8,0 km/h (2 Bft)
09.06.2023 23:07 22,3 °C 20,0 °C 59 % 55 % 1014,8 hPa 0,0 l/m² 4,8 km/h (1 Bft) N 360 ° 0 min 0 W/m² 10,7 °C 20,0 °C 8,0 km/h (2 Bft)
09.06.2023 23:08 22,3 °C 20,1 °C 59 % 55 % 1014,9 hPa 0,0 l/m² 4,8 km/h (1 Bft) N-NO 22 ° 0 min 0 W/m² 10,8 °C 20,1 °C 9,7 km/h (2 Bft)
09.06.2023 23:09 22,3 °C 20,0 °C 59 % 55 % 1014,9 hPa 0,0 l/m² 6,4 km/h (2 Bft) N-NO 22 ° 0 min 0 W/m² 10,7 °C 20,0 °C 12,9 km/h (3 Bft)
09.06.2023 23:10 22,3 °C 20,1 °C 59 % 55 % 1014,9 hPa 0,0 l/m² 8,0 km/h (2 Bft) N-NO 22 ° 0 min 0 W/m² 10,8 °C 19,5 °C 14,5 km/h (3 Bft)
09.06.2023 23:11 22,3 °C 20,1 °C 59 % 55 % 1014,9 hPa 0,0 l/m² 6,4 km/h (2 Bft) N 360 ° 0 min 0 W/m² 10,8 °C 20,1 °C 12,9 km/h (3 Bft)
09.06.2023 23:12 22,3 °C 20,1 °C 59 % 55 % 1014,8 hPa 0,0 l/m² 6,4 km/h (2 Bft) N 360 ° 0 min 0 W/m² 10,8 °C 20,1 °C 12,9 km/h (3 Bft)
09.06.2023 23:13 22,3 °C 20,0 °C 59 % 55 % 1014,9 hPa 0,0 l/m² 6,4 km/h (2 Bft) N-NO 22 ° 0 min 0 W/m² 10,7 °C 20,0 °C 8,0 km/h (2 Bft)
09.06.2023 23:14 22,3 °C 20,0 °C 59 % 55 % 1014,9 hPa 0,0 l/m² 6,4 km/h (2 Bft) N-NO 22 ° 0 min 0 W/m² 10,7 °C 20,0 °C 8,0 km/h (2 Bft)
09.06.2023 23:15 22,3 °C 20,0 °C 59 % 55 % 1014,9 hPa 0,0 l/m² 4,8 km/h (1 Bft) N 360 ° 0 min 0 W/m² 10,7 °C 20,0 °C 12,9 km/h (3 Bft)
09.06.2023 23:16 22,3 °C 20,0 °C 59 % 55 % 1015,0 hPa 0,0 l/m² 6,4 km/h (2 Bft) N-NO 22 ° 0 min 0 W/m² 10,7 °C 20,0 °C 12,9 km/h (3 Bft)
09.06.2023 23:17 22,3 °C 20,0 °C 59 % 55 % 1014,9 hPa 0,0 l/m² 6,4 km/h (2 Bft) N 360 ° 0 min 0 W/m² 10,7 °C 20,0 °C 12,9 km/h (3 Bft)
09.06.2023 23:18 22,3 °C 19,9 °C 59 % 55 % 1014,9 hPa 0,0 l/m² 4,8 km/h (1 Bft) N 360 ° 0 min 0 W/m² 10,6 °C 19,9 °C 8,0 km/h (2 Bft)
09.06.2023 23:19 22,3 °C 19,9 °C 59 % 55 % 1015,0 hPa 0,0 l/m² 4,8 km/h (1 Bft) N 360 ° 0 min 0 W/m² 10,6 °C 19,9 °C 6,4 km/h (2 Bft)
09.06.2023 23:20 22,3 °C 19,9 °C 59 % 55 % 1015,0 hPa 0,0 l/m² 6,4 km/h (2 Bft) N 360 ° 0 min 0 W/m² 10,6 °C 19,9 °C 9,7 km/h (2 Bft)
09.06.2023 23:21 22,3 °C 19,9 °C 59 % 55 % 1015,1 hPa 0,0 l/m² 6,4 km/h (2 Bft) N-NO 22 ° 0 min 0 W/m² 10,6 °C 19,9 °C 11,3 km/h (2 Bft)
09.06.2023 23:22 22,3 °C 19,9 °C 59 % 55 % 1015,0 hPa 0,0 l/m² 4,8 km/h (1 Bft) N 360 ° 0 min 0 W/m² 10,6 °C 19,9 °C 8,0 km/h (2 Bft)
09.06.2023 23:23 22,3 °C 19,8 °C 59 % 56 % 1015,1 hPa 0,0 l/m² 4,8 km/h (1 Bft) N 360 ° 0 min 0 W/m² 10,8 °C 19,8 °C 8,0 km/h (2 Bft)
09.06.2023 23:24 22,3 °C 19,8 °C 59 % 55 % 1015,1 hPa 0,0 l/m² 4,8 km/h (1 Bft) N 360 ° 0 min 0 W/m² 10,5 °C 19,8 °C 11,3 km/h (2 Bft)
09.06.2023 23:25 22,3 °C 19,8 °C 59 % 56 % 1015,0 hPa 0,0 l/m² 6,4 km/h (2 Bft) N 360 ° 0 min 0 W/m² 10,8 °C 19,8 °C 12,9 km/h (3 Bft)
09.06.2023 23:26 22,3 °C 19,8 °C 59 % 56 % 1015,0 hPa 0,0 l/m² 4,8 km/h (1 Bft) N-NO 22 ° 0 min 0 W/m² 10,8 °C 19,8 °C 6,4 km/h (2 Bft)
09.06.2023 23:27 22,3 °C 19,8 °C 59 % 56 % 1015,0 hPa 0,0 l/m² 3,2 km/h (1 Bft) N 360 ° 0 min 0 W/m² 10,8 °C 19,8 °C 6,4 km/h (2 Bft)
09.06.2023 23:28 22,3 °C 19,8 °C 59 % 56 % 1015,1 hPa 0,0 l/m² 4,8 km/h (1 Bft) N 360 ° 0 min 0 W/m² 10,8 °C 19,8 °C 6,4 km/h (2 Bft)
09.06.2023 23:29 22,3 °C 19,8 °C 59 % 56 % 1015,1 hPa 0,0 l/m² 4,8 km/h (1 Bft) N 360 ° 0 min 0 W/m² 10,8 °C 19,8 °C 6,4 km/h (2 Bft)
09.06.2023 23:30 22,3 °C 19,8 °C 59 % 56 % 1015,1 hPa 0,0 l/m² 6,4 km/h (2 Bft) N 360 ° 0 min 0 W/m² 10,8 °C 19,8 °C 12,9 km/h (3 Bft)
09.06.2023 23:31 22,3 °C 19,7 °C 59 % 56 % 1015,1 hPa 0,0 l/m² 6,4 km/h (2 Bft) N 360 ° 0 min 0 W/m² 10,7 °C 19,7 °C 12,9 km/h (3 Bft)
09.06.2023 23:32 22,3 °C 19,7 °C 59 % 56 % 1015,0 hPa 0,0 l/m² 4,8 km/h (1 Bft) N 360 ° 0 min 0 W/m² 10,7 °C 19,7 °C 8,0 km/h (2 Bft)
09.06.2023 23:33 22,3 °C 19,7 °C 59 % 57 % 1015,0 hPa 0,0 l/m² 4,8 km/h (1 Bft) N 360 ° 0 min 0 W/m² 10,9 °C 19,7 °C 12,9 km/h (3 Bft)
09.06.2023 23:34 22,3 °C 19,7 °C 59 % 57 % 1015,0 hPa 0,0 l/m² 8,0 km/h (2 Bft) N 360 ° 0 min 0 W/m² 10,9 °C 19,0 °C 11,3 km/h (2 Bft)
09.06.2023 23:35 22,3 °C 19,7 °C 59 % 57 % 1015,0 hPa 0,0 l/m² 6,4 km/h (2 Bft) N-NO 22 ° 0 min 0 W/m² 10,9 °C 19,7 °C 12,9 km/h (3 Bft)
09.06.2023 23:36 22,3 °C 19,7 °C 59 % 57 % 1015,0 hPa 0,0 l/m² 6,4 km/h (2 Bft) N-NO 22 ° 0 min 0 W/m² 10,9 °C 19,7 °C 8,0 km/h (2 Bft)
09.06.2023 23:37 22,3 °C 19,6 °C 59 % 57 % 1015,0 hPa 0,0 l/m² 3,2 km/h (1 Bft) N 360 ° 0 min 0 W/m² 10,8 °C 19,6 °C 8,0 km/h (2 Bft)
09.06.2023 23:38 22,3 °C 19,6 °C 59 % 57 % 1015,0 hPa 0,0 l/m² 6,4 km/h (2 Bft) N 360 ° 0 min 0 W/m² 10,8 °C 19,6 °C 11,3 km/h (2 Bft)
09.06.2023 23:39 22,3 °C 19,6 °C 59 % 57 % 1015,1 hPa 0,0 l/m² 3,2 km/h (1 Bft) N-NO 22 ° 0 min 0 W/m² 10,8 °C 19,6 °C 6,4 km/h (2 Bft)
09.06.2023 23:40 22,3 °C 19,6 °C 59 % 57 % 1015,1 hPa 0,0 l/m² 4,8 km/h (1 Bft) N-NO 22 ° 0 min 0 W/m² 10,8 °C 19,6 °C 8,0 km/h (2 Bft)
09.06.2023 23:41 22,3 °C 19,6 °C 59 % 57 % 1015,1 hPa 0,0 l/m² 8,0 km/h (2 Bft) N-NO 22 ° 0 min 0 W/m² 10,8 °C 18,9 °C 14,5 km/h (3 Bft)
09.06.2023 23:42 22,3 °C 19,6 °C 59 % 57 % 1015,1 hPa 0,0 l/m² 4,8 km/h (1 Bft) N-NO 22 ° 0 min 0 W/m² 10,8 °C 19,6 °C 8,0 km/h (2 Bft)
09.06.2023 23:43 22,3 °C 19,6 °C 59 % 57 % 1015,1 hPa 0,0 l/m² 4,8 km/h (1 Bft) N 360 ° 0 min 0 W/m² 10,8 °C 19,6 °C 6,4 km/h (2 Bft)
09.06.2023 23:44 22,3 °C 19,6 °C 59 % 57 % 1015,1 hPa 0,0 l/m² 3,2 km/h (1 Bft) N 360 ° 0 min 0 W/m² 10,8 °C 19,6 °C 4,8 km/h (1 Bft)
09.06.2023 23:45 22,2 °C 19,6 °C 59 % 57 % 1015,1 hPa 0,0 l/m² 0,0 km/h (0 Bft) N-NW 337 ° 0 min 0 W/m² 10,8 °C 19,6 °C 3,2 km/h (1 Bft)
09.06.2023 23:46 22,3 °C 19,5 °C 59 % 58 % 1015,1 hPa 0,0 l/m² 1,6 km/h (1 Bft) N-NW 337 ° 0 min 0 W/m² 11,0 °C 19,5 °C 3,2 km/h (1 Bft)
09.06.2023 23:47 22,3 °C 19,4 °C 59 % 58 % 1015,1 hPa 0,0 l/m² 0,0 km/h (0 Bft) N-NW 337 ° 0 min 0 W/m² 10,9 °C 19,4 °C 1,6 km/h (1 Bft)
09.06.2023 23:48 22,3 °C 19,3 °C 59 % 61 % 1015,1 hPa 0,0 l/m² 0,0 km/h (0 Bft) N-NW 337 ° 0 min 0 W/m² 11,6 °C 19,3 °C 1,6 km/h (1 Bft)
09.06.2023 23:49 22,3 °C 18,9 °C 59 % 62 % 1015,1 hPa 0,0 l/m² 0,0 km/h (0 Bft) N-NW 337 ° 0 min 0 W/m² 11,5 °C 18,9 °C 1,6 km/h (1 Bft)
09.06.2023 23:50 22,3 °C 18,7 °C 59 % 62 % 1015,1 hPa 0,0 l/m² 1,6 km/h (1 Bft) N-NW 337 ° 0 min 0 W/m² 11,3 °C 18,7 °C 3,2 km/h (1 Bft)
09.06.2023 23:51 22,3 °C 18,6 °C 59 % 62 % 1015,1 hPa 0,0 l/m² 0,0 km/h (0 Bft) N-NW 337 ° 0 min 0 W/m² 11,2 °C 18,6 °C 1,6 km/h (1 Bft)
09.06.2023 23:52 22,3 °C 18,5 °C 59 % 62 % 1015,1 hPa 0,0 l/m² 0,0 km/h (0 Bft) N-NW 337 ° 0 min 0 W/m² 11,1 °C 18,5 °C 1,6 km/h (1 Bft)
09.06.2023 23:53 22,3 °C 18,4 °C 59 % 63 % 1015,1 hPa 0,0 l/m² 0,0 km/h (0 Bft) NW 315 ° 0 min 0 W/m² 11,2 °C 18,4 °C 1,6 km/h (1 Bft)
09.06.2023 23:54 22,3 °C 18,3 °C 59 % 63 % 1015,1 hPa 0,0 l/m² 1,6 km/h (1 Bft) W-NW 292 ° 0 min 0 W/m² 11,1 °C 18,3 °C 4,8 km/h (1 Bft)
09.06.2023 23:55 22,3 °C 18,3 °C 59 % 63 % 1015,1 hPa 0,0 l/m² 0,0 km/h (0 Bft) W-NW 292 ° 0 min 0 W/m² 11,1 °C 18,3 °C 1,6 km/h (1 Bft)
09.06.2023 23:56 22,3 °C 18,3 °C 59 % 63 % 1015,1 hPa 0,0 l/m² 0,0 km/h (0 Bft) N 0 ° 0 min 0 W/m² 11,1 °C 18,3 °C 0,0 km/h (0 Bft)
09.06.2023 23:57 22,3 °C 18,3 °C 59 % 64 % 1015,1 hPa 0,0 l/m² 3,2 km/h (1 Bft) W-SW 247 ° 0 min 0 W/m² 11,4 °C 18,3 °C 6,4 km/h (2 Bft)
09.06.2023 23:58 22,3 °C 18,2 °C 59 % 65 % 1015,0 hPa 0,0 l/m² 4,8 km/h (1 Bft) W-SW 247 ° 0 min 0 W/m² 11,5 °C 18,2 °C 6,4 km/h (2 Bft)
09.06.2023 23:59 22,2 °C 17,9 °C 59 % 66 % 1015,1 hPa 0,0 l/m² 3,2 km/h (1 Bft) W-SW 247 ° 0 min 0 W/m² 11,5 °C 17,9 °C 6,4 km/h (2 Bft)
_ Min-Zeit 09:02 05:22 20:32 16:36 18:59 - 23:56 - - - - 23:24 05:22 23:56
Minimum _ 21,8 °C 12,1 °C 56 % 37 % 1013,3 hPa - 0,0 km/h (0 Bft) - - - - 10,5 °C 12,1 °C 0,0 km/h (0 Bft)
_ Max-Zeit 21:59 15:36 23:59 07:01 10:32 23:59 17:31 - - 18:46 12:27 08:47 15:33 17:37
Maximum _ 22,7 °C 29,4 °C 59 % 94 % 1016,0 hPa 0,0 l/m² 18,5 km/h
N-NW (3 Bft)
- - 2 min 981 W/m² 16,4 °C 29,2 °C 25,7 km/h
N (4 Bft)
Durchschnitt _ 22,2 °C 21,1 °C 58 % 64 % 1014,8 hPa #0,0 l/m² 4,9 km/h (1 Bft) N - #13:08 h 275 W/m² 13,1 °C 20,8 °C 8,3 km/h (2 Bft)
© 2009 Mathias Hoßbach